[[{"header":{"parameterUnit":"m.s-1","parameterCategory":1,"la1":30.6,"la2":28.766,"lo1":-90.7593,"lo2":-88.6598,"dy":0.0162,"dx":0.0183,"nx":116,"ny":114,"refTime":"2024-07-04T06:00:00:Z","depth":0,"parameterNumber":2,"parameterNumberName":"U-component_of_WINDS"},"data":[0.0,0.0,0.0,0.0,0.0,0.0,0.0,0.0,0.0,0.0,0.0,0.0,0.0,0.0,0.0,0.0,0.0,0.0,0.0,0.0,0.0,0.0,0.0,0.0,0.0,0.0,0.0,0.0,0.0,0.0,0.0,0.0,0.0,0.0,0.0,0.0,0.0,0.0,0.0,0.0,0.0,0.0,0.0,0.0,0.0,0.0,0.0,0.0,0.0,0.0,0.0,0.0,0.0,0.0,0.0,0.0,0.0,0.0,0.0,0.0,0.0,0.0,0.0,0.0,0.0,0.0,0.0,0.0,0.0,0.0,0.0,0.0,0.0,0.0,0.0,0.0,0.0,0.0,0.0,0.0,0.0,0.0,0.0,0.0,0.0,0.0,0.0,0.0,0.0,0.0,0.0,0.0,0.0,0.0,0.0,0.0,0.0,0.0,0.0,0.0,0.0,0.0,0.0,0.0,0.0,0.0,0.0,0.0,0.0,0.0,0.0,0.0,0.0,0.0,0.0,0.0,0.0,0.0,0.0,0.0,0.0,0.0,0.0,0.0,0.0,0.0,0.0,0.0,0.0,0.0,0.0,0.0,0.0,0.0,0.0,0.0,0.0,0.0,0.0,0.0,0.0,0.0,0.0,0.0,0.0,0.0,0.0,0.0,0.0,0.0,0.0,0.0,0.0,0.0,0.0,0.0,0.0,0.0,0.0,0.0,0.0,0.0,0.0,0.0,0.0,0.0,0.0,0.0,0.0,0.0,0.0,0.0,0.0,0.0,0.0,0.0,0.0,0.0,0.0,0.0,0.0,0.0,0.0,0.0,0.0,0.0,0.0,0.0,0.0,0.0,0.0,0.0,0.0,0.0,0.0,0.0,0.0,0.0,0.0,0.0,0.0,0.0,0.0,0.0,0.0,0.0,0.0,0.0,0.0,0.0,0.0,0.0,0.0,0.0,0.0,0.0,0.0,0.0,0.0,0.0,0.0,0.0,0.0,0.0,0.0,0.0,0.0,0.0,0.0,0.0,0.0,0.0,0.0,0.0,0.0,0.0,0.0,0.0,0.0,0.0,0.0,0.0,0.0,0.0,0.0,0.0,0.0,0.0,0.0,0.0,0.0,0.0,0.0,0.0,0.0,0.0,0.0,0.0,0.0,0.0,0.0,0.0,0.0,0.0,0.0,0.0,0.0,0.0,0.0,0.0,0.0,0.0,0.0,0.0,0.0,0.0,0.0,0.0,0.0,0.0,0.0,0.0,0.0,0.0,0.0,0.0,0.0,0.0,0.0,0.0,0.0,0.0,0.0,0.0,0.0,0.0,0.0,0.0,0.0,0.0,0.0,0.0,0.0,0.0,0.0,0.0,0.0,0.0,0.0,0.0,0.0,0.0,0.0,0.0,0.0,0.0,0.0,0.0,0.0,0.0,0.0,0.0,0.0,0.0,0.0,0.0,0.0,0.0,0.0,0.0,0.0,0.0,0.0,0.0,0.0,0.0,0.0,0.0,0.0,0.0,0.0,0.0,0.0,0.0,0.0,0.0,0.0,0.0,0.0,0.0,0.0,0.0,0.0,0.0,0.0,0.0,0.0,0.0,0.0,0.0,0.0,0.0,0.0,0.0,0.0,0.0,0.0,0.0,0.0,0.0,0.0,0.0,0.0,0.0,0.0,0.0,0.0,0.0,0.0,0.0,0.0,0.0,0.0,0.0,0.0,0.0,0.0,0.0,0.0,0.0,0.0,0.0,0.0,0.0,0.0,0.0,0.0,0.0,0.0,0.0,0.0,0.0,0.0,0.0,0.0,0.0,0.0,0.0,0.0,0.0,0.0,0.0,0.0,0.0,0.0,0.0,0.0,0.0,0.0,0.0,0.0,0.0,0.0,0.0,0.0,0.0,0.0,0.0,0.0,0.0,0.0,0.0,0.0,0.0,0.0,0.0,0.0,0.0,0.0,0.0,0.0,0.0,0.0,0.0,0.0,0.0,0.0,0.0,0.0,0.0,0.0,0.0,0.0,0.0,0.0,0.0,0.0,0.0,0.0,0.0,0.0,0.0,0.0,0.0,0.0,0.0,0.0,0.0,0.0,0.0,0.0,0.0,0.0,0.0,0.0,0.0,0.0,0.0,0.0,0.0,0.0,0.0,0.0,0.0,0.0,0.0,0.0,0.0,0.0,0.0,0.0,0.0,0.0,0.0,0.0,0.0,0.0,0.0,0.0,0.0,0.0,0.0,0.0,0.0,0.0,0.0,0.0,0.0,0.0,0.0,0.0,0.0,0.0,0.0,0.0,0.0,0.0,0.0,0.0,0.0,0.0,0.0,0.0,0.0,0.0,0.0,0.0,0.0,0.0,0.0,0.0,0.0,0.0,0.0,0.0,0.0,0.0,0.0,0.0,0.0,0.0,0.0,0.0,0.0,0.0,0.0,0.0,0.0,0.0,0.0,0.0,0.0,0.0,0.0,0.0,0.0,0.0,0.0,0.0,0.0,0.0,0.0,0.0,0.0,0.0,0.0,0.0,0.0,0.0,0.0,0.0,0.0,0.0,0.0,0.0,0.0,0.0,0.0,0.0,0.0,0.0,0.0,0.0,0.0,0.0,0.0,0.0,0.0,0.0,0.0,0.0,0.0,0.0,0.0,0.0,0.0,0.0,0.0,0.0,0.0,0.0,0.0,0.0,0.0,0.0,0.0,0.0,0.0,0.0,0.0,0.0,0.0,0.0,0.0,0.0,0.0,0.0,0.0,0.0,0.0,0.0,0.0,0.0,0.0,0.0,0.0,0.0,0.0,0.0,0.0,0.0,0.0,0.0,0.0,0.0,0.0,0.0,0.0,0.0,0.0,0.0,0.0,0.0,0.0,0.0,0.0,0.0,0.0,0.0,0.0,0.0,0.0,0.0,0.0,0.0,0.0,0.0,0.0,0.0,0.0,0.0,0.0,0.0,0.0,0.0,0.0,0.0,0.0,0.0,0.0,0.0,0.0,0.0,0.0,0.0,0.0,0.0,0.0,0.0,0.0,0.0,0.0,0.0,0.0,0.0,0.0,0.0,0.0,0.0,0.0,0.0,0.0,0.0,0.0,0.0,0.0,0.0,0.0,0.0,0.0,0.0,0.0,0.0,0.0,0.0,0.0,0.0,0.0,0.0,0.0,0.0,0.0,0.0,0.0,0.0,0.0,0.0,0.0,0.0,0.0,0.0,0.0,0.0,0.0,0.0,0.0,0.0,0.0,0.0,0.0,0.0,0.0,0.0,0.0,0.0,0.0,0.0,0.0,0.0,0.0,0.0,0.0,0.0,0.0,0.0,0.0,0.0,0.0,0.0,0.0,0.0,0.0,0.0,0.0,0.0,0.0,0.0,0.0,0.0,0.0,0.0,0.0,0.0,0.0,0.0,0.0,0.0,0.0,0.0,0.0,0.0,0.0,0.0,0.0,0.0,0.0,0.0,0.0,0.0,0.0,0.0,0.0,0.0,0.0,0.0,0.0,0.0,0.0,0.0,0.0,0.0,0.0,0.0,0.0,0.0,0.0,0.0,0.0,0.0,0.0,0.0,0.0,0.0,0.0,0.0,0.0,0.0,0.0,0.0,0.0,0.0,0.0,0.0,0.0,0.0,0.0,0.0,0.0,0.0,0.0,0.0,0.0,0.0,0.0,0.0,0.0,0.0,0.0,0.0,0.0,0.0,0.0,0.0,0.0,0.0,0.0,0.0,0.0,0.0,0.0,0.0,0.0,0.0,0.0,0.0,0.0,0.0,0.0,0.0,0.0,0.0,0.0,0.0,0.0,0.0,0.0,0.0,0.0,0.0,0.0,0.0,0.0,0.0,0.0,0.0,0.0,0.0,0.0,0.0,0.0,0.0,0.0,0.0,0.0,0.0,0.0,0.0,0.0,0.0,0.0,0.0,0.0,0.0,0.0,0.0,0.0,0.0,0.0,0.0,0.0,0.0,0.0,0.0,0.0,0.0,0.0,0.0,0.0,0.0,0.0,0.0,0.0,0.0,0.0,0.0,0.0,0.0,0.0,0.0,0.0,0.0,0.0,0.0,0.0,0.0,0.0,0.0,0.0,0.0,0.0,0.0,0.0,0.0,0.0,0.0,0.0,0.0,0.0,0.0,0.0,0.0,0.0,0.0,0.0,0.0,0.0,0.0,0.0,0.0,0.0,0.0,0.0,0.0,0.0,0.0,0.0,0.0,0.0,0.0,0.0,0.0,0.0,0.0,0.0,0.0,0.0,0.0,0.0,0.0,0.0,0.0,0.0,0.0,0.0,0.0,0.0,0.0,0.0,0.0,0.0,0.0,0.0,0.0,0.0,0.0,0.0,0.0,0.0,0.0,0.0,0.0,0.0,0.0,0.0,0.0,0.0,0.0,0.0,0.0,0.0,0.0,0.0,0.0,0.0,0.0,0.0,0.0,0.0,0.0,0.0,0.0,0.0,0.0,0.0,0.0,0.0,0.0,0.0,0.0,0.0,0.0,0.0,0.0,0.0,0.0,0.0,0.0,0.0,0.0,0.0,0.0,0.0,0.0,0.0,0.0,0.0,0.0,0.0,0.0,0.0,0.0,0.0,0.0,0.0,0.0,0.0,0.0,0.0,0.0,0.0,0.0,0.0,0.0,0.0,0.0,0.0,0.0,0.0,0.0,0.0,0.0,0.0,0.0,0.0,0.0,0.0,0.0,0.0,0.0,0.0,0.0,0.0,0.0,0.0,0.0,0.0,0.0,0.0,0.0,0.0,0.0,0.0,0.0,0.0,0.0,0.0,0.0,0.0,0.0,0.0,0.0,0.0,0.0,0.0,0.0,0.0,0.0,0.0,0.0,0.0,0.0,0.0,0.0,0.0,0.0,0.0,0.0,0.0,0.0,0.0,0.0,0.0,0.0,0.0,0.0,0.0,0.0,0.0,0.0,0.0,0.0,0.0,0.0,0.0,0.0,0.0,0.0,0.0,0.0,0.0,0.0,0.0,0.0,0.0,0.0,0.0,0.0,0.0,0.0,0.0,0.0,0.0,0.0,0.0,0.0,0.0,0.0,0.0,0.0,0.0,0.0,0.0,0.0,0.0,0.0,0.0,0.0,0.0,0.0,0.0,0.0,0.0,0.0,0.0,0.0,0.0,0.0,0.0,0.0,0.0,0.0,0.0,0.0,0.0,0.0,0.0,0.0,0.0,0.0,0.0,0.0,0.0,0.0,0.0,0.0,0.0,0.0,0.0,0.0,0.0,0.0,0.0,0.0,0.0,0.0,0.0,0.0,0.0,0.0,0.0,0.0,0.0,0.0,0.0,0.0,0.0,0.0,0.0,0.0,0.0,0.0,0.0,0.0,0.0,0.0,0.0,0.0,0.0,0.0,0.0,0.0,0.0,0.0,0.0,0.0,0.0,0.0,0.0,0.0,0.0,0.0,0.0,0.0,0.0,0.0,0.0,0.0,0.0,0.0,0.0,0.0,0.0,0.0,0.0,0.0,0.0,0.0,0.0,0.0,0.0,0.0,0.0,0.0,0.0,0.0,0.0,0.0,0.0,0.0,0.0,0.0,0.0,0.0,0.0,0.0,0.0,0.0,0.0,0.0,0.0,0.0,0.0,0.0,0.0,0.0,0.0,0.0,0.0,0.0,0.0,0.0,0.0,0.0,0.0,0.0,0.0,0.0,0.0,0.0,0.0,0.0,0.0,0.0,0.0,0.0,0.0,0.0,0.0,0.0,0.0,0.0,0.0,0.0,0.0,0.0,0.0,0.0,0.0,0.0,0.0,0.0,0.0,0.0,0.0,0.0,0.0,0.0,0.0,0.0,0.0,0.0,0.0,0.0,0.0,0.0,0.0,0.0,0.0,0.0,0.0,0.0,0.0,0.0,0.0,0.0,0.0,0.0,0.0,0.0,0.0,0.0,0.0,0.0,0.0,0.0,0.0,0.0,0.0,0.0,0.0,0.0,0.0,0.0,0.0,0.0,0.0,0.0,0.0,0.0,0.0,0.0,0.0,0.0,0.0,0.0,0.0,0.0,0.0,0.0,0.0,0.0,0.0,0.0,0.0,0.0,0.0,0.0,0.0,0.0,0.0,0.0,0.0,0.0,0.0,0.0,0.0,0.0,0.0,0.0,0.0,-4.3802,-4.2869,0.0,0.0,0.0,0.0,0.0,0.0,0.0,0.0,0.0,0.0,0.0,0.0,0.0,0.0,0.0,0.0,0.0,0.0,0.0,0.0,0.0,0.0,0.0,-3.034,-3.0346,-3.0348,-3.0385,-3.0402,-3.04,0.0,0.0,0.0,0.0,0.0,-3.0649,-3.0685,-3.0725,-3.0755,-3.075,-3.0756,-3.0756,-3.0788,-3.0803,-3.08,0.0,0.0,0.0,0.0,0.0,0.0,0.0,0.0,0.0,0.0,0.0,0.0,0.0,0.0,0.0,0.0,0.0,0.0,0.0,0.0,0.0,0.0,0.0,0.0,0.0,0.0,0.0,0.0,0.0,0.0,0.0,0.0,0.0,0.0,0.0,0.0,0.0,0.0,0.0,0.0,0.0,0.0,0.0,0.0,0.0,0.0,0.0,0.0,0.0,0.0,0.0,0.0,0.0,0.0,0.0,0.0,0.0,0.0,0.0,0.0,0.0,0.0,0.0,0.0,0.0,0.0,0.0,0.0,0.0,0.0,-4.5785,-4.4996,0.0,0.0,0.0,0.0,0.0,0.0,0.0,0.0,0.0,0.0,0.0,0.0,0.0,0.0,0.0,0.0,0.0,0.0,0.0,0.0,0.0,-2.8503,-3.0119,-3.0286,-3.0286,-3.0266,-3.026,-3.0279,-3.0279,-3.0292,0.0,0.0,0.0,-3.0505,-3.0554,-3.0578,-3.0614,-3.0664,-3.0665,-3.0675,-3.0675,-3.0688,-3.0718,-3.0774,-3.078,0.0,0.0,0.0,0.0,0.0,0.0,0.0,0.0,0.0,0.0,0.0,0.0,0.0,0.0,0.0,0.0,0.0,0.0,0.0,0.0,0.0,0.0,0.0,0.0,0.0,0.0,0.0,0.0,0.0,0.0,0.0,0.0,0.0,0.0,0.0,0.0,0.0,0.0,0.0,0.0,0.0,0.0,0.0,0.0,0.0,0.0,0.0,0.0,0.0,0.0,0.0,0.0,0.0,0.0,0.0,0.0,0.0,0.0,0.0,0.0,0.0,0.0,0.0,-4.9002,-4.9049,-4.9052,-4.8968,-4.8875,-4.8717,-4.7973,-4.7454,-4.7048,-4.6336,0.0,0.0,0.0,0.0,0.0,0.0,0.0,0.0,0.0,0.0,0.0,0.0,0.0,0.0,0.0,0.0,0.0,0.0,0.0,-2.8437,-3.0043,-3.0207,-3.0192,-3.013,-3.0123,-3.0145,-3.0206,-3.0266,0.0,0.0,-3.0375,-3.0428,-3.0439,-3.0472,-3.0521,-3.0525,-3.0534,-3.0528,-3.0528,-3.0583,-3.0649,-3.0714,-3.0775,-3.0793,-3.0786,0.0,0.0,0.0,0.0,0.0,0.0,0.0,0.0,0.0,0.0,0.0,0.0,0.0,0.0,0.0,0.0,0.0,0.0,0.0,0.0,0.0,0.0,0.0,0.0,0.0,0.0,0.0,0.0,0.0,0.0,0.0,0.0,0.0,0.0,0.0,0.0,0.0,0.0,0.0,0.0,0.0,-4.1228,-4.3123,0.0,0.0,0.0,0.0,0.0,0.0,0.0,0.0,0.0,0.0,0.0,0.0,0.0,-4.8574,-4.8671,-4.9413,-4.9815,-4.9841,-5.0538,-5.086,-5.0853,-5.0739,-5.063,-5.0552,-5.0375,0.0,-4.7932,-4.7817,0.0,0.0,0.0,0.0,0.0,0.0,0.0,0.0,0.0,0.0,0.0,0.0,0.0,0.0,0.0,0.0,0.0,0.0,0.0,0.0,0.0,-3.0057,-3.0003,-2.994,-2.9975,-3.0022,-3.0083,-3.0157,-3.0214,-3.0292,-3.0322,-3.0352,-3.0408,-3.04,-3.0386,-3.0386,-3.0398,-3.0406,-3.0451,-3.0516,-3.0595,-3.0701,-3.0737,-3.076,-3.0803,-3.0765,0.0,0.0,0.0,0.0,0.0,0.0,0.0,0.0,0.0,0.0,0.0,0.0,0.0,0.0,0.0,0.0,0.0,0.0,0.0,0.0,0.0,0.0,0.0,0.0,0.0,0.0,0.0,0.0,0.0,0.0,0.0,0.0,0.0,0.0,0.0,0.0,0.0,0.0,0.0,-4.1026,-4.3059,-4.4289,-4.4431,-4.4433,0.0,0.0,0.0,0.0,0.0,0.0,0.0,0.0,0.0,-4.9506,-4.9501,-4.9714,-5.0202,-5.0599,-5.0786,-5.0786,-5.1135,-5.1276,-5.119,-5.1099,-5.1002,-5.0899,-5.0838,-5.0343,-4.951,-4.9029,-4.8625,-4.8259,0.0,0.0,0.0,0.0,-4.7009,-4.7058,0.0,0.0,0.0,0.0,0.0,0.0,0.0,0.0,0.0,0.0,0.0,0.0,-2.9845,-2.9866,-2.9789,-2.97,-2.9764,-2.9834,-2.988,-2.9984,-3.0109,-3.0233,-3.0267,-3.0292,-3.0311,-3.0235,-3.0209,-3.0254,-3.0267,-3.0304,-3.0375,-3.0465,-3.0558,-3.068,-3.0689,-3.0742,-3.0798,-3.0804,-3.0723,0.0,0.0,0.0,0.0,0.0,0.0,0.0,0.0,0.0,0.0,0.0,0.0,0.0,0.0,0.0,0.0,0.0,0.0,0.0,0.0,0.0,0.0,0.0,0.0,0.0,0.0,0.0,0.0,0.0,0.0,0.0,0.0,0.0,0.0,0.0,0.0,0.0,0.0,-4.3279,-4.4767,-4.5839,-4.5969,-4.5974,0.0,0.0,0.0,0.0,0.0,0.0,-4.9237,-4.9432,-4.9802,-5.0401,-5.042,-5.0733,-5.1397,-5.139,-5.1403,-5.1398,-5.1372,-5.1296,-5.1176,-5.1092,-5.1009,-5.0863,-5.0801,-5.0749,-5.0654,-4.999,-4.9721,-4.9663,-4.9029,-4.8779,-4.8779,-4.8779,-4.8779,-4.8769,0.0,0.0,0.0,0.0,0.0,0.0,0.0,0.0,0.0,0.0,0.0,-2.9042,-2.965,-2.9664,-2.956,-2.9433,-2.9482,-2.956,0.0,-2.9794,-2.9972,-3.0102,-3.0176,-3.0183,-3.0117,-2.9988,-2.9977,-3.0116,-3.0178,-3.0234,-3.0316,-3.0449,-3.054,-3.0614,-3.0673,-3.0749,-3.08,-3.0808,-3.0769,-3.0695,0.0,0.0,0.0,0.0,0.0,0.0,0.0,0.0,0.0,0.0,0.0,0.0,0.0,0.0,0.0,0.0,0.0,0.0,0.0,0.0,0.0,0.0,0.0,0.0,0.0,0.0,0.0,0.0,0.0,0.0,0.0,0.0,0.0,0.0,0.0,0.0,0.0,0.0,0.0,-4.8406,-4.8617,0.0,0.0,0.0,0.0,-4.8769,-4.9629,-5.0137,-5.0137,-5.0859,-5.1289,-5.1328,-5.1328,-5.1367,-5.1406,-5.1405,-5.14,-5.1408,-5.1338,-5.123,-5.1092,-5.1037,-5.0925,-5.0801,-5.0729,-5.0692,-5.0712,-5.0654,-5.0635,-5.0635,-5.0596,-5.0577,-5.0577,-5.0577,-5.0577,-5.0577,0.0,0.0,0.0,-2.5313,-2.5308,-2.5471,-2.5988,-2.677,-2.7516,-2.8215,-2.893,-2.9405,-2.9494,-2.9451,-2.9368,-2.9286,-2.9328,-2.9401,-2.9464,-2.9617,-2.9771,-2.9905,-2.9961,-2.9988,-2.9913,-2.9866,-2.9874,-2.9975,-3.0072,-3.0173,-3.0235,-3.0411,-3.054,-3.0593,-3.0662,-3.0741,-3.0808,-3.0798,-3.0767,-3.0697,-3.0625,-3.0585,0.0,0.0,0.0,0.0,0.0,0.0,0.0,0.0,0.0,0.0,0.0,0.0,0.0,0.0,0.0,0.0,0.0,0.0,0.0,0.0,0.0,0.0,0.0,0.0,0.0,0.0,0.0,0.0,0.0,0.0,0.0,0.0,0.0,0.0,0.0,0.0,0.0,-4.8607,-4.8779,0.0,-4.8837,-4.9372,-4.9746,-4.9746,-5.0508,-5.0976,-5.0976,-5.123,-5.1406,-5.1406,-5.1406,-5.1406,-5.1406,-5.1406,-5.1404,-5.1409,-5.1327,-5.1238,-5.1097,-5.1037,-5.0902,-5.0729,-5.071,-5.0692,-5.0712,-5.0712,-5.0712,-5.0712,-5.0712,-5.0712,-5.0712,-5.0712,-5.0712,-5.0712,-2.4154,-2.4849,0.0,-2.5317,-2.5308,-2.5562,-2.6376,-2.7182,-2.793,-2.8579,-2.925,-2.9598,-2.9401,-2.9294,-2.9207,-2.9152,-2.9197,-2.9262,-2.932,-2.9451,-2.956,-2.9653,-2.9698,-2.9707,-2.9681,-2.9663,-2.9718,-2.9842,-2.9972,-3.0082,-3.0195,-3.0377,-3.0515,-3.0604,-3.0665,-3.0743,-3.0796,-3.0801,-3.076,-3.0735,-3.0659,-3.0797,-3.1008,0.0,0.0,0.0,0.0,0.0,0.0,0.0,0.0,0.0,0.0,0.0,0.0,0.0,0.0,0.0,0.0,0.0,0.0,0.0,0.0,0.0,0.0,0.0,0.0,0.0,0.0,0.0,0.0,0.0,0.0,0.0,0.0,0.0,0.0,-4.7691,-4.8567,-4.9409,-4.9591,-4.9657,-4.9684,-5.0247,-5.0605,-5.0605,-5.1094,-5.1406,-5.1406,-5.1406,-5.1406,-5.1406,-5.1406,-5.1406,-5.1406,-5.1406,-5.1404,-5.1405,-5.1325,-5.1226,-5.1069,-5.0997,-5.0882,-5.0692,-5.0692,-5.0702,-5.0712,-5.0712,-5.0712,-5.0712,-5.0712,-5.0712,-5.0712,-5.0712,-5.0712,-5.0712,-2.4006,-2.4834,-2.5373,-2.5317,-2.5327,-2.56,-2.6414,-2.7221,-2.7943,-2.8567,-2.9199,-2.9504,-2.9278,-2.9138,-2.9019,-2.8968,-2.9026,-2.9104,-2.9189,-2.9249,-2.9314,-2.9392,-2.9402,-2.9402,-2.9402,-2.9402,-2.9493,-2.9681,-2.983,-3.0,-3.0188,-3.0334,-3.0476,-3.0604,-3.0665,-3.0743,-3.0795,-3.08,-3.0791,-3.0794,-3.0731,-3.1188,-3.1792,0.0,0.0,0.0,0.0,0.0,0.0,0.0,0.0,0.0,0.0,0.0,0.0,0.0,0.0,0.0,0.0,0.0,0.0,0.0,0.0,0.0,0.0,0.0,0.0,0.0,0.0,0.0,0.0,0.0,0.0,0.0,0.0,0.0,-4.8505,-4.9384,-5.0226,-5.0989,-5.1222,-5.131,-5.139,-5.1397,-5.1405,-5.1406,-5.1406,-5.1406,-5.1445,-5.1445,-5.1445,-5.1484,-5.1484,-5.1484,-5.1484,-5.1445,-5.1441,-5.1433,-5.135,-5.1194,-5.0997,-5.0937,-5.0827,-5.0712,-5.0712,-5.0712,-5.0712,-5.0712,-5.0712,-5.0712,-5.0712,-5.0712,-5.0712,-5.0712,-5.0712,-5.0712,-2.3227,-2.4405,-2.5373,-2.5317,-2.5827,-2.6504,-2.7319,-2.8071,-2.8791,-2.9395,-2.9504,-2.9229,-2.8447,-2.8235,-2.8158,-2.8136,-2.8158,-2.843,-2.9075,-2.9145,-2.9211,-2.9326,-2.9326,-2.9326,-2.9326,-2.933,-2.9404,-2.9541,-2.9787,-2.9977,-3.0138,-3.0305,-3.0444,-3.0534,-3.0649,-3.0739,-3.0804,-3.0794,-3.0799,-3.0792,-3.0721,-3.1219,-3.1944,0.0,0.0,0.0,0.0,0.0,0.0,0.0,0.0,0.0,0.0,0.0,0.0,0.0,0.0,0.0,0.0,0.0,0.0,0.0,0.0,0.0,0.0,0.0,0.0,0.0,0.0,0.0,0.0,0.0,0.0,0.0,-4.8126,-4.9103,-4.9369,-5.0151,-5.0784,-5.1005,-5.1157,-5.1241,-5.1321,-5.137,-5.1403,-5.1406,-5.1406,-5.168,-5.2305,-5.2344,-5.2637,-5.3262,-5.3281,-5.3281,-5.3281,-5.2656,-5.234,-5.2331,-5.1623,-5.1194,-5.0997,-5.0937,-5.0827,-5.0712,-5.0712,-5.0712,-5.0712,-5.0712,-5.0712,-5.0712,-5.0712,-5.0712,-5.0712,-5.0712,-5.0712,-5.0712,-2.3392,-2.4494,-2.5483,-2.5794,-2.626,-2.6989,-2.8174,-2.8664,-2.9127,-2.9752,-2.9645,-2.9134,-2.8151,-2.7893,-2.7798,-2.7798,-2.7798,-2.8158,-2.9007,-2.9062,-2.9096,-2.9163,-2.9163,-2.9163,-2.9163,-2.9192,-2.931,-2.9463,-2.9681,-2.9897,-3.0109,-3.0279,-3.04,-3.0506,-3.0634,-3.0722,-3.0751,-3.0788,-3.0801,-3.081,-3.0765,-3.1471,-3.2505,-3.2163,-3.2775,-3.3758,-3.3451,-3.3349,-3.3358,-3.3389,0.0,0.0,0.0,0.0,0.0,0.0,0.0,0.0,0.0,0.0,0.0,0.0,0.0,0.0,0.0,0.0,0.0,0.0,0.0,0.0,0.0,0.0,0.0,0.0,-4.9042,-4.9742,-5.0109,-5.0616,-5.0975,-5.0995,-5.1109,-5.1234,-5.1294,-5.1367,-5.1402,-5.1406,-5.1738,-5.2168,-5.2676,-5.3047,-5.3476,-5.3984,-5.4004,-5.4004,-5.4004,-5.3496,-5.3064,-5.269,-5.2116,-5.1557,-5.1043,-5.0932,-5.0836,-5.0702,-5.0702,-5.0712,-5.0712,-5.0712,-5.0712,-5.0712,0.0,0.0,0.0,0.0,-5.0712,-5.0712,-2.4209,-2.4981,-2.5794,-2.6608,-2.6828,-2.7379,-2.887,-2.9066,-2.9244,-2.9845,-2.9672,-2.9154,-2.8213,-2.7851,-2.7706,-2.7798,-2.7725,-2.8044,-2.895,-2.9005,-2.9005,-2.9005,-2.9005,-2.9005,-2.9005,-2.9074,-2.92,-2.9382,-2.9523,-2.9769,-3.0087,-3.0226,-3.0354,-3.0515,-3.0637,-3.0688,-3.0694,-3.0765,-3.08,-3.0819,-3.0814,-3.1828,-3.3232,-3.2524,-3.3286,-3.4653,-3.3955,-3.369,-3.3695,-3.3686,0.0,0.0,0.0,0.0,0.0,0.0,0.0,0.0,0.0,0.0,0.0,0.0,0.0,0.0,0.0,0.0,0.0,0.0,0.0,0.0,0.0,0.0,0.0,0.0,-4.9644,-4.9916,-5.0677,-5.0855,-5.0921,-5.0993,-5.1111,-5.1226,-5.1296,-5.1369,-5.1441,-5.1543,-5.2266,-5.2793,-5.2988,-5.373,0.0,0.0,0.0,-5.4297,-5.4297,-5.4199,-5.3767,-5.2991,-5.2726,-5.2123,-5.1235,-5.102,-5.0833,-5.0692,-5.0712,-5.0712,-5.0712,-5.0712,-5.0712,-5.0712,-5.0712,-5.0712,-5.0712,-5.0712,-5.0712,-5.0712,-2.5237,-2.5905,-2.67,-2.7509,-2.8186,-2.8731,-2.9043,-2.9583,-2.9954,-2.9977,-2.9753,-2.9223,-2.8286,-2.7419,-2.7164,-2.7816,-2.724,-2.7446,0.0,0.0,-2.9005,-2.9005,-2.9005,-2.9005,-2.9005,-2.9074,-2.9156,-2.9315,-2.9513,-2.9716,-2.9937,-3.0126,-3.0317,-3.0495,-3.0582,-3.0651,-3.0706,-3.0767,-3.0832,-3.0879,-3.0877,-3.1884,-3.337,-3.3202,-3.4216,-3.5715,-3.5555,-3.5498,-3.5498,-3.5507,-3.5039,-3.4448,-3.4453,0.0,0.0,0.0,0.0,0.0,0.0,0.0,0.0,0.0,0.0,0.0,0.0,0.0,0.0,0.0,0.0,0.0,0.0,0.0,0.0,-4.9357,-5.0061,-5.0537,-5.0691,-5.0816,-5.0917,-5.0985,-5.1113,-5.1241,-5.1367,-5.1395,-5.1698,-5.2402,-5.2598,-5.3301,-5.4726,-5.4961,-5.5371,-5.6074,-5.6094,-5.6094,-5.6094,-5.539,-5.4959,-5.4787,-5.3303,0.0,-5.2121,-5.1346,-5.0885,-5.0692,-5.0712,-5.0712,-5.0712,-5.0712,-5.0712,-5.0712,-5.0712,-5.0712,-5.0712,-5.0712,-5.0712,-5.0712,-2.7437,-2.7413,-2.7596,-2.8411,-2.8856,-2.9256,-2.9675,-2.9998,-3.018,-3.0113,-2.9874,-2.9334,-2.84,-2.7791,-2.7598,-2.7959,-2.7922,0.0,0.0,-2.9028,-2.9005,-2.9005,-2.9005,-2.9005,-2.9005,-2.904,-2.913,-2.9302,-2.9433,-2.9645,-2.9897,-3.0068,-3.026,-3.0461,-3.0521,-3.0607,-3.0706,-3.0761,-3.0819,-3.0857,-3.0898,-3.1894,-3.3393,-3.3393,-3.4485,-3.6008,-3.5993,-3.5994,-3.5994,-3.5996,-3.5719,-3.5336,-3.5313,-3.5554,-3.5849,0.0,0.0,0.0,0.0,0.0,0.0,0.0,0.0,0.0,0.0,0.0,0.0,0.0,0.0,-4.6962,-4.8179,0.0,-4.9211,-4.9975,-5.0441,-5.0702,-5.0757,-5.0877,-5.0981,-5.1049,-5.1171,-5.1288,-5.1398,-5.179,-5.2226,-5.2676,-5.3516,-5.4375,-5.5254,-5.5703,-5.6152,-5.6582,-5.6601,-5.6601,-5.6601,-5.6172,-5.5722,-5.5285,-5.4344,-5.339,-5.2441,-5.1852,-5.1312,-5.0803,-5.0731,-5.0712,-5.0712,-5.0712,-5.0712,-5.0712,-5.0712,-5.0712,-5.0712,-5.0712,-5.0712,-5.0712,-2.9589,-2.9072,-2.8704,-2.9347,-2.9407,-2.9583,-3.0288,-3.0292,-3.0221,-3.0213,-2.9996,-2.9551,-2.8794,-2.8427,-2.8193,0.0,0.0,0.0,0.0,-2.904,-2.9005,-2.9005,-2.9005,-2.9005,-2.9005,-2.9005,-2.9085,-2.9251,-2.9341,-2.9551,-2.9847,-3.0015,-3.0194,-3.0373,-3.0462,-3.0565,-3.0674,-3.0752,-3.09,-3.1063,-3.111,-3.2148,-3.3652,-3.3652,-3.4628,-3.5995,-3.5996,-3.5996,-3.5996,-3.5995,-3.5987,-3.5965,-3.5909,-3.6427,-3.7078,-3.707,-3.7683,0.0,0.0,0.0,0.0,0.0,0.0,0.0,0.0,-4.5628,-4.6616,-4.7423,-4.8138,-4.8863,-4.966,-4.9776,-4.9947,-5.0596,-5.0693,-5.0721,-5.0784,-5.0909,-5.1029,-5.1099,-5.1237,-5.1386,-5.1623,-5.2281,-5.2831,-5.3183,-5.4512,-5.5371,-5.5547,-5.6211,-5.6601,-5.6601,-5.6601,-5.6601,-5.6601,-5.6601,-5.625,-5.5545,-5.5308,-5.4423,-5.2995,-5.2453,-5.1827,-5.1131,-5.0836,-5.0712,-5.0712,-5.0712,-5.0712,-5.0712,-5.0712,-5.0712,-5.0712,-5.0712,-5.0712,-5.0712,-3.0485,-3.0477,-3.0329,-3.0356,-3.0293,-3.0288,-3.0385,-3.0336,-3.0279,-3.0286,-3.0111,-2.9935,-2.9831,-2.8961,-2.8297,-2.8124,0.0,0.0,-2.9089,-2.904,-2.9005,-2.9005,-2.9005,-2.9005,-2.9005,-2.9005,-2.9051,-2.9112,-2.931,-2.9483,-2.9644,-2.9942,-3.0192,-3.0331,-3.0439,-3.0539,-3.061,-3.0675,-3.1182,-3.1957,-3.1968,-3.3007,-3.4551,-3.4551,-3.5156,-3.5996,-3.5996,-3.5996,-3.5996,-3.5991,-3.5957,-3.5894,-3.584,-3.6355,-3.6997,-3.6947,-3.7542,-3.8385,-3.9176,-4.0467,-4.1647,-4.1815,-4.3621,-4.5432,0.0,-4.6941,-4.8338,-4.9158,-4.9393,-4.9697,-5.0449,-5.0575,-5.0596,-5.0683,-5.0693,-5.0721,-5.0784,-5.0909,-5.1042,-5.1173,-5.1257,-5.1622,-5.247,-5.2635,-5.334,-5.4883,-5.5195,-5.5644,-5.6406,-5.6543,-5.6601,-5.6601,-5.6601,-5.6601,-5.6601,-5.6601,-5.6543,-5.6443,-5.5606,-5.5056,-5.4749,-5.3061,-5.2159,-5.1923,-5.1067,-5.0712,-5.0712,-5.0712,-5.0712,-5.0712,-5.0712,-5.0712,-5.0712,-5.0712,-5.0712,-5.0712,-3.0723,-3.0694,-3.0589,-3.0511,-3.0439,-3.0404,-3.0404,-3.0342,-3.0304,-3.0305,-3.0195,-3.0118,-3.0121,-2.961,-2.9216,-2.9101,-2.9686,-3.0033,-2.9921,-3.0254,-3.0239,-2.9732,-2.9702,-2.9482,-2.9005,-2.9005,-2.904,-2.9089,-2.9254,-2.9694,-3.0349,-3.0627,-3.1085,-3.1696,-3.1877,-3.1999,-3.206,-3.2163,-3.245,-3.2865,-3.2863,-3.3592,-3.4707,-3.4707,-3.5234,-3.5996,-3.5996,-3.5996,0.0,0.0,-3.5957,-3.5884,-3.5817,-3.6354,-3.7098,-3.7535,-3.8246,-3.9181,-4.0532,-4.1754,-4.2879,-4.3894,-4.5306,-4.6689,-4.7673,-4.8463,-4.9215,-5.0064,-5.0238,-5.0335,-5.0644,-5.0702,-5.0693,-5.0693,-5.0712,-5.0712,-5.0748,-5.085,-5.0974,-5.1076,-5.12,-5.1673,-5.2614,-5.3159,-5.3964,-5.5214,-5.5761,-5.6211,-5.6582,-5.6601,-5.6601,-5.6601,-5.6601,-5.6601,-5.6601,-5.6601,-5.6601,-5.6581,-5.6158,-5.568,-5.5119,-5.3747,-5.2441,-5.1266,-5.0866,-5.0712,-5.0712,-5.0712,-5.0712,-5.0712,-5.0712,-5.0712,-5.0712,-5.0712,-5.0712,-5.0712,-3.0801,-3.0694,-3.0574,-3.0506,-3.0444,-3.0404,-3.0404,-3.0367,-3.0336,-3.0336,-3.0267,-3.0227,-3.0206,-3.0057,-2.9932,-2.9851,-3.0171,-3.0433,-3.0524,-3.0944,-3.1016,-3.0576,-3.0534,-3.0265,-2.9666,-2.9647,-2.9701,-2.9729,-2.9884,-3.0387,-3.1174,-3.1428,-3.1955,-3.2713,-3.2917,-3.3043,-3.3108,-3.325,-3.3607,-3.4089,-3.411,-3.4783,-3.5742,-3.5508,-3.5801,-3.6328,-3.6094,-3.5996,0.0,0.0,-3.5957,-3.5882,-3.5814,-3.6341,-3.7124,-3.7912,-3.8871,-4.002,-4.1477,-4.2476,-4.3461,-4.4936,-4.6277,-4.7548,-4.8759,-4.9413,-4.9933,-5.0577,-5.0712,-5.0712,-5.0712,-5.0712,-5.0712,-5.0712,-5.0712,-5.0702,-5.0692,-5.0799,-5.0898,-5.0961,-5.1342,-5.1931,-5.2882,-5.3596,-5.445,-5.5564,-5.625,-5.6601,-5.6601,-5.6601,-5.6601,-5.6601,-5.6601,-5.6601,-5.6601,-5.6601,-5.6601,-5.6601,-5.6533,-5.6179,-5.5516,-5.423,-5.2562,-5.0692,-5.0712,-5.0712,-5.0712,-5.0712,-5.0712,-5.0712,-5.0712,-5.0712,-5.0712,-5.0712,-5.0712,-5.0712,-3.0801,-3.0694,-3.0574,-3.0506,-3.0444,-3.0404,-3.0404,-3.0404,-3.0404,-3.0404,-3.0342,-3.0273,-3.0221,-3.0145,-3.0049,-2.9905,-2.9745,-2.9907,-3.0557,-3.0487,-3.0731,-3.1421,-3.1397,-3.136,-3.1342,-3.1342,-3.1323,-3.1323,-3.1523,-3.1708,-3.1883,-3.2204,-3.249,-3.271,-3.291,-3.3031,-3.3117,-3.3242,-3.4289,-3.5822,-3.5887,-3.6951,-3.8398,-3.7539,-3.7246,-3.7148,-3.6309,0.0,0.0,0.0,-3.5956,-3.5888,-3.5822,-3.6309,0.0,-3.7797,-3.9179,-4.065,-4.1566,-4.2431,-4.3297,-4.4124,-4.622,-4.8086,-4.8125,-4.9452,-5.0673,-5.0693,-5.0712,-5.0712,-5.0712,-5.0712,-5.0712,-5.0712,-5.0712,-5.0702,-5.0692,-5.0766,-5.0836,-5.0898,-5.1707,-5.264,-5.357,-5.3877,-5.4701,-5.6424,-5.6582,-5.6601,-5.6601,-5.6601,-5.6601,-5.6601,-5.6601,-5.6601,-5.6601,-5.6601,-5.6601,-5.6601,-5.6533,-5.6493,-5.6386,-5.4406,-5.2484,-5.0692,-5.0712,-5.0712,-5.0712,-5.0712,-5.0712,-5.0712,-5.0712,-5.0712,-5.0712,-5.0712,-5.0712,-5.0712,-3.0801,-3.0694,-3.0574,-3.0506,-3.0444,-3.0404,-3.0404,-3.0404,-3.0404,-3.0404,-3.0379,0.0,0.0,0.0,0.0,0.0,-3.0449,-3.0931,-3.1545,-3.1972,-3.2252,-3.2348,-3.2293,-3.201,-3.1477,-3.147,-3.1507,-3.1602,-3.1714,-3.2423,-3.3706,-3.394,-3.4754,-3.6028,-3.6219,-3.6383,-3.6483,-3.6623,-3.7049,-3.7632,-3.7702,-3.8084,-3.8574,-3.8262,-3.7793,-3.7266,0.0,0.0,0.0,-3.5992,-3.596,-3.5892,-3.5814,0.0,0.0,-3.8483,-4.0054,-4.1546,-4.2431,-4.3278,-4.4239,-4.5663,-4.6682,-4.7605,-4.8702,-4.9413,-4.999,-5.0577,-5.0712,-5.0712,-5.0712,-5.0712,-5.0712,-5.0712,-5.0712,-5.0885,-5.1414,-5.1539,-5.1817,-5.2423,-5.2848,-5.346,-5.4407,-5.4648,-5.524,-5.6432,-5.6579,-5.6601,-5.6601,-5.6601,-5.6601,-5.6601,-5.6601,-5.6601,-5.6601,-5.6601,-5.6601,-5.6601,-5.6529,-5.587,-5.4686,-5.3913,-5.2581,-5.0829,-5.073,-5.0702,-5.0712,-5.0712,-5.0712,-5.0712,-5.0712,-5.0712,-5.0712,-5.0712,-5.0712,-5.0712,-3.0801,-3.0694,-3.0574,-3.0506,-3.0444,0.0,0.0,0.0,0.0,0.0,0.0,0.0,0.0,0.0,0.0,0.0,0.0,-3.1069,-3.1713,-3.2379,-3.2784,-3.2895,-3.3087,-3.2957,-3.2435,-3.2459,-3.2531,-3.2637,-3.3037,-3.3866,-3.5112,-3.5617,-3.653,-3.7747,-3.7924,-3.8067,-3.8205,-3.8328,-3.8624,-3.8976,-3.9048,-3.9255,-3.9492,-3.918,-3.8711,0.0,0.0,0.0,0.0,-3.6207,-3.5961,-3.5933,-3.6197,0.0,0.0,-3.8994,-4.0277,-4.1585,-4.2777,-4.347,-4.4278,-4.6009,-4.6682,-4.7259,-4.8625,-4.9183,-4.9644,-5.0519,-5.0712,-5.0712,-5.0712,-5.0712,-5.0789,-5.1087,-5.1125,-5.1414,-5.225,-5.2405,-5.2637,-5.3195,-5.3617,-5.4105,-5.4776,-5.5236,-5.5778,-5.6456,-5.6555,-5.66,-5.6601,-5.6601,-5.6601,-5.6601,-5.6601,-5.6601,-5.6601,-5.6601,-5.6601,-5.6601,-5.6528,-5.5552,-5.383,-5.3694,-5.2653,-5.0921,-5.0793,-5.072,-5.0693,-5.0693,-5.0712,-5.0712,-5.0712,-5.0712,-5.0712,-5.0712,-5.0712,-5.0712,-3.0801,-3.0694,-3.057,0.0,0.0,0.0,0.0,0.0,0.0,0.0,0.0,0.0,0.0,0.0,0.0,0.0,0.0,0.0,-3.1063,-3.1732,0.0,-3.3082,-3.3758,-3.4124,-3.4124,-3.4185,-3.4257,-3.4328,-3.5315,-3.5921,-3.6113,-3.7176,-3.7773,-3.7942,-3.8058,-3.8209,-3.8346,-3.8469,-3.9056,-3.9876,-3.9947,-4.0467,-4.1113,-4.0273,0.0,0.0,0.0,0.0,0.0,-3.6695,-3.6077,-3.6159,-3.6962,-3.8223,-3.9383,-3.9376,-3.9938,-4.0939,-4.2643,-4.3124,-4.3547,-4.519,-4.622,-4.7048,-4.7855,-4.8702,-4.9586,-5.0462,-5.0673,-5.0712,-5.0712,-5.0712,-5.0952,-5.1769,-5.1904,-5.2212,-5.3145,-5.328,-5.328,-5.3318,-5.4062,-5.4622,-5.4746,-5.5627,-5.6275,-5.6477,-5.6551,-5.66,-5.6601,-5.6601,-5.6601,-5.6601,-5.6601,-5.6601,-5.6601,-5.6601,-5.6601,-5.6599,-5.6532,-5.5587,-5.3891,-5.376,-5.2731,-5.0986,-5.0861,-5.0775,-5.0692,-5.0712,-5.0712,-5.0712,-5.0712,-5.0712,-5.0712,-5.0712,-5.0712,-5.0712,0.0,0.0,0.0,0.0,0.0,0.0,0.0,0.0,0.0,0.0,0.0,0.0,0.0,0.0,0.0,0.0,0.0,0.0,-3.1218,-3.1915,0.0,0.0,0.0,-3.4316,-3.4316,-3.4386,0.0,0.0,0.0,-3.6482,-3.7214,-3.8184,-3.9028,-3.9744,-3.9881,-4.001,-4.0136,-4.0222,-4.0464,-4.0762,0.0,-4.0955,-4.1172,0.0,0.0,0.0,0.0,0.0,0.0,0.0,-3.7836,-3.7813,-3.8583,-3.9058,-3.9432,-4.0023,-4.0796,-4.172,-4.2797,-4.3547,-4.4239,-4.5325,-4.5768,-4.6163,-4.7009,-4.7836,-4.8682,-4.9548,-5.025,-5.0712,-5.0712,-5.0712,-5.0952,-5.1769,-5.1904,-5.2423,-5.3953,-5.4164,-5.4395,-5.4991,-5.5294,-5.549,-5.5583,-5.5963,-5.6257,-5.641,-5.6484,-5.6554,-5.66,-5.6601,-5.6601,-5.6601,-5.6601,-5.6601,-5.6601,-5.6601,-5.6601,-5.6601,-5.6579,-5.563,-5.3901,-5.3818,-5.2757,-5.1004,-5.0917,-5.0821,-5.0692,-5.0712,-5.0712,-5.0712,-5.0712,-5.0712,-5.0712,-5.0712,-5.0712,-5.0712,0.0,0.0,0.0,0.0,0.0,0.0,0.0,0.0,0.0,0.0,0.0,0.0,0.0,0.0,0.0,0.0,0.0,0.0,0.0,-3.1884,0.0,0.0,0.0,-3.4586,-3.4586,-3.466,0.0,0.0,0.0,0.0,0.0,-3.8078,-3.8807,-3.9317,-3.9441,-3.9567,-3.9663,0.0,0.0,0.0,0.0,0.0,0.0,0.0,0.0,0.0,0.0,0.0,0.0,0.0,0.0,-3.9461,-3.9849,-4.0196,-4.0523,-4.0947,-4.1143,-4.1508,-4.2758,-4.3431,-4.4066,-4.5287,-4.5594,-4.5825,-4.6701,-4.7259,-4.7932,-4.9144,-4.9779,-5.025,-5.0635,-5.0712,-5.1087,-5.2279,-5.2462,-5.3068,-5.478,-5.503,-5.5184,-5.5645,-5.5735,-5.5787,-5.5847,-5.601,-5.6179,-5.6294,-5.643,-5.6527,-5.6599,-5.6601,-5.6601,-5.6601,-5.6601,-5.6601,-5.6601,-5.6601,-5.6601,-5.6601,-5.66,-5.5677,-5.394,-5.3868,-5.2844,-5.1074,-5.0952,-5.0836,-5.0748,-5.0721,-5.0712,-5.0712,-5.0712,-5.0712,-5.0712,-5.0712,-5.0712,-5.0712,0.0,0.0,0.0,0.0,0.0,0.0,0.0,0.0,0.0,-3.0404,-3.0404,-3.0442,0.0,0.0,0.0,0.0,0.0,0.0,0.0,0.0,0.0,0.0,0.0,-3.4832,-3.4832,-3.4964,0.0,0.0,0.0,0.0,0.0,0.0,0.0,0.0,0.0,0.0,0.0,0.0,0.0,0.0,0.0,0.0,0.0,0.0,0.0,0.0,0.0,0.0,0.0,0.0,-4.1597,-4.0976,-4.1003,-4.1499,-4.2056,-4.1997,-4.1431,-4.1208,-4.2816,-4.3258,-4.3643,-4.521,-4.5594,-4.5806,-4.6567,-4.6817,-4.7336,-4.8913,-4.9317,-4.9663,-5.0539,-5.0712,-5.1202,-5.2779,-5.3126,-5.376,-5.5318,-5.5626,-5.5703,-5.5703,-5.5703,-5.5735,-5.5787,-5.5903,-5.6059,-5.6194,-5.6363,-5.6513,-5.6578,-5.6601,-5.6601,-5.6601,-5.6601,-5.6601,-5.6601,-5.6601,-5.6601,-5.6601,-5.6601,-5.5757,-5.4164,-5.3983,-5.2976,-5.1364,-5.1041,-5.0866,-5.0793,-5.074,-5.0693,-5.0712,-5.0712,-5.0712,-5.0712,-5.0712,-5.0712,-5.0712,0.0,0.0,0.0,0.0,0.0,0.0,0.0,0.0,0.0,0.0,0.0,0.0,0.0,0.0,0.0,0.0,0.0,0.0,0.0,0.0,0.0,0.0,0.0,-3.5053,-3.5053,-3.5124,0.0,0.0,0.0,0.0,0.0,0.0,0.0,0.0,0.0,0.0,0.0,0.0,0.0,0.0,0.0,0.0,0.0,0.0,0.0,0.0,0.0,0.0,0.0,0.0,-4.2014,-4.1905,-4.2505,-4.2787,-4.2882,-4.2874,-4.2777,-4.2854,-4.3835,-4.4085,-4.4335,-4.5344,-4.5594,-4.5633,-4.5787,-4.6374,-4.7173,-4.8125,-4.8894,-4.9663,-5.0539,-5.0712,-5.101,-5.1962,-5.2731,-5.3549,-5.4568,-5.528,-5.5703,-5.5703,-5.5703,-5.5735,-5.5787,-5.5866,-5.601,-5.6199,-5.6275,-5.6393,-5.6506,-5.6577,-5.6601,-5.6601,-5.6601,-5.6601,-5.6601,-5.6601,-5.6601,-5.6601,-5.6601,-5.6053,-5.5049,-5.4262,-5.3302,-5.2237,-5.136,-5.0902,-5.0793,-5.073,-5.0702,-5.0712,-5.0712,-5.0712,-5.0712,-5.0712,-5.0712,-5.0712,0.0,0.0,0.0,0.0,0.0,0.0,0.0,0.0,0.0,0.0,-3.0404,0.0,0.0,0.0,0.0,0.0,0.0,0.0,0.0,0.0,0.0,0.0,0.0,-3.5203,-3.5203,-3.5262,-3.532,-3.5357,0.0,0.0,0.0,0.0,0.0,0.0,0.0,0.0,0.0,0.0,0.0,0.0,0.0,0.0,0.0,0.0,0.0,0.0,0.0,0.0,0.0,0.0,-4.2765,-4.2802,-4.3547,-4.375,-4.372,-4.372,-4.3431,-4.3278,-4.4085,-4.4297,-4.4509,-4.5383,-4.5594,-4.5594,-4.5594,-4.5913,-4.6586,-4.7836,-4.8432,-4.9125,-5.0462,-5.0712,-5.0952,-5.1769,-5.2635,-5.351,-5.4376,-5.5184,-5.5703,-5.5703,-5.5703,-5.5714,-5.5745,-5.5817,-5.5913,-5.6075,-5.6154,-5.629,-5.6492,-5.6523,-5.6557,-5.6601,-5.6601,-5.6601,-5.6601,-5.6601,-5.6601,-5.6601,-5.6601,-5.6132,-5.5266,-5.433,-5.3406,-5.2498,-5.1486,-5.1009,-5.0893,-5.0827,-5.0757,-5.0702,-5.0702,-5.0693,-5.0712,-5.0712,-5.0712,-5.0712,0.0,0.0,0.0,0.0,0.0,0.0,0.0,-3.0404,-3.0404,-3.0404,-3.0558,-3.1,-3.1852,-3.2526,0.0,0.0,0.0,0.0,0.0,0.0,0.0,0.0,0.0,0.0,0.0,0.0,0.0,-3.5689,0.0,0.0,0.0,0.0,0.0,0.0,0.0,0.0,0.0,0.0,0.0,0.0,0.0,0.0,0.0,0.0,0.0,0.0,0.0,0.0,0.0,0.0,-4.3646,-4.3711,-4.4457,-4.4633,-4.4586,-4.4586,-4.4124,-4.3778,-4.4412,-4.4586,-4.4739,-4.5441,-4.5594,-4.5594,-4.5594,-4.5594,-4.6075,-4.7759,-4.8105,-4.8625,-5.0385,-5.0712,-5.0914,-5.1548,-5.2356,-5.3241,-5.4107,-5.4934,-5.5511,-5.5684,-5.5703,-5.5703,-5.5703,-5.5756,-5.5847,-5.5968,-5.6032,-5.6194,-5.6464,-5.6497,-5.6525,-5.6575,-5.6597,-5.66,-5.6601,-5.6601,-5.6601,-5.6601,-5.6601,-5.6249,-5.554,-5.4436,-5.3604,-5.2972,-5.1702,-5.1093,-5.1015,-5.0948,-5.0861,-5.0747,-5.0738,-5.074,-5.0702,-5.0702,-5.0702,-5.0712,0.0,0.0,0.0,0.0,0.0,0.0,0.0,-3.0404,-3.0404,-3.0404,-3.1096,-3.1891,-3.2699,-3.2852,0.0,0.0,0.0,0.0,0.0,0.0,0.0,0.0,0.0,0.0,0.0,0.0,0.0,-3.6577,-3.7385,0.0,0.0,0.0,0.0,0.0,0.0,-3.5547,0.0,0.0,0.0,0.0,0.0,0.0,0.0,0.0,0.0,0.0,0.0,0.0,0.0,0.0,0.0,-4.4615,-4.5352,-4.5528,-4.5479,-4.5479,-4.5441,-4.5383,-4.546,-4.5479,-4.5498,-4.5575,-4.5594,-4.5594,-4.5594,-4.5594,-4.6075,-4.7759,-4.8105,-4.8625,-5.0385,-5.0712,-5.0731,-5.0808,-5.1491,-5.2308,-5.3203,-5.4068,-5.4876,-5.5607,-5.5703,-5.5703,-5.5703,-5.5756,-5.5836,-5.5904,-5.5973,-5.6128,-5.6386,-5.6469,-5.6499,-5.6513,-5.6567,-5.6596,-5.66,-5.6601,-5.6601,-5.6601,-5.6601,-5.6562,-5.6423,-5.4759,-5.4174,-5.4381,-5.223,-5.1219,-5.1087,-5.1011,-5.0956,-5.0882,-5.088,-5.0812,-5.0692,-5.0692,-5.0702,-5.0712,0.0,0.0,0.0,0.0,0.0,0.0,0.0,-3.0404,-3.0404,-3.0404,-3.0692,-3.1423,-3.2756,-3.2891,0.0,0.0,0.0,0.0,0.0,0.0,0.0,0.0,0.0,0.0,0.0,0.0,-3.6962,-3.7488,-3.7834,0.0,0.0,0.0,0.0,0.0,0.0,-3.5965,-3.5578,0.0,0.0,0.0,0.0,0.0,0.0,0.0,0.0,0.0,0.0,0.0,-4.3719,-4.453,0.0,0.0,-4.5468,-4.5643,0.0,0.0,-4.5594,-4.5594,-4.5594,-4.5594,-4.5594,-4.5594,-4.5594,-4.5594,-4.5594,-4.5594,-4.6075,-4.7759,-4.8105,-4.8625,-5.0385,-5.0712,-5.0712,-5.0712,-5.1375,-5.2192,-5.3087,-5.3953,-5.4799,-5.5588,-5.5703,-5.5703,-5.5703,-5.5724,-5.5766,-5.5817,-5.5893,-5.5988,-5.6093,-5.6272,-5.6398,-5.6442,-5.6508,-5.6568,-5.6599,-5.6601,-5.6601,-5.6601,-5.6601,-5.6328,-5.5779,-5.4567,-5.3818,-5.3422,-5.1984,-5.1301,-5.1228,-5.1142,-5.107,-5.1017,-5.0983,-5.091,-5.0816,-5.0819,-5.0776,-5.0692,0.0,0.0,0.0,0.0,0.0,0.0,-3.0404,-3.0404,-3.0404,-3.0404,-3.0615,-3.1327,-3.2756,-3.3122,-3.3872,-3.5365,0.0,0.0,0.0,0.0,0.0,0.0,0.0,0.0,0.0,0.0,-3.7507,-3.8373,-3.8623,-3.8623,0.0,0.0,-3.7911,-3.7084,0.0,0.0,0.0,0.0,0.0,0.0,0.0,0.0,0.0,0.0,0.0,0.0,0.0,0.0,0.0,0.0,0.0,0.0,0.0,0.0,0.0,0.0,-4.5594,-4.5594,-4.5594,-4.5594,-4.5594,-4.5594,-4.5594,-4.5594,-4.5594,-4.5806,-4.6394,-4.7817,-4.8317,-4.8933,-5.0442,-5.0712,-5.0712,-5.0712,-5.1183,-5.1933,-5.3049,-5.3722,-5.4511,-5.5568,-5.5703,-5.5703,-5.5703,-5.5703,-5.5724,-5.5766,-5.5817,-5.5856,-5.5875,-5.5839,-5.5985,-5.6359,-5.643,-5.6491,-5.6576,-5.6581,-5.6601,-5.6601,-5.6348,-5.5898,-5.5272,-5.4237,-5.3434,-5.2782,-5.182,-5.1373,-5.1322,-5.1284,-5.1215,-5.1146,-5.1081,-5.1024,-5.0966,-5.0929,-5.0866,-5.0782,0.0,0.0,0.0,0.0,0.0,0.0,0.0,-3.0404,-3.0404,-3.0404,-3.1154,-3.2006,-3.2814,0.0,0.0,0.0,0.0,0.0,0.0,0.0,0.0,0.0,0.0,0.0,0.0,0.0,-3.8411,-3.9284,-4.0073,-4.0073,-3.9284,-3.9284,-3.8815,-3.7988,0.0,0.0,0.0,0.0,0.0,0.0,0.0,0.0,0.0,0.0,0.0,0.0,0.0,0.0,0.0,0.0,0.0,0.0,0.0,-4.5648,-4.5594,0.0,-4.5594,-4.5594,-4.5594,-4.5594,-4.5594,-4.5594,-4.5594,-4.5594,-4.5594,-4.6278,-4.7115,-4.7932,-4.8798,-4.9663,-5.0539,-5.0712,-5.0712,-5.0712,-5.0712,-5.1279,-5.2972,-5.3222,-5.3837,-5.5491,-5.5703,-5.5703,-5.5703,-5.5703,-5.5703,-5.5703,-5.5714,-5.5735,-5.5787,-5.5113,-5.5199,-5.6263,-5.6377,-5.6436,-5.6504,-5.6576,-5.6601,-5.6582,-5.5723,-5.5312,-5.5254,-5.3848,-5.3203,-5.3123,-5.1912,-5.14,-5.1408,-5.1398,-5.1352,-5.1291,-5.123,-5.1162,-5.1099,-5.103,-5.0991,-5.0998,0.0,0.0,0.0,0.0,0.0,0.0,0.0,0.0,-3.0615,-3.1212,-3.1525,0.0,0.0,0.0,0.0,0.0,0.0,0.0,0.0,0.0,0.0,0.0,0.0,0.0,0.0,0.0,-3.87,-4.0131,-4.0381,-4.0362,-4.0131,-4.0131,-3.9688,-3.8892,-3.8892,-3.8553,0.0,0.0,0.0,0.0,0.0,0.0,0.0,0.0,0.0,0.0,0.0,0.0,0.0,0.0,0.0,0.0,0.0,0.0,0.0,-4.4701,-4.5133,-4.5594,-4.5594,-4.5594,-4.5594,-4.5594,-4.5594,-4.5594,-4.5594,-4.6278,-4.7135,-4.7932,-4.8798,-4.9663,-5.0539,-5.0712,-5.0712,-5.0712,-5.1164,-5.1914,-5.3049,-5.3703,-5.4491,-5.5568,-5.5703,-5.5703,-5.5703,-5.5703,-5.5703,-5.5703,-5.5703,-5.5464,-5.4946,-5.4679,-5.4798,-5.5333,-5.4879,-5.4663,-5.4728,-5.4787,-5.4819,-5.4823,-5.453,-5.4101,-5.3516,-5.3301,-5.2754,-5.1953,-5.1562,-5.1405,-5.1402,-5.14,-5.1391,-5.1371,-5.1338,-5.1301,-5.1222,-5.1156,-5.1111,-5.1076,0.0,0.0,0.0,0.0,0.0,0.0,0.0,0.0,-3.0712,-3.1583,0.0,0.0,0.0,0.0,0.0,0.0,0.0,0.0,0.0,0.0,0.0,0.0,0.0,0.0,0.0,-3.8315,-3.9142,-4.0496,-4.0496,-4.0496,-4.0496,-4.0496,-4.0227,-3.9746,-3.9746,-3.9457,0.0,0.0,0.0,0.0,0.0,0.0,-4.1099,0.0,0.0,0.0,0.0,0.0,0.0,0.0,0.0,0.0,0.0,0.0,0.0,0.0,-4.4921,-4.5594,-4.5594,-4.5594,-4.5594,-4.5594,-4.5594,-4.5594,-4.5594,-4.6509,-4.749,-4.8009,-4.9048,-5.0048,-5.0596,-5.0712,-5.0712,-5.0712,-5.1125,-5.1856,-5.3029,-5.3664,-5.4434,-5.5568,-5.5703,-5.5703,-5.5703,-5.5703,-5.5703,-5.5703,-5.5415,-5.503,-5.453,-5.3888,-5.3647,-5.3832,-5.3734,-5.3731,-5.3852,-5.3921,-5.3966,-5.4001,-5.367,-5.3222,-5.2695,-5.2578,-5.2109,-5.1406,-5.1406,-5.1406,0.0,-5.1406,-5.1404,-5.1397,-5.1393,-5.1377,-5.1327,-5.1291,-5.123,-5.1176,0.0,0.0,0.0,0.0,0.0,0.0,0.0,0.0,0.0,0.0,0.0,0.0,0.0,0.0,0.0,0.0,0.0,0.0,0.0,0.0,0.0,0.0,0.0,0.0,0.0,-3.8892,-3.9688,-4.0496,-4.0496,-4.0496,-4.0496,-4.0496,-4.0496,-4.0496,-4.0496,-4.0496,0.0,0.0,0.0,0.0,-4.0945,-4.1034,0.0,0.0,0.0,0.0,0.0,0.0,0.0,0.0,0.0,0.0,0.0,0.0,0.0,0.0,0.0,0.0,0.0,-4.5594,-4.5594,-4.5594,-4.5594,-4.5594,-4.5594,-4.6894,0.0,-4.8105,-4.949,-5.0712,-5.0712,-5.0712,-5.0712,-5.0712,-5.075,-5.1318,-5.2895,-5.3222,-5.3895,-5.5511,-5.5703,-5.5703,-5.5703,-5.5645,-5.5607,-5.5607,-5.4857,-5.4376,-5.4318,-5.2849,-5.2011,-5.1999,-5.2845,-5.3404,-5.3591,-5.3676,-5.3743,-5.3799,-5.2984,-5.2616,-5.2578,-5.1777,-5.1406,-5.1406,-5.1523,-5.1543,-5.1504,-5.1562,-5.1543,-5.1483,-5.1483,-5.146,-5.139,-5.1402,-5.1351,-5.1301,0.0,0.0,0.0,0.0,0.0,0.0,0.0,0.0,0.0,0.0,0.0,0.0,0.0,0.0,0.0,0.0,0.0,0.0,0.0,0.0,0.0,0.0,0.0,0.0,0.0,-3.9207,-3.9688,-4.0496,-4.0496,-4.0496,-4.0496,-4.0496,-4.0496,-4.0496,-4.0496,-4.0531,0.0,0.0,0.0,0.0,-4.0888,-4.0968,0.0,0.0,0.0,0.0,-4.1108,-4.1185,0.0,0.0,0.0,0.0,0.0,0.0,0.0,0.0,-4.4432,-4.5594,-4.5594,0.0,-4.5594,-4.5594,-4.5594,-4.5594,0.0,-4.6894,-4.8105,-4.8105,-4.949,-5.0712,-5.0712,-5.0712,-5.0712,-5.0712,-5.1221,-5.175,-5.2154,-5.3356,-5.4568,-5.5568,-5.5703,-5.5703,-5.5703,-5.5145,-5.478,-5.478,-5.3991,-5.3222,-5.2538,-5.2135,-5.1645,-5.1038,-5.1247,-5.1455,-5.1661,-5.1721,-5.1822,-5.1923,-5.1781,-5.1704,-5.1698,-5.1483,-5.1406,-5.1465,-5.2812,-5.3008,-5.2441,-5.3105,-5.3008,-5.2383,-5.2383,-5.1991,-5.1402,-5.1402,-5.1395,-5.1384,0.0,0.0,0.0,0.0,0.0,0.0,0.0,0.0,0.0,0.0,0.0,0.0,0.0,0.0,0.0,0.0,0.0,0.0,0.0,0.0,0.0,0.0,0.0,0.0,-3.9284,-3.9669,-4.0054,-4.0496,-4.0496,-4.0496,-4.0496,-4.0496,-4.0496,-4.0496,-4.0496,-4.0523,0.0,0.0,0.0,0.0,-4.1377,0.0,0.0,0.0,0.0,0.0,-4.1099,-4.1059,0.0,-4.0854,-4.0756,-4.0688,0.0,0.0,0.0,0.0,-4.4278,-4.5594,-4.5594,-4.5594,-4.571,-4.6105,-4.5893,-4.571,-4.6105,-4.7182,-4.8105,-4.8105,-4.949,-5.0712,-5.0712,-5.0712,-5.0712,-5.0712,-5.1068,-5.1462,-5.1816,-5.3007,-5.4007,-5.4397,-5.4455,-5.4466,-5.4498,-5.4114,-5.3874,-5.3895,-5.3106,-5.2404,-5.1923,-5.1548,-5.1154,-5.0702,-5.0702,-5.0799,-5.101,-5.1043,-5.1122,-5.1241,-5.1327,-5.1364,-5.1396,-5.1401,-5.1697,-5.2285,-5.3476,-5.373,-5.332,-5.3808,-5.3711,-5.3262,-5.2851,-5.2402,-5.1953,-5.1542,-5.1404,-5.1401,0.0,0.0,0.0,0.0,0.0,0.0,0.0,0.0,0.0,0.0,0.0,0.0,0.0,0.0,0.0,0.0,0.0,0.0,0.0,0.0,0.0,0.0,0.0,-3.9477,-3.9477,-4.015,-4.0496,-4.0496,-4.0496,-4.0496,-4.0496,-4.0496,-4.0496,-4.0496,-4.0496,-4.0573,0.0,0.0,0.0,0.0,-4.2163,0.0,0.0,0.0,0.0,0.0,0.0,0.0,0.0,-4.0859,-4.0763,-4.068,-4.0534,0.0,0.0,0.0,0.0,0.0,-4.5556,-4.571,-4.597,-4.6721,-4.6432,-4.6182,-4.6913,0.0,-4.8298,-4.8298,-4.9586,-5.0702,-5.0692,-5.0673,-5.0673,-5.0663,-5.0673,-5.0942,-5.1698,-5.2436,-5.2913,-5.2962,-5.297,-5.2992,-5.3048,-5.2954,-5.2899,-5.297,-5.2192,-5.1712,-5.1712,-5.1068,-5.0712,-5.0712,-5.0712,-5.0776,-5.0948,-5.0966,-5.1037,-5.1162,-5.123,-5.1304,-5.1388,-5.1408,-5.2063,-5.324,-5.4043,-5.4316,-5.4219,-5.4336,-5.4316,-5.4101,-5.3242,-5.2812,-5.2598,-5.1719,-5.1406,-5.1406,0.0,0.0,0.0,0.0,0.0,0.0,0.0,0.0,0.0,0.0,0.0,0.0,0.0,0.0,0.0,0.0,0.0,0.0,0.0,0.0,0.0,0.0,-4.0323,-4.0323,-4.0323,-4.0439,-4.0496,-4.0496,-4.0496,-4.0496,-4.0496,-4.0496,-4.0496,-4.0496,-4.0496,-4.0912,-4.1604,0.0,0.0,-4.2915,-4.2999,0.0,0.0,0.0,0.0,0.0,0.0,0.0,0.0,-4.0848,-4.0758,-4.068,-4.0534,0.0,0.0,0.0,0.0,0.0,-4.5402,-4.6144,-4.674,-4.6865,-4.7317,-4.7759,-4.7894,-4.8586,-4.9202,0.0,-4.999,-5.0673,-5.0623,-5.0613,-5.0603,-5.0532,-5.0582,-5.0881,-5.1683,-5.1864,-5.2138,-5.275,-5.2834,-5.2815,-5.2846,-5.2288,-5.1943,-5.2015,-5.1317,-5.0875,-5.0875,-5.077,-5.0712,-5.0712,-5.0712,-5.0712,-5.0747,-5.0799,-5.0906,-5.1024,-5.1111,-5.1205,-5.1327,-5.1374,-5.2065,-5.3314,-5.533,-5.5781,-5.5156,-5.5898,-5.5762,-5.5019,-5.4141,-5.3359,-5.2598,-5.1719,-5.1406,-5.1406,0.0,0.0,0.0,0.0,0.0,0.0,0.0,0.0,0.0,0.0,0.0,0.0,0.0,0.0,0.0,0.0,0.0,0.0,0.0,0.0,0.0,-4.0496,-4.0496,-4.0496,-4.0496,-4.0073,-3.9842,-3.9842,-3.9842,-3.9842,-3.9861,-4.0304,-4.0746,-4.12,-4.12,-4.1681,-4.2527,-4.297,-4.3382,-4.3753,0.0,0.0,0.0,0.0,0.0,0.0,0.0,0.0,0.0,0.0,-4.0694,-4.0624,-4.0539,0.0,0.0,0.0,0.0,0.0,-4.5364,-4.6547,-4.7548,-4.7548,-4.7836,-4.8221,-4.8702,-4.9106,-4.9394,-4.9394,-5.0087,-5.0673,-5.0613,-5.0603,-5.0582,-5.0511,-5.0489,-5.0602,-5.094,-5.091,-5.093,-5.1199,-5.1205,-5.1205,-5.1282,-5.1061,-5.0937,-5.1034,-5.0804,-5.0643,-5.0643,-5.0673,-5.0712,-5.0712,-5.0712,-5.0702,-5.0702,-5.073,-5.0801,-5.0948,-5.1009,-5.1113,-5.1244,-5.1316,-5.2186,-5.3744,-5.5734,-5.6365,-5.6034,-5.6426,-5.6367,-5.5918,-5.5039,-5.418,-5.3242,-5.1894,-5.1406,-5.1406,0.0,0.0,0.0,0.0,0.0,0.0,0.0,0.0,0.0,0.0,0.0,0.0,0.0,0.0,0.0,0.0,0.0,0.0,0.0,0.0,-4.0496,-4.0496,-4.0496,-4.0419,-4.0227,-3.9631,-3.9207,-3.8996,-3.8996,-3.9111,-3.9323,-4.0342,-4.1162,-4.1808,-4.2,-4.2585,-4.3412,-4.4047,-4.4412,-4.4613,0.0,0.0,0.0,0.0,0.0,0.0,0.0,0.0,0.0,0.0,0.0,0.0,0.0,0.0,0.0,-4.2547,-4.3374,-4.4201,-4.5056,-4.6528,-4.7855,-4.8048,-4.8413,-4.8875,-4.9548,-4.9702,-4.9702,-4.9702,-5.025,-5.0663,-5.0593,-5.054,-5.0468,-5.0404,-5.0348,-5.029,-5.0243,-5.0101,-4.9959,-4.9797,-4.9745,-4.9745,-4.9824,-4.9999,-5.0151,-5.029,-5.0446,-5.0551,-5.0562,-5.0633,-5.0692,-5.0692,-5.0683,-5.0712,-5.0712,-5.0712,-5.075,-5.0846,-5.0909,-5.1027,-5.1133,-5.1225,-5.2029,-5.3493,-5.5659,-5.6476,-5.6306,-5.6523,-5.6601,-5.6504,-5.5644,-5.4648,-5.3516,-5.1973,-5.1406,-5.1406,0.0,0.0,0.0,0.0,0.0,0.0,0.0,0.0,0.0,0.0,0.0,0.0,0.0,0.0,0.0,0.0,0.0,0.0,0.0,0.0,-4.0496,-4.0496,-4.0496,-4.015,-3.94,-3.9323,-3.8892,-3.8084,-3.8084,-3.8507,-3.9342,-4.095,-4.1731,-4.1827,-4.2643,-4.3451,-4.422,-4.4278,-4.4759,-4.5518,-4.5518,0.0,0.0,0.0,0.0,0.0,0.0,0.0,0.0,0.0,0.0,0.0,0.0,0.0,-4.0766,-4.1643,-4.2508,-4.3355,-4.4162,-4.5663,-4.7173,-4.7913,-4.9317,-5.0539,-5.0596,-5.0616,-5.0616,-5.0616,-5.0654,-5.0653,-5.0532,-5.0302,-5.0133,-5.0133,-5.0082,-5.0031,-5.0031,-4.9841,-4.966,-4.9457,-4.943,-4.9415,-4.9352,-4.9588,-4.9814,-4.9999,-5.0219,-5.0348,-5.0412,-5.0551,-5.0603,-5.0603,-5.0663,-5.0712,-5.0712,-5.0712,-5.0693,-5.071,-5.0784,-5.0847,-5.0923,-5.1114,-5.1317,-5.1682,-5.5115,-5.6146,-5.5462,-5.6267,-5.6601,-5.6504,-5.5644,-5.4277,-5.2676,-5.1738,-5.1406,-5.1406,0.0,0.0,0.0,0.0,0.0,0.0,0.0,0.0,0.0,0.0,0.0,0.0,0.0,0.0,0.0,0.0,0.0,0.0,0.0,0.0,-3.9977,-4.0477,-4.0496,-4.0131,-3.9323,-3.8757,-3.8334,-3.8007,-3.8007,-3.87,-4.0073,-4.1258,-4.2085,-4.2643,-4.3489,-4.4316,-4.5114,-4.5114,-4.5306,-4.5594,-4.5594,-4.4919,0.0,0.0,0.0,0.0,0.0,0.0,0.0,0.0,-4.0569,-4.0531,-4.0516,-4.0496,-4.0785,-4.2181,-4.2835,-4.3393,-4.4739,-4.6355,-4.7721,-4.8029,-4.9413,-5.0712,-5.0712,-5.0712,-5.0712,-5.0712,-5.0712,-5.0653,-5.0521,-5.0278,-5.0095,-5.0095,-4.9978,-4.9857,-4.9816,-4.9529,-4.928,-4.9174,-4.9077,-4.9027,-4.9044,-4.9286,-4.9503,-4.9625,-4.9933,-5.0145,-5.0207,-5.0424,-5.0562,-5.0603,-5.0682,-5.0712,-5.0712,-5.0712,-5.0702,-5.0693,-5.073,-5.0754,-5.0781,-5.0942,-5.1094,-5.1312,-5.2692,-5.3942,-5.5011,-5.5397,-5.5327,-5.4941,-5.4629,-5.4414,-5.4219,-5.334,-5.3027,-5.3027,0.0,0.0,0.0,0.0,0.0,0.0,0.0,0.0,0.0,0.0,0.0,0.0,0.0,0.0,0.0,0.0,0.0,0.0,0.0,-3.8996,-3.9554,-4.0092,-4.0362,-4.0246,-3.9688,-3.8854,-3.8277,-3.8007,-3.8277,-3.8988,-4.015,-4.1277,-4.2124,-4.2739,-4.3547,-4.4239,-4.4825,-4.5075,-4.519,-4.521,-4.5498,-4.5103,0.0,0.0,0.0,0.0,0.0,0.0,0.0,0.0,-4.0539,-4.0496,-4.0496,-4.0496,-4.0785,-4.2258,-4.2874,-4.347,-4.5152,-4.6644,-4.7855,-4.8375,-4.9413,-5.0366,-5.0635,-5.0712,-5.0712,-5.0712,-5.0663,-5.0613,-5.0489,-5.0255,-5.007,-5.0044,-4.9797,-4.963,-4.957,-4.9239,-4.8956,-4.8889,-4.8785,-4.875,-4.8768,-4.8995,-4.916,-4.9241,-4.9581,-4.9838,-4.9946,-5.0212,-5.0416,-5.0521,-5.0623,-5.0673,-5.0712,-5.0712,-5.0712,-5.0712,-5.0702,-5.0701,-5.0698,-5.0808,-5.0935,-5.1101,-5.1224,-5.2189,-5.3735,-5.4155,-5.42,-5.4,-5.4003,-5.4355,-5.4824,-5.4219,-5.4004,-5.4004,0.0,0.0,0.0,0.0,0.0,0.0,0.0,0.0,0.0,0.0,0.0,0.0,0.0,0.0,0.0,0.0,0.0,0.0,0.0,-3.8315,-3.9284,-3.9304,-4.0054,-4.0496,-4.0496,-3.9727,-3.8873,-3.8007,-3.8873,-3.9304,-3.9361,-4.1027,-4.1788,-4.1846,-4.272,-4.3104,-4.3143,-4.3951,-4.4297,-4.4374,-4.5248,-4.5075,-4.422,0.0,0.0,0.0,0.0,0.0,0.0,0.0,-4.0496,-4.0496,-4.0516,0.0,-4.0689,-4.1566,-4.245,-4.3489,-4.5171,-4.624,-4.7317,-4.899,-4.9413,-4.9644,-5.05,-5.0712,-5.0712,-5.0712,-5.0584,-5.0489,-5.0412,-5.0182,-4.9992,-4.9906,-4.9566,-4.9308,-4.9308,-4.9012,-4.8751,-4.8605,-4.8587,-4.8569,-4.8494,-4.8679,-4.8822,-4.8891,-4.9162,-4.938,-4.9602,-4.9914,-5.0194,-5.039,-5.054,-5.0623,-5.0712,-5.0712,-5.0712,-5.0712,-5.0712,-5.0693,-5.0701,-5.0698,-5.0772,-5.0908,-5.1114,-5.122,-5.1388,-5.2582,-5.344,-5.399,-5.4,-5.4002,-5.4003,-5.4023,-5.4023,-5.4023,0.0,0.0,0.0,0.0,0.0,0.0,0.0,0.0,0.0,0.0,0.0,0.0,0.0,0.0,0.0,0.0,0.0,0.0,0.0,-3.718,-3.8027,-3.9246,-3.9534,-3.9919,-4.0496,-4.0265,-3.9746,-3.8911,-3.9131,-3.9538,-4.018,-4.1234,-4.1741,-4.1775,-4.264,-4.306,-4.3124,-4.3355,-4.3778,-4.4316,-4.4586,-4.4893,-4.5133,0.0,0.0,0.0,0.0,0.0,0.0,0.0,0.0,0.0,-4.1219,0.0,-4.17,-4.3143,-4.4182,-4.5105,-4.6201,-4.7567,-4.8779,-4.9279,-4.9856,-5.0385,-5.0635,-5.0712,-5.0712,-5.0712,-5.0633,-5.0553,-5.0532,-5.0325,-5.0101,-4.9992,-4.9596,-4.9241,-4.911,-4.8804,-4.8569,-4.8513,-4.8457,-4.8382,-4.8363,-4.8494,-4.8587,-4.8624,-4.8907,-4.9174,-4.9365,-4.9755,-5.0038,-5.0255,-5.0446,-5.0553,-5.0623,-5.0692,-5.0712,-5.0712,-5.0712,-5.0693,-5.0693,-5.0701,-5.0726,-5.0764,-5.0921,-5.101,-5.1064,-5.1564,-5.2249,-5.3086,-5.3684,-5.4322,-5.499,-5.5603,-5.5839,-5.5839,0.0,0.0,0.0,0.0,0.0,0.0,0.0,0.0,0.0,0.0,0.0,-3.6212,0.0,0.0,0.0,0.0,0.0,0.0,0.0,0.0,-3.77,-3.8738,-3.9419,-3.9996,-4.0496,-4.0496,-4.0265,-3.9785,-3.9738,-3.9983,-4.0502,-4.0969,-4.1208,-4.1251,-4.1733,-4.1999,-4.2099,-4.2409,-4.2823,-4.3304,-4.3637,-4.4318,-4.4991,0.0,0.0,0.0,0.0,0.0,0.0,0.0,0.0,0.0,-4.2143,0.0,-4.2585,-4.3912,-4.4921,-4.5864,-4.7048,-4.8375,-4.9471,-4.9817,-5.0308,-5.0712,-5.0712,-5.0712,-5.0712,-5.0712,-5.0643,-5.0603,-5.0603,-5.0382,-5.017,-5.0031,-4.9562,-4.9158,-4.8974,-4.866,-4.8419,-4.8419,-4.8363,-4.8306,-4.8306,-4.8382,-4.8419,-4.8419,-4.866,-4.889,-4.9127,-4.9476,-4.9811,-5.0101,-5.0314,-5.0478,-5.0603,-5.0682,-5.0712,-5.0712,-5.0712,-5.0712,-5.0693,-5.0702,-5.0701,-5.0698,-5.0784,-5.0832,-5.0868,-5.1047,-5.1463,-5.2098,-5.3013,-5.394,-5.4853,-5.5753,-5.6305,-5.6541,0.0,0.0,-3.468,-3.5462,0.0,0.0,0.0,0.0,0.0,-3.55,-3.55,-3.55,0.0,0.0,0.0,-3.55,0.0,0.0,0.0,0.0,-3.7911,-3.8007,-3.9611,-4.0496,-4.0496,-4.0496,-4.0496,-4.0496,-4.0479,-4.0493,-4.0493,-4.0415,-4.0415,-4.0477,-4.0407,-4.0415,-4.0523,-4.1248,-4.1614,-4.1757,-4.2539,-4.3401,-4.4102,-4.3453,0.0,0.0,0.0,0.0,0.0,0.0,0.0,0.0,-4.3181,-4.3201,-4.3374,-4.4182,-4.5086,-4.6172,-4.7682,-4.8798,-4.9702,-5.05,-5.0712,-5.0712,-5.0712,-5.0712,-5.0712,-5.0712,-5.0643,-5.0603,-5.0603,-5.0393,-5.0163,-5.0044,-4.951,-4.9055,-4.8907,-4.8569,-4.8306,-4.8306,-4.8306,-4.8306,-4.8306,-4.8306,-4.8306,-4.8306,-4.842,-4.8606,-4.8874,-4.9127,-4.9491,-4.9933,-5.0151,-5.0371,-5.0582,-5.0653,-5.0683,-5.0712,-5.0712,-5.0712,-5.0712,-5.0712,-5.0693,-5.0701,-5.0694,-5.0734,-5.0793,-5.0939,-5.1037,-5.1177,-5.2176,-5.3052,-5.3897,-5.4921,-5.5755,-5.6267,0.0,0.0,-3.6219,-3.6404,0.0,0.0,0.0,0.0,-3.55,-3.55,-3.55,-3.55,-3.55,-3.55,0.0,-3.55,-3.55,0.0,0.0,0.0,-3.7276,-3.7969,-3.9611,-4.0496,-4.0496,-4.0496,-4.0496,-4.0496,-4.0447,-4.0388,-4.0334,-4.0272,-4.0253,-4.0263,-4.0253,-4.0253,-4.0271,-4.0453,-4.0959,-4.1636,-4.1834,-4.2454,-4.3342,-4.3838,-4.3758,0.0,0.0,0.0,0.0,0.0,0.0,0.0,-4.3835,-4.4047,-4.4201,-4.5075,-4.6374,-4.7644,-4.8009,-4.924,-5.0481,-5.0654,-5.0712,-5.0712,-5.0712,-5.0712,-5.0712,-5.0712,-5.0702,-5.0673,-5.0673,-5.05,-5.029,-5.0108,-4.9665,-4.9222,-4.8925,-4.8642,-4.8419,-4.8306,-4.8306,-4.8306,-4.8306,-4.8306,-4.8306,-4.8306,-4.842,-4.855,-4.866,-4.8906,-4.9239,-4.9588,-4.9901,-5.0194,-5.0435,-5.0572,-5.0643,-5.0712,-5.0712,-5.0712,-5.0712,-5.0712,-5.0693,-5.0712,-5.071,-5.0718,-5.0736,-5.0877,-5.0941,-5.1044,-5.1994,-5.2532,-5.2994,-5.4616,-5.4947,-5.4637,0.0,0.0,0.0,0.0,0.0,0.0,0.0,0.0,-3.6212,-3.6635,-3.6327,-3.6077,-3.6077,-3.5731,0.0,0.0,-3.55,-3.5654,0.0,0.0,0.0,0.0,0.0,0.0,0.0,0.0,0.0,-4.0496,-4.0816,-4.0746,-4.0307,-4.0597,-4.0519,-4.0157,-4.0456,-4.0399,-4.004,-4.001,-4.0317,-4.0835,-4.0911,-4.151,-4.2424,-4.2926,-4.3335,-4.372,-4.4143,0.0,0.0,0.0,0.0,0.0,0.0,0.0,-4.5017,-4.5479,-4.6509,-4.7605,-4.8009,-4.9067,-5.0183,-5.0596,-5.0712,-5.0712,-5.0712,-5.0712,-5.0712,-5.0712,-5.0712,-5.0712,-5.0712,-5.0551,-5.0337,-5.0182,-4.9722,-4.9286,-4.8993,-4.8678,-4.8457,-4.8306,-4.8306,-4.8306,-4.8306,-4.8306,-4.8306,-4.8306,-4.8363,-4.8438,-4.855,-4.8786,-4.9061,-4.9396,-4.9731,-5.0057,-5.0348,-5.053,-5.0633,-5.0712,-5.0712,-5.0712,-5.0712,-5.0712,-5.0712,-5.0693,-5.0693,-5.0702,-5.0712,-5.0785,-5.081,-5.0863,-5.1446,-5.1981,-5.2536,-5.3545,-5.3922,-5.3957,0.0,0.0,0.0,0.0,0.0,0.0,0.0,0.0,0.0,-3.7911,-3.7238,-3.6692,-3.6692,-3.5981,-3.55,0.0,0.0,0.0,-3.6442,0.0,0.0,0.0,0.0,0.0,0.0,0.0,0.0,-4.0496,-4.1086,-4.1073,-4.05,-4.1155,-4.1098,-4.045,-4.0775,-4.0589,-4.0004,-3.9826,-3.9837,-3.9986,-4.01,-4.0682,-4.1471,-4.1846,-4.2849,-4.4115,-4.4404,-4.4989,-4.5594,-4.5594,0.0,0.0,0.0,0.0,-4.5594,-4.5603,-4.6238,-4.7076,-4.7912,-4.8855,-4.9788,-5.0519,-5.0712,-5.0712,-5.0712,-5.0712,-5.0712,-5.0712,-5.0712,-5.0712,-5.0712,-5.0542,-5.039,-5.0236,-4.9805,-4.938,-4.9092,-4.8768,-4.8494,-4.8363,-4.8306,-4.8306,-4.8306,-4.8306,-4.8306,-4.8306,-4.8306,-4.8363,-4.8457,-4.8642,-4.8891,-4.9241,-4.9554,-4.9903,-5.0278,-5.0468,-5.0613,-5.0712,-5.0712,-5.0712,-5.0712,-5.0712,-5.0712,-5.0712,-5.0712,-5.0712,-5.0693,-5.0692,-5.0711,-5.072,-5.0885,-5.1407,-5.2085,-5.2363,-5.2882,-5.3384,0.0,0.0,0.0,0.0,0.0,0.0,0.0,0.0,0.0,0.0,-3.7238,-3.6692,-3.6692,-3.5981,-3.55,-3.55,-3.55,-3.5558,0.0,0.0,0.0,0.0,0.0,0.0,0.0,0.0,0.0,-4.0496,-4.0473,-4.073,-4.1273,-4.1821,-4.197,-4.1713,-4.0931,-4.0549,-4.0465,-3.9815,-3.9647,-3.9837,-3.9967,-4.0176,-4.0577,-4.2096,-4.2887,-4.3361,-4.4821,-4.5444,-4.5594,-4.5594,-4.5594,0.0,0.0,0.0,-4.5603,-4.5657,-4.6262,-4.709,-4.8028,-4.9379,-5.0548,-5.0664,-5.0712,-5.0712,-5.0712,-5.0712,-5.0712,-5.0712,-5.0712,-5.0712,-5.0712,-5.0633,-5.05,-5.0314,-4.9968,-4.9622,-4.9305,-4.8978,-4.8679,-4.8513,-4.8363,-4.8306,-4.8306,-4.8306,-4.8306,-4.8306,-4.8306,-4.8306,-4.8343,-4.8457,-4.8678,-4.9044,-4.9318,-4.9707,-5.02,-5.0367,-5.0511,-5.0712,-5.0712,-5.0712,-5.0712,-5.0712,-5.0712,-5.0712,-5.0712,-5.0712,-5.0712,-5.0693,-5.0702,-5.0702,-5.073,-5.0874,-5.1196,-5.2027,-5.2037,-5.1732,0.0,0.0,0.0,0.0,0.0,0.0,0.0,0.0,0.0,0.0,0.0,-3.743,-3.743,-3.6673,-3.5981,-3.5538,-3.55,0.0,0.0,0.0,0.0,0.0,0.0,0.0,0.0,0.0,0.0,-4.0495,-4.0812,-4.1293,-4.1922,-4.241,-4.2415,-4.1943,-4.1814,-4.1229,-4.0361,-4.0071,-3.9775,-3.9576,-4.0238,-4.0566,-4.0857,-4.217,-4.3053,-4.3666,-4.4479,-4.5101,-4.5559,-4.5586,-4.5594,-4.5594,-4.5594,0.0,0.0,0.0,-4.5951,-4.6529,-4.791,-4.9138,-5.0133,-5.0596,-5.0712,-5.0712,-5.0712,-5.0712,-5.0712,-5.0712,-5.0712,-5.0712,-5.0712,-5.0643,-5.0551,-5.0371,-5.0114,-4.9773,-4.9415,-4.9079,-4.8769,-4.8531,-4.8382,-4.8306,-4.8306,-4.8306,-4.8306,-4.8306,-4.8306,-4.8306,-4.8306,-4.8438,-4.8642,-4.8925,-4.9239,-4.9598,-5.0031,-5.0245,-5.0462,-5.0712,-5.0712,-5.0712,-5.0712,-5.0712,-5.0712,-5.0712,-5.0712,-5.0712,-5.0712,-5.0712,-5.0712,-5.0693,-5.0702,-5.0756,-5.0908,-5.1388,-5.1386,-5.119,0.0,0.0,0.0,0.0,0.0,0.0,0.0,0.0,0.0,0.0,0.0,-3.8007,-3.8007,0.0,0.0,0.0,-3.55,0.0,0.0,0.0,0.0,0.0,0.0,0.0,0.0,0.0,-4.0492,-4.0502,-4.0949,-4.1556,-4.2309,-4.2559,-4.2576,-4.2412,-4.2539,-4.1915,-4.0747,-4.0619,-4.0304,-3.993,-4.0753,-4.1293,-4.1739,-4.2705,-4.3561,-4.43,-4.4661,-4.5084,-4.5504,-4.5577,-4.5594,-4.5594,-4.5594,-4.546,0.0,0.0,0.0,-4.6352,-4.7669,-4.8764,-4.9667,-5.0257,-5.0548,-5.0702,-5.0693,-5.0712,-5.0712,-5.0712,-5.0712,-5.0712,-5.0712,-5.0653,-5.0593,-5.0468,-5.0243,-4.9946,-4.9562,-4.9206,-4.8891,-4.8606,-4.8438,-4.8343,-4.8306,-4.8306,-4.8306,-4.8306,-4.8306,-4.8306,-4.8306,-4.8382,-4.8587,-4.8856,-4.9158,-4.9487,-4.9854,-5.0206,-5.0502,-5.0712,-5.0712,-5.0712,-5.0712,-5.0712,-5.0712,-5.0712,-5.0712,-5.0712,-5.0712,-5.0712,-5.0712,-5.0693,-5.0712,-5.073,-5.0793,-5.0901,-5.0954,-5.0998,0.0,0.0,0.0,0.0,0.0,0.0,0.0,0.0,0.0,0.0,0.0,-3.8007,-3.8007,-3.7219,-3.6385,-3.5577,-3.55,0.0,0.0,0.0,0.0,0.0,0.0,0.0,0.0,-4.0496,-4.0492,-4.0502,-4.0336,-4.0966,-4.229,-4.1927,-4.2497,-4.3765,-4.275,-4.2299,-4.2253,-4.1541,-4.1295,-4.139,-4.1529,-4.217,-4.3206,-4.407,-4.4638,-4.5065,-4.6045,-4.6012,-4.5504,-4.5577,-4.5594,-4.5594,-4.5594,-4.5037,-4.4545,0.0,0.0,0.0,-4.7228,-4.8406,-4.9598,-4.9566,-5.015,-5.0702,-5.0702,-5.0712,-5.0712,-5.0712,-5.0712,-5.0712,-5.0712,-5.0702,-5.0663,-5.0603,-5.0424,-5.0175,-4.983,-4.9499,-4.9162,-4.8822,-4.8606,-4.8438,-4.8306,-4.8306,-4.8306,-4.8306,-4.8306,-4.8306,-4.8306,-4.8306,-4.8458,-4.8787,-4.9025,-4.9302,-4.9709,-5.0359,-5.0681,-5.0712,-5.0712,-5.0712,-5.0712,-5.0712,-5.0712,-5.0712,-5.0712,-5.0712,-5.0712,-5.0712,-5.0712,-5.0712,-5.0693,-5.0702,-5.071,-5.0793,-5.0841,-5.0929,0.0,0.0,0.0,0.0,0.0,0.0,0.0,0.0,0.0,0.0,0.0,0.0,0.0,-3.8065,-3.7199,-3.6346,-3.5808,0.0,0.0,0.0,0.0,0.0,0.0,0.0,0.0,-4.0496,-4.0476,-4.0432,-4.028,-4.0611,-4.142,-4.1606,-4.2173,-4.2989,-4.3048,-4.2799,-4.2336,-4.2089,-4.1746,-4.1403,-4.2597,-4.333,-4.3875,-4.5394,-4.6172,-4.655,-4.7091,-4.683,-4.6283,-4.6405,-4.6067,-4.5498,-4.4932,-4.4547,-4.438,-4.4808,-4.5213,-4.577,-4.6952,-4.7617,-4.8251,-4.9293,-4.9751,-5.0066,-5.0587,-5.0712,-5.0712,-5.0712,-5.0712,-5.0712,-5.0712,-5.0712,-5.0692,-5.0613,-5.0468,-5.0248,-4.9967,-4.9607,-4.9241,-4.8909,-4.8642,-4.8438,-4.8306,-4.8306,-4.8306,-4.8306,-4.8306,-4.8306,-4.8306,-4.8306,-4.8439,-4.8787,-4.894,-4.9336,-4.9943,-5.0454,-5.071,-5.0712,-5.0712,-5.0712,-5.0712,-5.0712,-5.0712,-5.0712,-5.0712,-5.0712,-5.0712,-5.0712,-5.0712,-5.0712,-5.0712,-5.0702,-5.0702,-5.073,-5.0747,-5.0791,0.0,0.0,0.0,-4.1964,0.0,-4.0534,-3.9427,-3.9281,-3.9262,-3.9296,0.0,0.0,0.0,0.0,-3.8084,-3.7219,-3.6654,-3.6346,-3.6346,0.0,0.0,0.0,0.0,0.0,0.0,-4.0496,-4.0476,-4.0432,-4.028,-4.0459,-4.0967,-4.1194,-4.1597,-4.2158,-4.2516,-4.269,-4.2708,-4.274,-4.2461,-4.211,-4.3588,-4.4406,-4.4907,-4.6504,-4.732,-4.7667,-4.7941,-4.7621,-4.7085,-4.7233,-4.6713,-4.5914,-4.5346,-4.4786,-4.4289,-4.4131,-4.4357,-4.4949,-4.6485,-4.7026,-4.7437,-4.8553,-4.92,-4.9693,-5.0209,-5.0519,-5.0693,-5.0693,-5.0702,-5.0712,-5.0712,-5.0712,-5.0692,-5.0633,-5.0551,-5.0371,-5.0145,-4.9759,-4.9408,-4.9077,-4.8768,-4.8532,-4.8382,-4.8343,-4.8306,-4.8306,-4.8306,-4.8306,-4.8306,-4.8306,-4.8458,-4.8822,-4.899,-4.9397,-5.0095,-5.0508,-5.0698,-5.0702,-5.0702,-5.0712,-5.0712,-5.0712,-5.0712,-5.0712,-5.0712,-5.0712,-5.0712,-5.0712,-5.0712,-5.0712,-5.0712,-5.0712,-5.0693,-5.0702,-5.0692,-5.0711,-4.4509,-4.432,-4.3766,-4.2076,-4.1754,-4.118,-3.9525,-3.9265,-3.928,-3.9335,0.0,0.0,0.0,0.0,0.0,-3.8084,-3.8007,-3.8007,-3.8007,-3.8027,0.0,0.0,0.0,0.0,-4.0477,-4.0496,-4.0492,-4.0502,-4.0298,-4.0499,-4.1063,-4.0684,-4.0807,-4.1348,-4.1172,-4.1974,-4.3441,-4.346,-4.3478,-4.357,-4.4397,-4.5311,-4.6296,-4.7335,-4.7981,-4.8365,-4.864,-4.8338,-4.7848,-4.7989,-4.7511,-4.6839,-4.6856,-4.5708,-4.4241,-4.3529,-4.3982,-4.4893,0.0,0.0,0.0,-4.7298,-4.8477,-4.9621,-4.9594,-5.0147,-5.0663,-5.0701,-5.0702,-5.0712,-5.0712,-5.0712,-5.0712,-5.0712,-5.0643,-5.0521,-5.0325,-5.0025,-4.9679,-4.9352,-4.9012,-4.8733,-4.8531,-4.8382,-4.8306,-4.8306,-4.8306,-4.8306,-4.8306,-4.8306,-4.8495,-4.8891,-4.9078,-4.9483,-5.0081,-5.0496,-5.0698,-5.0699,-5.0702,-5.0712,-5.0712,-5.0712,-5.0712,-5.0712,-5.0712,-5.0712,-5.0712,-5.0712,-5.0712,-5.0712,-5.0712,-5.0712,-5.0712,-5.0712,-5.0712,-5.0693,-4.515,-4.4623,-4.4077,-4.3597,-4.2994,-4.2226,-4.1176,-4.1012,-4.0817,0.0,0.0,0.0,-4.0169,-3.965,-3.8957,-3.8084,-3.8007,-3.8007,-3.8007,-3.8584,-3.9053,-3.9284,-3.9861,-4.0265,-4.0496,-4.0496,-4.0492,-4.0502,-4.0298,-4.0214,-4.0252,-4.0421,-4.0509,-4.0552,-4.0933,-4.1352,-4.1809,-4.2378,-4.2965,-4.3608,-4.5002,-4.5825,-4.637,-4.7898,-4.876,-4.9119,-4.9348,-4.9074,-4.8613,-4.8809,-4.8336,-4.7463,-4.6327,-4.4806,-4.3558,-4.4035,-4.4389,-4.4835,-4.5837,0.0,0.0,0.0,0.0,0.0,-4.9332,-4.9727,-5.0005,-5.0586,-5.0702,-5.0712,-5.0712,-5.0712,-5.0712,-5.0712,-5.0643,-5.0551,-5.0401,-5.0126,-4.9819,-4.9484,-4.9141,-4.8873,-4.8733,-4.855,-4.8438,-4.8438,-4.8363,-4.8306,-4.8306,-4.8382,-4.8569,-4.8822,-4.8922,-4.9243,-4.9811,-5.0397,-5.0703,-5.0699,-5.0702,-5.0712,-5.0712,-5.0712,-5.0712,-5.0712,-5.0712,-5.0712,-5.0712,-5.0712,-5.0712,-5.0712,-5.0712,-5.0712,-5.0712,-5.0712,-5.0712,-5.0693,-4.541,-4.5026,-4.4576,-4.4183,-4.3675,-4.3044,-4.2239,-4.2132,-4.2014,0.0,0.0,0.0,-4.1585,-4.1162,-4.0527,-3.9662,-3.9585,-3.9431,-3.9065,-3.9515,-3.9804,-3.9804,-4.0246,-4.0669,-4.1027,-4.1046,-4.1038,-4.1045,-4.0852,-4.0472,-3.9948,-3.9971,-3.9918,-3.9758,-3.9991,-4.0288,-4.0653,-4.146,-4.2268,-4.3167,-4.5112,-4.5992,-4.6354,-4.805,-4.8907,-4.9225,-4.9439,-4.9381,-4.922,-4.9491,-4.9124,-4.826,-4.6645,-4.522,-4.4254,-4.4862,-4.4834,-4.4824,-4.5827,-4.6111,-4.6251,-4.6718,0.0,0.0,-4.8475,-4.9173,-4.9749,-5.0193,-5.054,-5.0785,-5.0785,-5.0776,-5.0777,-5.0777,-5.0702,-5.0614,-5.05,-5.0278,-5.0038,-4.9792,-4.9439,-4.9158,-4.9029,-4.8786,-4.8624,-4.855,-4.8438,-4.8363,-4.8306,-4.8382,-4.8494,-4.8661,-4.8737,-4.9011,-4.9489,-5.0183,-5.0565,-5.0618,-5.0612,-5.0634,-5.0653,-5.0702,-5.0712,-5.0712,-5.0712,-5.0712,-5.0712,-5.0712,-5.0712,-5.0712,-5.0712,-5.0712,-5.0712,-5.0712,-5.0712,-5.075,0.0,-4.538,-4.5119,-4.4274,-4.4077,-4.3751,-4.2955,-4.2871,-4.2948,0.0,-4.3043,-4.3096,-4.3104,-4.3104,-4.2797,-4.2,-4.1942,-4.1623,-4.0843,-4.0708,-4.065,-4.065,-4.065,-4.1008,-4.1769,-4.1885,-4.1942,-4.1942,-4.1751,-4.116,-4.0269,-3.9807,-3.9498,-3.9366,-3.9083,-3.9368,-4.0084,-4.0875,-4.1662,-4.2506,-4.4929,-4.5974,-4.6285,-4.796,-4.8714,-4.8926,-4.9195,-4.9396,-4.9646,-4.9999,-4.9771,-4.9047,-4.7625,-4.6586,-4.5909,-4.6024,-4.5561,-4.5227,-4.6123,-4.6426,-4.6488,-4.6494,-4.7025,0.0,-4.7677,-4.8792,-4.9821,-4.9847,-5.0424,-5.0914,-5.0914,-5.0909,-5.0905,-5.0916,-5.0801,-5.0682,-5.0604,-5.0427,-5.0278,-5.0145,-4.9792,-4.9499,-4.9368,-4.9094,-4.8855,-4.866,-4.855,-4.8438,-4.8306,-4.8306,-4.8363,-4.8494,-4.8547,-4.8753,-4.9145,-4.9887,-5.0298,-5.0448,-5.0487,-5.0535,-5.0603,-5.0663,-5.0712,-5.0712,-5.0712,-5.0712,-5.0712,-5.0712,-5.0712,-5.0712,-5.0712,-5.0712,-5.0712,-5.0712,-5.0712,-5.0827,-4.5329,-4.5286,-4.5156,-4.4919,-4.4832,-4.4505,-4.3705,-4.3645,-4.348,-4.291,-4.2935,-4.3043,-4.3077,-4.3104,-4.3028,-4.2854,-4.2854,-4.2777,-4.2604,-4.195,-4.1546,-4.1546,-4.1546,-4.1643,-4.1788,-4.2489,-4.2854,-4.2854,-4.2584,-4.2314,-4.199,-4.1525,-4.1232,-4.1092,-4.0778,-4.071,-4.0912,-4.1717,-4.2158,-4.2506,-4.4929,-4.5974,-4.6285,-4.7905,-4.8642,-4.884,-4.8993,-4.9222,-4.9533,-5.0089,-4.9819,-4.9259,-4.899,-4.8317,-4.7634,-4.7705,-4.7693,-4.7701,-4.7953,-4.8156,-4.8293,-4.8291,-4.8408,0.0,-4.9341,-4.9692,-5.0054,-5.0699,-5.0914,-5.0976,-5.0976,-5.0969,-5.0981,-5.099,-5.0917,-5.0808,-5.0616,-5.0534,-5.0404,-5.0278,-5.005,-4.9819,-4.9627,-4.938,-4.9144,-4.894,-4.866,-4.8438,-4.8306,-4.8306,-4.8363,-4.8494,-4.842,-4.8556,-4.8952,-4.9535,-4.9906,-5.0101,-5.0363,-5.0542,-5.0603,-5.0663,-5.0712,-5.0712,-5.0712,-5.0712,-5.0712,-5.0712,-5.0712,-5.0712,-5.0712,-5.0712,-5.0712,-5.0712,-5.0712,-5.0827,-4.5256,-4.5192,-4.5114,-4.4967,-4.4883,-4.4701,-4.4266,-4.4294,-4.4247,-4.3939,-4.4047,-4.4164,-4.4192,-4.4192,-4.402,-4.3589,-4.3578,-4.3414,-4.2973,-4.2595,-4.239,-4.239,-4.2434,-4.2643,-4.3047,-4.347,-4.3701,-4.3701,-4.3455,-4.3068,-4.2485,-4.2013,-4.1735,-4.1575,-4.1256,-4.1095,-4.115,-4.1974,-4.2304,-4.2488,-4.4488,-4.5589,-4.6121,-4.7353,-4.8108,-4.8569,-4.8715,-4.9044,-4.9491,-4.9986,-5.0015,-4.9867,-4.996,-4.9413,-4.8769,-4.8834,-4.8618,-4.837,-4.8468,-4.8617,-4.8769,-4.879,-4.8821,0.0,0.0,-4.9717,-4.9983,-4.996,-5.0256,-5.0364,-4.9936,-5.0208,-5.0492,-5.0464,-5.072,-5.0913,-5.0805,-5.0664,-5.0514,-5.0468,-5.0302,-5.0126,-4.998,-4.9736,-4.9411,-4.8993,-4.866,-4.8438,-4.8306,-4.8306,-4.8325,-4.8401,-4.8329,-4.8438,-4.8704,-4.9265,-4.9621,-4.9749,-5.0193,-5.0446,-5.05,-5.0633,-5.0712,-5.0712,-5.0712,-5.0712,-5.0712,-5.0712,-5.0712,-5.0712,-5.0712,-5.0712,-5.0712,-5.0712,-5.0712,-5.0885,-4.5148,-4.508,-4.5012,-4.4952,-4.4898,-4.4874,-4.4942,-4.5084,-4.5243,-4.5418,-4.5571,-4.569,-4.5723,-4.5723,-4.5445,-4.4739,-4.4753,-4.4478,-4.3799,-4.3723,-4.3633,-4.3489,-4.3541,-4.3816,-4.4297,-4.4451,-4.4547,-4.4547,-4.4355,-4.3812,-4.2979,-4.2483,-4.2182,-4.204,-4.1698,-4.157,-4.159,-4.2268,-4.2525,-4.2653,-4.4121,-4.5186,-4.5993,-4.6966,-4.7718,-4.8325,-4.8494,-4.8907,-4.9446,-4.9824,-5.0126,-5.039,-5.0521,-5.0143,-4.9644,-4.971,-4.9299,-4.8833,-4.8942,-4.9075,-4.9191,-4.9261,-4.9338,-4.9365,0.0,0.0,0.0,-4.9237,-4.9577,-4.9739,-4.8881,-4.9289,-4.9808,-4.9901,-5.0413,-5.0854,-5.1004,-5.0819,-5.0653,-5.0624,-5.0502,-5.0393,-5.0278,-5.0025,-4.9621,-4.901,-4.8733,-4.8494,-4.8343,-4.8306,-4.8306,-4.8306,-4.829,-4.8366,-4.8495,-4.9062,-4.939,-4.9484,-5.0031,-5.0314,-5.0412,-5.0613,-5.0712,-5.0712,-5.0712,-5.0712,-5.0712,-5.0712,-5.0712,-5.0712,-5.0712,-5.0712,-5.0712,-5.0712,-5.0712,-5.0943,-4.4919,-4.4821,-4.4893,-4.534,-4.5406,-4.5611,-4.619,-4.6445,-4.6684,-4.7004,-4.7068,-4.7119,-4.7241,-4.7253,-4.7215,-4.7108,-4.7167,-4.7198,-4.7139,-4.6605,-4.5956,-4.5255,-4.5271,-4.4998,-4.4316,-4.5056,-4.546,-4.546,-4.5256,-4.5033,-4.4787,-4.4194,-4.386,-4.3711,-4.3373,-4.3222,-4.3222,-4.3331,-4.3368,-4.3442,-4.4342,-4.5186,-4.6067,-4.759,-4.8233,-4.8344,-4.8642,-4.8995,-4.9352,-4.9646,-4.9948,-5.0267,-5.0438,-5.0495,-5.0489,-5.0548,-5.0583,-5.0615,-5.0688,-5.0806,-5.0938,-5.0998,-5.1078,-5.1119,-5.1104,0.0,-5.1018,-5.0137,0.0,-4.9827,-4.8946,0.0,0.0,-4.9864,-5.0056,-5.0345,-5.0989,-5.1011,-5.0882,-5.071,-5.0616,-5.0556,-5.047,-5.0012,-4.9602,-4.9273,-4.8943,-4.8679,-4.8494,-4.8363,-4.8306,-4.8306,-4.829,-4.8365,-4.8513,-4.8978,-4.9292,-4.943,-4.9954,-5.0278,-5.0412,-5.0613,-5.0712,-5.0712,-5.0712,-5.0712,-5.0712,-5.0712,-5.0712,-5.0712,-5.0712,-5.0712,-5.0712,-5.0712,-5.0712,-5.0943,-4.5291,-4.5237,-4.5344,-4.5926,-4.5985,-4.6052,-4.6285,-4.6455,-4.6629,-4.6806,-4.688,-4.692,-4.6977,-4.6977,-4.6977,-4.6977,-4.7108,-4.7248,-4.7327,-4.722,-4.7073,-4.6833,-4.6944,-4.6608,-4.5772,-4.6098,-4.6078,-4.5594,-4.539,-4.5224,-4.5091,-4.4476,-4.4121,-4.4008,-4.413,-4.4195,-4.4232,-4.469,-4.4892,-4.4947,-4.5755,-4.6287,-4.6654,-4.7351,-4.7902,-4.8325,-4.855,-4.8804,-4.911,-4.938,-4.975,-5.0114,-5.0325,-5.0489,-5.0613,-5.0673,-5.073,-5.081,-5.0917,-5.1011,-5.1113,-5.1261,-5.1357,-5.1407,-5.14,-5.1403,-5.1012,-4.9684,0.0,0.0,0.0,0.0,0.0,0.0,-5.0154,-5.0904,-5.1176,-5.1162,-5.1035,-5.0839,-5.0764,-5.0645,-5.0468,-5.0114,-4.975,-4.9442,-4.911,-4.8839,-4.8679,-4.8495,-4.842,-4.8419,-4.8345,-4.8364,-4.8513,-4.8839,-4.9144,-4.9415,-4.9901,-5.0231,-5.0412,-5.0613,-5.0712,-5.0712,-5.0712,-5.0712,-5.0712,-5.0712,-5.0712,-5.0712,-5.0712,-5.0712,-5.0712,-5.0712,-5.0712,-5.0943,-4.6013,-4.5882,-4.5916,-4.6542,-4.6607,-4.6628,-4.6798,-4.6922,-4.7006,-4.7124,-4.7171,-4.722,-4.7218,-4.7423,-4.7553,-4.7553,-4.7937,-4.8164,-4.8064,-4.831,-4.8339,-4.8094,-4.8198,-4.791,-4.7117,-4.6906,-4.6512,-4.5933,-4.5514,-4.5203,-4.5026,-4.4462,-4.4121,-4.3995,-4.4481,-4.4691,-4.4746,-4.5571,-4.5902,-4.5975,-4.6782,-4.7223,-4.7424,-4.7424,-4.7791,-4.8306,-4.8457,-4.8642,-4.8855,-4.9127,-4.9488,-4.9879,-5.0126,-5.0337,-5.0511,-5.0633,-5.0664,-5.071,-5.0833,-5.092,-5.1036,-5.1189,-5.1307,-5.1371,-5.1398,-5.1405,-5.0996,-4.9551,-4.9258,0.0,0.0,0.0,-4.8963,-4.9155,0.0,-5.1125,-5.1305,-5.1291,-5.1167,-5.0949,-5.0866,-5.073,-5.0481,-5.0217,-4.998,-4.9689,-4.9346,-4.9075,-4.8943,-4.8732,-4.8606,-4.8569,-4.8457,-4.8457,-4.8569,-4.8857,-4.9127,-4.9427,-4.9887,-5.0219,-5.0412,-5.0613,-5.0712,-5.0712,-5.0712,-5.0712,-5.0712,-5.0712,-5.0712,-5.0712,-5.0712,-5.0712,-5.0712,-5.0712,-5.0846,-5.1241,-4.7131,-4.6703,-4.6496,-4.7132,-4.7279,-4.7537,-4.831,-4.8421,-4.8495,-4.8695,-4.873,-4.8747,-4.8816,-4.9522,-4.9986,-4.9986,-5.0888,-5.1172,-5.0528,-5.0738,-5.025,-4.882,-4.8895,-4.8627,-4.7872,-4.7165,-4.6801,-4.6762,-4.5781,-4.517,-4.4895,-4.4407,-4.4091,-4.3918,-4.4464,-4.4691,-4.4746,-4.5571,-4.5902,-4.5975,-4.6782,-4.7571,-4.8269,-4.8269,-4.8288,-4.8306,-4.8457,-4.855,-4.8641,-4.8923,-4.919,-4.9491,-4.9879,-5.0089,-5.0248,-5.0521,-5.0605,-5.0635,-5.0775,-5.0901,-5.1029,-5.1089,-5.1217,-5.1313,-5.1382,-5.14,-5.1151,-5.0332,-5.0156,-4.9883,-4.8984,-4.8867,-4.9179,-5.0018,-5.0193,0.0,0.0,-5.1392,-5.1291,-5.1029,-5.0944,-5.0821,-5.0616,-5.0415,-5.0225,-5.0076,-4.9703,-4.9442,-4.9289,-4.9027,-4.8857,-4.8789,-4.866,-4.866,-4.8789,-4.9066,-4.9289,-4.9499,-4.998,-5.0267,-5.0412,-5.0613,-5.0712,-5.0712,-5.0712,-5.0712,-5.0712,-5.0712,-5.0712,-5.0712,-5.0712,-5.0712,-5.0712,-5.0712,-5.1183,-5.1981,-4.7812,-4.7776,-4.7703,-4.7922,-4.7958,-4.805,-4.8326,-4.8363,-4.8603,-4.9231,-4.9342,-4.9544,-5.0098,-5.0393,-5.0558,-5.0558,-5.0895,-5.1121,-5.1075,-5.0738,-5.0416,-5.0199,-4.9779,-4.9208,-4.8502,-4.8251,-4.7914,-4.7454,-4.6992,-4.6377,-4.5615,0.0,0.0,0.0,-4.5016,-4.5498,-4.559,-4.6929,-4.7498,-4.7517,-4.7792,-4.8067,-4.8306,-4.8306,-4.8306,-4.8306,-4.8363,-4.8438,-4.8587,-4.8786,-4.9027,-4.9265,-4.9655,-4.9954,-5.0182,-5.0412,-5.0492,-5.0554,-5.0644,-5.0776,-5.089,-5.1004,-5.1127,-5.1257,-5.136,-5.1407,-5.1164,-5.0308,-5.0133,-4.9879,-4.9059,-4.9332,-4.9802,-5.0135,-5.0643,-5.1092,0.0,-5.1407,-5.1347,-5.1202,-5.1056,-5.089,-5.0692,-5.0527,-5.038,-5.0243,-4.9967,-4.9759,-4.9641,-4.9377,-4.9211,-4.9133,-4.8954,-4.8939,-4.9071,-4.9246,-4.9488,-4.9833,-5.0126,-5.0359,-5.054,-5.0643,-5.0712,-5.0712,-5.0712,-5.0712,-5.0712,-5.0712,-5.0712,-5.0712,-5.0712,-5.0712,-5.0712,-5.0712,-5.1202,-5.2115,-4.8214,-4.8306,-4.8306,-4.8306,-4.8306,-4.8306,-4.8306,-4.8563,-4.8948,-4.9537,-4.9849,-5.0215,-5.0747,-5.1059,-5.1224,-5.1224,-5.1544,-5.1722,-5.1621,-5.1267,-5.1068,-5.1136,-5.0722,-5.0203,-4.9599,-4.9302,-4.8802,-4.8069,-4.7618,-4.6989,0.0,0.0,0.0,0.0,-4.5698,-4.6177,-4.6012,-4.7627,-4.8306,-4.8306,-4.8306,-4.8306,-4.8306,-4.8306,-4.8306,-4.8306,-4.8306,-4.8363,-4.8457,-4.8624,-4.8803,-4.8988,-4.937,-4.9641,-4.9887,-5.0182,-5.0302,-5.0382,-5.0489,-5.0615,-5.0727,-5.0883,-5.1024,-5.1152,-5.1291,-5.1327,-5.1173,-5.0642,-5.0528,-5.0373,-4.9871,-5.0204,-5.0578,-5.0622,-5.1053,-5.1405,0.0,-5.1398,-5.1379,-5.1339,-5.1172,-5.0991,-5.0822,-5.0691,-5.0557,-5.0429,-5.0236,-5.0082,-4.9981,-4.9764,-4.957,-4.9471,-4.9305,-4.927,-4.9402,-4.9559,-4.9774,-5.0063,-5.0278,-5.0457,-5.0603,-5.0663,-5.0712,-5.0712,-5.0712,-5.0712,-5.0712,-5.0712,-5.0712,-5.0712,-5.0712,-5.0712,-5.0712,-5.0712,-5.1414,-5.2596,-4.8361,-4.8398,-4.8416,-4.8416,-4.8361,-4.8306,-4.8306,-4.904,-4.961,-4.9647,-5.0362,-5.0875,-5.0912,-5.1591,-5.205,-5.205,-5.2833,-5.3007,-5.2295,-5.2339,-5.2159,-5.1649,-5.166,-5.1466,-5.102,-5.0241,-4.9451,-4.8689,-4.7751,-4.7061,0.0,0.0,0.0,0.0,-4.6416,-4.6672,-4.6067,-4.7627,-4.8306,-4.8306,-4.8306,-4.8306,-4.8306,-4.8306,-4.8306,-4.8306,-4.8306,-4.8306,-4.8306,-4.8457,-4.8532,-4.866,-4.8988,-4.9236,-4.9457,-4.9866,-5.0031,-5.0133,-5.0314,-5.044,-5.0537,-5.0743,-5.0883,-5.1037,-5.1157,-5.1183,-5.1214,-5.1286,-5.1296,-5.1323,-5.1384,-5.1407,-5.1393,-5.1403,-5.1405,-5.1405,-5.1405,-5.1405,-5.1399,-5.1406,-5.1289,-5.1155,-5.1017,-5.0882,-5.0747,-5.0625,-5.0472,-5.039,-5.0314,-5.0133,-4.9958,-4.9825,-4.9702,-4.9686,-4.983,-4.9944,-5.0069,-5.0231,-5.0404,-5.0532,-5.0603,-5.0663,-5.0712,-5.0712,-5.0712,-5.0712,-5.0712,-5.0712,-5.0712,-5.0712,-5.0712,-5.0712,-5.0712,-5.0789,-5.1837,-5.3433,-4.9132,-4.9756,-5.016,-5.016,-4.9132,-4.8306,-4.8306,-4.904,-4.9812,-5.0398,-5.1187,-5.1922,-5.2527,-5.2784,-5.2894,-5.2894,-5.3099,-5.318,-5.3025,-5.2475,-5.217,-5.2196,-5.164,-5.1321,-5.1305,-5.0516,-5.0025,-4.9864,-4.8961,-4.8156,-4.7417,0.0,0.0,0.0,-4.6709,-4.6984,-4.6856,-4.7884,-4.8306,-4.8306,-4.8306,-4.8306,-4.8306,-4.8306,-4.8306,-4.8306,-4.8306,-4.8306,-4.8306,-4.8457,-4.8513,-4.8587,-4.8923,-4.909,-4.9233,-4.9544,-4.9755,-4.9898,-5.0005,-5.0188,-5.0396,-5.0537,-5.0726,-5.0898,-5.1017,-5.1089,-5.1146,-5.1209,-5.1237,-5.1249,-5.131,-5.133,-5.1335,-5.1391,-5.1404,-5.1406,-5.1406,-5.1406,-5.1405,-5.1394,-5.1323,-5.1199,-5.103,-5.0929,-5.0829,-5.0692,-5.0604,-5.0551,-5.0521,-5.039,-5.0259,-5.0178,-5.0095,-5.005,-5.0099,-5.0188,-5.0286,-5.0409,-5.0538,-5.0603,-5.0663,-5.0683,-5.0712,-5.0712,-5.0712,-5.0712,-5.0712,-5.0712,-5.0712,-5.0712,-5.0712,-5.0712,-5.0846,-5.2106,-5.2837,-5.3433,-4.9958,-5.049,-5.0802,-5.0802,-5.0031,-4.9389,-4.9389,-5.0105,-5.0822,-5.1261,-5.2032,-5.2711,-5.3148,-5.3185,-5.3185,-5.3185,-5.3185,-5.3227,-5.3254,-5.2831,-5.2635,-5.2797,-5.2354,-5.2026,-5.1825,-5.1063,-5.0487,-5.0168,-4.9334,-4.8615,-4.8048,0.0,0.0,0.0,0.0,-4.7424,-4.7149,-4.7957,-4.8306,-4.8306,-4.8306,-4.8306,0.0,-4.8306,-4.8306,-4.8306,-4.8306,-4.8306,-4.8306,-4.8382,-4.8401,-4.8457,-4.8696,-4.8837,-4.892,-4.9171,-4.9384,-4.957,-4.9679,-4.9914,-5.0163,-5.0355,-5.0537,-5.0707,-5.0883,-5.0969,-5.103,-5.1101,-5.1105,-5.1139,-5.1205,-5.1245,-5.1294,-5.1377,-5.1398,-5.1405,-5.1405,-5.1405,-5.1403,-5.1396,-5.1377,-5.1281,-5.1102,-5.1004,-5.0901,-5.0793,-5.0692,-5.0644,-5.0643,-5.0532,-5.0462,-5.0427,-5.0371,-5.0333,-5.0325,-5.0399,-5.047,-5.0538,-5.0612,-5.0653,-5.0712,-5.0712,-5.0712,-5.0712,-5.0712,-5.0712,-5.0712,-5.0712,-5.0712,-5.0702,-5.0663,-5.0653,-5.0797,-5.2103,-5.2833,-5.3353,-5.0967,-5.1206,-5.1242,-5.1132,-5.1206,-5.1279,-5.1279,-5.1683,-5.1995,-5.1995,-5.2711,-5.3185,-5.3185,-5.3185,-5.3185,-5.3185,-5.3185,-5.3185,-5.3185,-5.3185,-5.323,-5.3277,-5.3277,-5.3048,-5.2525,-5.173,-5.0916,-5.0102,-4.9307,-4.8753,-4.8476,0.0,0.0,0.0,0.0,-4.7901,-4.7296,-4.8012,-4.8306,-4.8306,-4.8306,-4.8306,-4.8306,-4.8306,-4.8306,-4.8306,-4.8306,-4.8306,-4.8306,-4.8306,-4.8306,-4.8325,-4.8457,-4.8532,-4.8624,-4.8803,-4.8995,-4.9195,-4.9377,-4.9636,-4.9893,-5.0194,-5.0374,-5.0507,-5.071,-5.0801,-5.0841,-5.0813,-5.0799,-5.0836,-5.0897,-5.1069,-5.1242,-5.1379,-5.1384,-5.1394,-5.1394,-5.1394,-5.1391,-5.1385,-5.1388,0.0,-5.1222,-5.1092,-5.0981,-5.0908,-5.0775,-5.0702,-5.0693,-5.0643,-5.0614,-5.0606,-5.0554,-5.0521,-5.0521,-5.0586,-5.0615,-5.0612,-5.0682,-5.0712,-5.0712,-5.0712,-5.0712,-5.0712,-5.0712,-5.0712,-5.0712,-5.0712,-5.0712,-5.0683,-5.0623,-5.0593,-5.0678,-5.1354,-5.2206,-5.3168,-5.2637,-5.3316,-5.3555,-5.2913,-5.3335,-5.3775,-5.3775,-5.2747,-5.1995,-5.1995,-5.2711,-5.3185,-5.3185,-5.3185,-5.3185,-5.3185,-5.3185,-5.3185,-5.3185,-5.3185,-5.3206,-5.3227,-5.3227,-5.3175,-5.3049,-5.2279,-5.147,-5.0662,-4.9834,-4.9081,-4.8343,-4.8343,0.0,0.0,0.0,-4.8233,-4.8104,-4.8251,-4.8306,-4.8306,-4.8306,-4.8306,-4.8306,-4.8306,-4.8306,-4.8306,-4.8306,-4.8306,-4.8306,-4.8306,-4.8306,-4.8325,-4.8457,-4.8513,-4.855,-4.8624,-4.8768,-4.8891,-4.9042,-4.9286,-4.9581,-4.9893,-5.0114,-5.0298,-5.0516,-5.0606,-5.0489,-4.9892,-4.9763,-4.9803,-4.9923,-5.0634,-5.123,-5.1301,-5.1322,-5.1311,-5.1311,-5.1311,-5.1311,-5.1327,-5.1313,-5.131,-5.1277,-5.11,-5.097,-5.0916,-5.0775,-5.0702,-5.0693,-5.0702,-5.0683,-5.0693,-5.0673,-5.0663,-5.0663,-5.0683,-5.0683,-5.0673,-5.0683,-5.0712,-5.0712,-5.0712,-5.0712,-5.0712,-5.0712,-5.0712,-5.0712,-5.0712,-5.0712,-5.0683,-5.0623,-5.0572,-5.0519,-5.0554,-5.145,-5.2806,-5.4363,-5.4748,-5.4895,-5.4509,-5.4766,-5.5023,-5.5023,-5.4344,-5.3702,-5.3298,-5.3592,-5.3665,-5.324,-5.3185,-5.3185,-5.3185,-5.3185,-5.3185,-5.3185,-5.3185,-5.3185,-5.3185,-5.3185,-5.3185,-5.3185,-5.2417,-5.161,-5.0802,-4.9996,-4.9132,-4.8306,-4.8306,-4.8306,-4.8306,0.0,-4.8306,-4.8306,-4.8306,-4.8306,-4.8306,-4.8306,-4.8306,-4.8306,-4.8306,-4.8306,-4.8306,-4.8306,-4.8306,-4.8306,-4.8306,-4.8306,-4.8306,-4.8382,-4.84,-4.8401,-4.8439,-4.855,-4.8661,-4.8767,-4.8991,-4.9255,-4.9581,-4.9833,-5.0101,-5.0298,-5.0097,-4.9778,-4.9471,-4.9083,-4.9004,-4.9589,-5.011,-5.0641,-5.1165,-5.1245,-5.1257,-5.1257,-5.1257,-5.1257,-5.1257,-5.1242,-5.1249,-5.1254,-5.115,-5.1063,-5.0971,-5.0861,-5.0766,-5.0712,-5.0702,-5.0712,-5.0712,-5.0712,-5.0712,-5.0712,-5.0712,-5.0712,-5.0712,-5.0712,-5.0712,-5.0712,-5.0712,-5.0712,-5.0712,-5.0712,-5.0712,-5.0712,-5.0712,-5.0673,-5.0633,-5.054,-5.0416,-5.0325,-5.0151,-5.1049,-5.2419,-5.5849,-5.5849,-5.5794,-5.5633,-5.5739,-5.5849,-5.5849,-5.5996,-5.5757,-5.4785,-5.4656,-5.4418,-5.3794,-5.372,-5.372,-5.372,-5.372,-5.3647,-5.3482,-5.3463,-5.339,-5.3203,-5.3185,-5.3185,-5.3185,-5.2582,-5.1867,-5.1059,-5.0233,-4.9407,-4.8563,-4.8398,-4.8306,-4.8306,-4.8306,-4.8306,-4.8306,-4.8306,-4.8306,-4.8306,-4.8306,-4.8306,-4.8306,-4.8306,-4.8306,-4.8306,-4.8306,-4.8306,-4.8306,-4.8306,-4.8306,-4.8306,-4.8306,-4.8306,-4.8306,-4.8306,-4.8382,-4.8476,-4.855,-4.8731,-4.8974,-4.9239,-4.9566,-4.9814,-4.9848,-4.9488,-4.9058,-4.8796,-4.8317,-4.8238,-4.9231,-4.9601,-5.006,-5.0983,-5.1142,-5.1134,-5.1134,-5.1134,-5.1139,-5.1164,-5.1166,-5.1152,-5.1178,-5.1173,-5.1125,-5.1037,-5.0948,-5.0855,-5.072,-5.0712,-5.0702,-5.0712,-5.0712,-5.0712,-5.0712,-5.0712,-5.0712,-5.0712,-5.0712,-5.0712,-5.0712,-5.0712,-5.0712,-5.0712,-5.0712,-5.0712,-5.0712,-5.0712,-5.0653,-5.0593,-5.0457,-5.0302,-5.0139,-4.9939,-5.0799,-5.2061,-5.6693,-5.6693,-5.6455,-5.5721,-5.6198,-5.6693,-5.6693,-5.7317,-5.7207,-5.5684,-5.5504,-5.5467,-5.5372,-5.5372,-5.5372,-5.5372,-5.5372,-5.506,-5.4344,-5.4289,-5.3959,-5.3222,-5.3185,-5.3185,-5.3185,-5.3133,-5.2692,-5.1885,-5.1077,-5.027,-4.9463,-4.8673,-4.8306,-4.8306,-4.8306,-4.8306,-4.8306,-4.8306,-4.8306,-4.8306,-4.8306,-4.8306,-4.8306,-4.8306,-4.8306,-4.8306,-4.8306,-4.8306,-4.8306,-4.8306,-4.8306,-4.8306,-4.8306,-4.8306,-4.8306,-4.8306,-4.8306,-4.8363,-4.8476,-4.8569,-4.8695,-4.8974,-4.9239,-4.9329,-4.8867,-4.8827,-4.8548,-4.723,-4.6982,-4.7317,-4.8263,-4.9084,-4.9904,-5.0786,-5.0929,-5.0937,-5.0937,-5.0937,-5.0952,-5.1007,-5.1015,-5.1042,-5.1101,-5.1108,-5.1101,-5.1095,-5.0966,-5.0877,-5.0793,-5.072,-5.0692,-5.0693,-5.0712,-5.0712,-5.0712,-5.0712,-5.0712,-5.0712,-5.0712,-5.0712,-5.0712,-5.0712,-5.0712,-5.0712,-5.0712,-5.0712,-5.0712,-5.0712,-5.0653,-5.0593,-5.0457,-5.0278,-5.0082,-4.9821,-5.0655,-5.1877,-5.7519,-5.7519,-5.7428,-5.7097,-5.7299,-5.7519,-5.7519,-5.7795,-5.7758,-5.7116,-5.662,-5.6143,-5.5669,-5.5614,-5.5614,-5.5614,-5.5614,-5.5467,-5.5133,-5.5115,-5.4968,-5.4638,-5.4638,-5.4418,-5.394,-5.3922,-5.3298,-5.1995,-5.1665,-5.0857,-4.9592,-4.9243,-4.8802,-4.8306,-4.8306,-4.8306,-4.8306,-4.8306,-4.8306,-4.8306,-4.8306,-4.8306,-4.8306,-4.8306,-4.8306,-4.8306,-4.8306,-4.8306,-4.8306,-4.8306,-4.8306,-4.8306,-4.8306,-4.8306,-4.8306,-4.8306,-4.8306,-4.8306,-4.8363,-4.8457,-4.8587,-4.8713,-4.8957,-4.9033,-4.8478,-4.8172,-4.7722,-4.677,-4.6368,-4.6596,-4.7981,-4.8555,-4.9264,-5.0612,-5.0852,-5.0852,-5.0852,-5.0852,-5.0852,-5.0877,-5.0921,-5.0952,-5.0974,-5.1016,-5.105,-5.1095,-5.1015,-5.0925,-5.0863,-5.0766,-5.0702,-5.0693,-5.0712,-5.0712,-5.0712,-5.0712,-5.0712,-5.0712,-5.0712,-5.0712,-5.0712,-5.0712,-5.0712,-5.0712,-5.0712,-5.0712,-5.0712,-5.0712,-5.0633,-5.0521,-5.0435,-5.0255,-5.0018,-4.9774,-5.0613,-5.1763,-5.7997,-5.7997,-5.7997,-5.7997,-5.7997,-5.7997,-5.7997,-5.7997,-5.7997,-5.7997,-5.7519,-5.695,-5.6363,-5.6312,-5.6312,-5.6312,-5.6312,-5.6198,-5.5959,-5.5941,-5.5849,-5.5614,-5.5614,-5.5317,-5.4766,-5.4528,-5.383,-5.2711,-5.2215,-5.1428,-5.0308,-5.0069,-4.9609,-4.904,-4.904,-4.904,-4.9022,-4.8783,-4.8673,-4.8655,-4.8398,-4.8306,-4.8306,-4.8306,-4.8306,-4.8306,-4.8306,-4.8306,-4.8306,-4.8306,-4.8306,-4.8306,-4.8306,-4.8306,-4.8306,-4.8306,-4.8306,-4.8306,-4.8306,-4.8363,-4.8457,-4.855,-4.8732,-4.8678,-4.7913,-4.749,-4.7075,-4.6334,-4.588,-4.6168,-4.7852,-4.8206,-4.881,-5.0487,-5.0776,-5.0776,-5.0776,-5.0776,-5.0776,-5.0776,-5.0803,-5.0838,-5.0841,-5.0921,-5.0988,-5.1049,-5.1015,-5.0975,-5.0905,-5.0793,-5.0711,-5.0693,-5.0712,-5.0712,-5.0712,-5.0712,-5.0712,-5.0712,-5.0712,-5.0712,-5.0712,-5.0712,-5.0712,-5.0712,-5.0712,-5.0712,-5.0712,-5.0712,-5.0633,-5.0521,-5.0457,-5.0278,-5.0025,-4.9783,-5.0594,-5.1765,-5.7997,-5.7997,-5.7997,-5.7997,-5.7997,-5.7997,-5.7997,-5.7997,-5.7997,-5.7997,-5.7997,-5.7978,-5.796,-5.796,-5.796,-5.796,-5.796,-5.7629,-5.684,-5.6804,-5.6436,-5.5633,-5.5614,-5.5614,-5.5574,-5.4803,-5.4399,-5.4363,-5.2766,-5.1977,-5.194,-5.1151,-5.0784,-5.0765,-5.0765,-5.0765,-5.0729,-4.9903,-4.9592,-4.9519,-4.8655,-4.8306,-4.8306,-4.8306,-4.8306,-4.8306,-4.8306,-4.8306,-4.8306,-4.8306,-4.8306,-4.8306,-4.8306,-4.8306,-4.8306,-4.8306,-4.8306,-4.8306,-4.8306,-4.8306,-4.8325,-4.8457,-4.855,-4.827,-4.6929,-4.6821,-4.6701,-4.563,-4.5448,-4.6032,-4.7788,-4.8105,-4.8663,-5.0423,-5.0693,-5.0693,-5.0693,-5.0693,-5.0693,-5.0693,-5.0693,-5.0693,-5.0701,-5.0829,-5.0897,-5.0898,-5.0963,-5.0971,-5.0898,-5.0844,-5.0776,-5.0693,-5.0712,-5.0712,-5.0712,-5.0712,-5.0712,-5.0712,-5.0712,-5.0712,-5.0712,-5.0712,-5.0712,-5.0712,-5.0712,-5.0712,-5.0712,-5.0712,-5.0653,-5.0593,-5.0521,-5.0371,-5.0163,-4.9809,-5.0632,-5.1832,-5.7997,-5.7997,-5.7997,-5.7997,-5.7997,-5.7997,-5.7997,-5.7997,-5.7997,-5.7997,-5.7997,-5.7997,-5.7997,-5.7997,-5.7997,-5.7997,-5.7997,-5.7886,-5.7629,-5.7611,-5.7501,-5.7244,-5.7226,-5.6969,-5.6436,-5.5629,-5.495,-5.4399,-5.3335,-5.2546,-5.1977,-5.1187,-5.0802,-5.0802,-5.0802,-5.0802,-5.0784,-5.0527,-5.0417,-5.0343,-4.9517,-4.9206,-4.9114,-4.8526,-4.8306,-4.8306,-4.8306,-4.8306,-4.8306,-4.8306,-4.8306,-4.8306,-4.8306,-4.8306,-4.8306,-4.8306,-4.8306,-4.8306,-4.8306,-4.8306,-4.8306,-4.8363,-4.8438,-4.8292,-4.7415,-4.6746,-4.6113,-4.541,-4.5829,-4.6685,-4.7876,-4.8587,-4.9356,-5.0519,-5.0712,-5.0712,-5.0712,-5.0712,-5.0712,-5.0712,-5.0712,-5.0712,-5.0692,-5.0784,-5.0855,-5.0897,-5.0913,-5.0913,-5.0897,-5.0846,-5.0776,-5.0693,-5.0712,-5.0712,-5.0712,-5.0712,-5.0712,-5.0712,-5.0712,-5.0712,-5.0712,-5.0712,-5.0712,-5.0712,-5.0712,-5.0712,-5.0712,-5.0712,-5.0653,-5.0593,-5.0521,-5.0382,-5.0239,-5.0491,-5.1092,-5.1802,-5.8896,-5.8896,-5.8896,-5.8896,-5.8896,-5.8896,-5.8896,-5.8639,-5.8455,-5.8455,-5.8198,-5.7997,-5.7997,-5.7997,-5.7997,-5.7997,-5.7997,-5.7997,-5.7997,-5.7997,-5.7997,-5.7997,-5.7997,-5.7758,-5.7262,-5.6455,-5.5647,-5.484,-5.3739,-5.2949,-5.2435,-5.194,-5.1701,-5.1701,-5.1701,-5.1701,-5.1683,-5.1371,-5.1242,-5.1169,-5.0362,-4.9867,-4.9537,-4.8985,-4.86,-4.8306,-4.8306,-4.8306,-4.8306,-4.8306,-4.8306,-4.8306,-4.8306,-4.8306,-4.8306,-4.8306,-4.8306,-4.8306,-4.8306,-4.8306,-4.8306,-4.8306,-4.8363,-4.8273,-4.7677,-4.6894,-4.6248,-4.6064,-4.6593,-4.7373,-4.8375,-4.901,-4.9683,-5.0558,-5.0712,-5.0712,-5.0712,-5.0712,-5.0712,-5.0712,-5.0712,-5.0702,-5.0692,-5.0739,-5.0784,-5.0829,-5.0846,-5.0846,-5.0829,-5.0784,-5.073,-5.0693,-5.0712,-5.0712,-5.0712,-5.0712,-5.0712,-5.0712,-5.0712,-5.0712,-5.0712,-5.0712,-5.0712,-5.0712,-5.0712,-5.0712,-5.0712,-5.0712,-5.0682,-5.0623,-5.0553,-5.0404,-5.0302,-5.0854,-5.1333,-5.1769,-6.0401,-6.0401,-6.0401,-6.0401,-6.0401,-6.0401,-6.0401,-5.9753,-5.9276,-5.9276,-5.8639,-5.8143,-5.8088,-5.807,-5.8052,-5.7997,-5.7997,-5.7997,-5.7997,-5.7997,-5.7997,-5.7997,-5.7997,-5.7997,-5.7997,-5.7207,-5.6381,-5.5522,-5.4014,-5.324,-5.3185,-5.3185,-5.3185,-5.3185,-5.3185,-5.3185,-5.3148,-5.2399,-5.2068,-5.1995,-5.1206,-5.0417,-4.9757,-4.9702,-4.9169,-4.8471,-4.8471,-4.8471,-4.8471,-4.8471,-4.8453,-4.8398,-4.8398,-4.8361,-4.8306,-4.8306,-4.8306,-4.8306,-4.8306,-4.8306,-4.8306,-4.8306,-4.8306,-4.818,-4.7694,-4.7215,-4.6978,-4.7301,-4.7569,-4.807,-4.9093,-4.9384,-4.976,-5.0577,-5.0712,-5.0712,-5.0712,-5.0712,-5.0712,-5.0712,-5.0712,-5.0712,-5.0712,-5.0712,-5.0692,-5.0692,-5.0757,-5.0766,-5.0701,-5.0692,-5.0692,-5.0693,-5.0712,-5.0712,-5.0712,-5.0712,-5.0712,-5.0712,-5.0712,-5.0712,-5.0712,-5.0712,-5.0712,-5.0712,-5.0712,-5.0712,-5.0712,-5.0712,-5.0702,-5.0692,-5.0613,-5.0495,-5.0434,-5.0952,-5.1424,-5.1828,-6.0401,-6.0401,-6.0401,-6.0401,-6.0401,-6.0401,-6.0401,-6.0254,-6.0126,-6.0126,-5.996,-5.9612,-5.8988,-5.8933,-5.8676,-5.8052,-5.7997,-5.7997,-5.7997,-5.7997,-5.7997,-5.7997,-5.7997,-5.7997,-5.7997,-5.7207,-5.6106,-5.4675,-5.4308,-5.3812,-5.3185,-5.3185,-5.3185,-5.3185,-5.3185,-5.3185,-5.3206,-5.3004,-5.2931,-5.2858,-5.2032,-5.1591,-5.1373,-5.0747,-5.0398,-5.0215,-5.0215,-5.0215,-5.0215,-5.0215,-4.9793,-4.9279,-4.9279,-4.8838,-4.8306,-4.8306,-4.8306,-4.8306,-4.8306,-4.8306,-4.8306,-4.8306,-4.8382,-4.8273,-4.759,-4.7517,-4.7473,-4.716,-4.7819,-4.8603,-4.9073,-4.9784,-5.0403,-5.0664,-5.0712,-5.0712,-5.0712,-5.0712,-5.0712,-5.0712,-5.0712,-5.0712,-5.0712,-5.0702,-5.0702,-5.0702,-5.0721,-5.0721,-5.0702,-5.0702,-5.0702,-5.0712,-5.0712,-5.0712,-5.0712,-5.0712,-5.0712,-5.0712,-5.0712,-5.0712,-5.0712,-5.0712,-5.0712,-5.0712,-5.0712,-5.0712,-5.0712,-5.0712,-5.0673,-5.0622,-5.0489,-5.066,-5.1044,-5.1469,-5.1932,-5.2382,-6.1502,-6.1502,-6.1502,-6.1502,-6.1502,-6.1502,-6.1502,-6.119,-6.0951,-6.0951,-6.0639,-6.0236,-5.9813,-5.9404,-5.9019,-5.8602,-5.8217,-5.7997,-5.7997,-5.7997,-5.7997,-5.7997,-5.7997,-5.7997,-5.7997,-5.7574,-5.6748,-5.55,-5.4766,-5.4179,-5.3739,-5.3369,-5.3185,-5.3185,-5.3185,-5.3185,-5.3185,-5.3185,-5.3185,-5.317,-5.2729,-5.2325,-5.194,-5.1499,-5.1114,-5.0802,-5.0802,-5.0802,-5.0802,-5.0802,-5.0508,-5.0068,-4.9721,-4.928,-4.882,-4.8416,-4.8306,-4.8306,-4.8306,-4.8306,-4.8306,-4.8306,-4.8363,-4.8309,-4.7979,-4.8085,-4.8228,-4.8096,-4.8673,-4.9284,-4.9595,-5.0163,-5.0623,-5.0702,-5.0712,-5.0712,-5.0712,-5.0712,-5.0712,-5.0712,-5.0712,-5.0712,-5.0712,-5.0712,-5.0712,-5.0712,-5.0712,-5.0712,-5.0712,-5.0712,-5.0712,-5.0712,-5.0712,-5.0712,-5.0712,-5.0712,-5.0712,-5.0712,-5.0712,-5.0712,-5.0712,-5.0712,-5.0712,-5.0712,-5.0712,-5.0712,-5.0712,-5.0712,-5.0653,-5.0628,-5.0856,-5.1039,-5.1304,-5.2143,-5.2481,-5.2642,-6.278,-6.278,-6.278,-6.278,-6.278,-6.278,-6.278,-6.2218,-6.1777,-6.1777,-6.119,-6.0731,-6.0603,-5.9979,-5.9459,-5.9221,-5.8584,-5.8125,-5.7997,-5.7997,-5.7997,-5.7997,-5.7997,-5.7997,-5.7997,-5.7997,-5.7611,-5.6804,-5.5427,-5.4638,-5.4399,-5.3702,-5.3314,-5.3185,-5.3185,-5.3185,-5.3185,-5.3185,-5.3185,-5.3185,-5.3185,-5.2803,-5.2179,-5.2179,-5.1756,-5.1169,-5.1169,-5.1169,-5.1169,-5.1169,-5.1077,-5.0857,-5.0198,-4.9886,-4.961,-4.8746,-4.8508,-4.8471,-4.8343,-4.8306,-4.8306,-4.8306,-4.8306,-4.8325,-4.8438,-4.8624,-4.8857,-4.9195,-4.951,-4.9863,-5.0212,-5.0446,-5.0603,-5.0692,-5.0712,-5.0712,-5.0712,-5.0712,-5.0712,-5.0712,-5.0712,-5.0712,-5.0712,-5.0712,-5.0712,-5.0712,-5.0712,-5.0712,-5.0712,-5.0712,-5.0712,-5.0712,-5.0712,-5.0712,-5.0712,-5.0712,-5.0712,-5.0712,-5.0712,-5.0712,-5.0712,-5.0712,-5.0712,-5.0712,-5.0712,-5.0712,-5.0712,-5.0712,-5.0739,-5.0815,-5.1381,-5.1592,-5.1702,-5.2808,-5.3036,-5.2846,-6.278,-6.278,-6.278,-6.278,-6.278,-6.278,-6.278,-6.267,-6.2622,-6.2622,-6.253,-6.2181,-6.1484,-6.13,-6.0676,-5.9313,-5.9074,-5.8731,-5.8033,-5.7997,-5.7997,-5.7997,-5.7997,-5.7997,-5.7997,-5.7997,-5.7611,-5.6804,-5.6565,-5.5739,-5.4399,-5.4271,-5.3849,-5.3185,-5.3185,-5.3185,-5.3185,-5.3185,-5.3185,-5.3185,-5.3185,-5.3133,-5.3023,-5.3023,-5.2949,-5.2839,-5.2839,-5.2839,-5.2839,-5.2839,-5.238,-5.1775,-5.1665,-5.1151,-5.0453,-4.9647,-4.9408,-4.9243,-4.8508,-4.8306,-4.8306,-4.8306,-4.8306,-4.8306,-4.8343,-4.8438,-4.8642,-4.8976,-4.927,-4.9621,-5.0126,-5.0325,-5.0489,-5.0663,-5.0712,-5.0712,-5.0712,-5.0712,-5.0712,-5.0712,-5.0712,-5.0712,-5.0712,-5.0712,-5.0712,-5.0712,-5.0712,-5.0712,-5.0712,-5.0712,-5.0712,-5.0712,-5.0712,-5.0712,-5.0712,-5.0712,-5.0712,-5.0712,-5.0712,-5.0712,-5.0712,-5.0712,-5.0712,-5.0712,-5.0712,-5.0712,-5.0712,-5.0712,-5.1034,-5.1534,-5.158,-5.2272,-5.3223,-5.3211,-5.3408,-5.3684,-6.278,-6.278,-6.278,-6.278,-6.278,-6.278,-6.278,-6.278,-6.278,-6.278,-6.278,-6.2677,-6.2291,-6.1851,-6.13,-6.0566,-6.0107,-5.952,-5.8712,-5.8235,-5.7997,-5.7997,-5.7997,-5.7997,-5.7997,-5.7997,-5.7813,-5.7446,-5.7024,-5.6436,-5.5684,-5.4803,-5.4197,-5.383,-5.339,-5.3185,-5.3185,-5.3185,-5.3185,-5.3185,-5.3185,-5.3185,-5.3185,-5.3185,-5.3185,-5.3185,-5.3185,-5.3185,-5.3185,-5.3185,-5.2968,-5.2564,-5.2142,-5.1738,-5.1279,-5.0472,-4.9609,-4.8802,-4.8416,-4.8306,-4.8306,-4.8306,-4.8306,-4.8306,-4.8306,-4.8401,-4.8569,-4.8839,-4.916,-4.9518,-4.9903,-5.0169,-5.0412,-5.0582,-5.0584,-5.0594,-5.0633,-5.0643,-5.0653,-5.0702,-5.0712,-5.0712,-5.0712,-5.0712,-5.0712,-5.0712,-5.0712,-5.0712,-5.0712,-5.0712,-5.0712,-5.0712,-5.0712,-5.0712,-5.0712,-5.0712,-5.0712,-5.0712,-5.0712,-5.0712,-5.0712,-5.0712,-5.0712,-5.0712,-5.0712,-5.0952,-5.1353,-5.1345,-5.1774,-5.2491,-5.2901,-5.3346,-5.3774,-5.3951,-5.4029,-5.4017,-6.278,-6.278,-6.278,-6.278,-6.278,-6.278,-6.278,-6.278,-6.278,-6.278,-6.278,-6.278,-6.278,-6.2254,-6.1796,-6.1612,-6.1043,-6.0346,-5.9515,-5.8731,-5.8198,-5.7997,-5.7997,-5.7997,-5.7997,-5.7997,-5.7997,-5.7997,-5.7373,-5.6987,-5.6785,-5.5537,-5.4858,-5.4638,-5.4032,-5.3775,-5.3757,-5.3573,-5.3482,-5.3463,-5.3277,-5.3185,-5.3185,-5.3185,-5.3185,-5.3185,-5.3185,-5.3185,-5.3185,-5.3185,-5.3185,-5.3075,-5.2472,-5.227,-5.2123,-5.1316,-5.005,-4.8802,-4.8416,-4.8306,-4.8306,-4.8306,-4.8306,-4.8306,-4.8306,-4.8382,-4.8513,-4.8751,-4.9061,-4.9393,-4.9721,-5.0025,-5.0302,-5.0438,-5.0489,-5.0521,-5.0593,-5.0603,-5.0623,-5.0683,-5.0712,-5.0712,-5.0712,-5.0712,-5.0712,-5.0712,-5.0712,-5.0712,-5.0712,-5.0712,-5.0712,-5.0712,-5.0712,-5.0712,-5.0712,-5.0712,-5.0712,-5.0712,-5.0712,-5.0712,-5.0712,-5.0712,-5.0712,-5.0712,-5.0904,-5.1325,-5.1928,-5.2113,-5.2658,-5.3437,-5.4066,-5.4261,-5.4221,-5.4617,-5.4533,-5.4179,-6.278,-6.278,-6.278,-6.278,-6.278,-6.278,-6.278,-6.278,-6.278,-6.278,-6.278,-6.278,-6.278,-6.2743,-6.242,-6.1667,-6.1539,-6.1172,-6.0364,-5.9575,-5.8786,-5.8033,-5.7997,-5.7997,-5.7997,-5.7997,-5.7997,-5.7997,-5.7941,-5.7538,-5.6804,-5.6693,-5.6235,-5.55,-5.5445,-5.5409,-5.5354,-5.4638,-5.4308,-5.4252,-5.35,-5.3185,-5.3185,-5.3185,-5.3185,-5.3185,-5.3185,-5.3185,-5.3185,-5.3185,-5.3185,-5.3185,-5.3133,-5.3115,-5.2968,-5.2142,-5.1298,-5.0288,-4.8728,-4.8306,-4.8306,-4.8306,-4.8306,-4.8306,-4.8306,-4.8306,-4.842,-4.8733,-4.8907,-4.9171,-4.9627,-4.994,-5.0182,-5.0379,-5.0468,-5.0521,-5.0593,-5.0603,-5.0623,-5.0683,-5.0712,-5.0712,-5.0712,-5.0712,-5.0712,-5.0712,-5.0712,-5.0712,-5.0712,-5.0712,-5.0712,-5.0712,-5.0712,-5.0712,-5.0712,-5.0712,-5.0712,-5.0712,-5.0712,-5.0712,-5.0712,-5.0712,-5.0712,-5.0741,-5.1497,-5.1842,-5.1951,-5.2778,-5.3541,-5.4219,-5.4285,-5.46,-5.5004,-5.4922,-5.4667,-5.4321,-6.278,-6.278,-6.278,-6.278,-6.278,-6.278,-6.278,-6.278,-6.278,-6.278,-6.278,-6.278,-6.278,-6.278,-6.2695,-6.2383,-6.2346,-6.1998,-6.119,-6.086,-5.9887,-5.807,-5.7997,-5.7997,-5.7997,-5.7997,-5.7997,-5.7997,-5.7997,-5.7831,-5.7538,-5.7042,-5.6638,-5.6326,-5.5812,-5.5614,-5.5596,-5.5262,-5.5133,-5.506,-5.4271,-5.394,-5.3904,-5.339,-5.3185,-5.3185,-5.3185,-5.3185,-5.3185,-5.3185,-5.3185,-5.3185,-5.3185,-5.3185,-5.3041,-5.2234,-5.1775,-5.1298,-5.016,-4.9481,-4.8967,-4.8434,-4.8306,-4.8306,-4.8306,-4.8306,-4.8344,-4.8569,-4.8786,-4.9025,-4.9396,-4.9712,-4.9978,-5.0182,-5.0278,-5.0371,-5.0511,-5.0532,-5.0582,-5.0702,-5.0712,-5.0712,-5.0712,-5.0712,-5.0712,-5.0712,-5.0712,-5.0712,-5.0712,-5.0712,-5.0712,-5.0712,-5.0712,-5.0712,-5.0712,-5.0712,-5.0712,-5.0712,-5.0712,-5.0712,-5.0721,-5.1165,-5.1392,-5.1414,-5.2189,-5.2824,-5.3341,-5.3637,-5.4217,-5.4912,-5.4874,-5.4936,-5.5009,-5.4788,-5.4484,-5.4125,-6.278,-6.278,-6.278,-6.278,-6.278,-6.278,-6.278,-6.278,-6.278,-6.278,-6.278,-6.278,-6.278,-6.278,-6.278,-6.278,-6.278,-6.2585,-6.2016,-6.1741,-6.0639,-5.8474,-5.8125,-5.7997,-5.7997,-5.7997,-5.7997,-5.7997,-5.7997,-5.7997,-5.7997,-5.7446,-5.7189,-5.7152,-5.6602,-5.6345,-5.6326,-5.6069,-5.5978,-5.5904,-5.5097,-5.4785,-5.4693,-5.3885,-5.3592,-5.3555,-5.3277,-5.3185,-5.3185,-5.3185,-5.3185,-5.3185,-5.3185,-5.3185,-5.3096,-5.2546,-5.238,-5.2197,-5.1389,-5.0765,-5.0088,-4.8985,-4.8508,-4.8306,-4.8306,-4.8306,-4.8343,-4.8457,-4.8697,-4.8943,-4.9228,-4.9555,-4.9876,-5.007,-5.0194,-5.0325,-5.0511,-5.0532,-5.0563,-5.0702,-5.0712,-5.0712,-5.0712,-5.0712,-5.0712,-5.0712,-5.0712,-5.0712,-5.0712,-5.0712,-5.0712,-5.0712,-5.0712,-5.0712,-5.0712,-5.0712,-5.0712,-5.0712,-5.0712,-5.0827,-5.1085,-5.157,-5.1941,-5.2215,-5.2926,-5.3569,-5.4123,-5.4329,-5.4697,-5.5143,-5.5083,-5.4943,-5.4754,-5.4549,-5.4246,-5.3907,-6.278,-6.278,-6.278,-6.278,-6.278,-6.278,-6.278,-6.278,-6.278,-6.278,-6.278,-6.278,-6.278,-6.278,-6.278,-6.278,-6.278,-6.278,-6.278,-6.2053,-6.0896,-5.9276,-5.8437,-5.7997,-5.7997,-5.7997,-5.7997,-5.7997,-5.7997,-5.7997,-5.7997,-5.7997,-5.7997,-5.7997,-5.7997,-5.7997,-5.7941,-5.7152,-5.6822,-5.6748,-5.5923,-5.5614,-5.5522,-5.4711,-5.4418,-5.4308,-5.3518,-5.3203,-5.3203,-5.3203,-5.3203,-5.3185,-5.3185,-5.3185,-5.3185,-5.3185,-5.3185,-5.3041,-5.2215,-5.1995,-5.161,-4.9996,-4.8948,-4.8324,-4.8306,-4.8306,-4.8343,-4.8457,-4.8661,-4.8875,-4.9164,-4.9525,-4.9857,-5.007,-5.0267,-5.0446,-5.0582,-5.0603,-5.0623,-5.0683,-5.0712,-5.0712,-5.0712,-5.0712,-5.0712,-5.0712,-5.0712,-5.0712,-5.0712,-5.0712,-5.0712,-5.0712,-5.0712,-5.0712,-5.0712,-5.0712,-5.0712,-5.0712,-5.0712,-5.1134,-5.1905,-5.1851,-5.2253,-5.3042,-5.3702,-5.3973,-5.3956,-5.476,-5.4976,-5.4791,-5.4791,-5.4591,-5.4298,-5.4213,-5.4036,-5.3774,-6.278,-6.278,-6.278,-6.278,-6.278,-6.278,-6.278,-6.278,-6.278,-6.278,-6.278,-6.278,-6.278,-6.278,-6.278,-6.278,-6.278,-6.278,-6.278,-6.2053,-6.1392,-6.0896,-5.9575,-5.8859,-5.8859,-5.829,-5.7997,-5.7997,-5.7997,-5.7997,-5.7997,-5.7997,-5.7997,-5.7997,-5.7997,-5.7997,-5.7978,-5.774,-5.7648,-5.7574,-5.6767,-5.6436,-5.6345,-5.5537,-5.5225,-5.5207,-5.4968,-5.4528,-5.4051,-5.4051,-5.3683,-5.3185,-5.3185,-5.3185,-5.3185,-5.3185,-5.3185,-5.3148,-5.2913,-5.2435,-5.161,-4.9996,-4.9408,-4.904,-4.8434,-4.8306,-4.8306,-4.8363,-4.8494,-4.8661,-4.8875,-4.9211,-4.9555,-4.9843,-5.0108,-5.0325,-5.05,-5.0572,-5.0623,-5.0683,-5.0712,-5.0712,-5.0712,-5.0712,-5.0712,-5.0712,-5.0712,-5.0712,-5.0712,-5.0712,-5.0693,-5.0625,-5.0625,-5.0567,-5.0491,-5.0625,-5.0991,-5.1539,-5.1539,-5.1961,-5.2754,-5.3263,-5.3505,-5.36,-5.4172,-5.4333,-5.4185,-5.4301,-5.4276,-5.4225,-5.4193,-5.4071,-5.3944,-5.3833,-5.3641,-5.344,-6.278,-6.278,-6.278,-6.278,-6.278,-6.278,-6.278,-6.278,-6.278,-6.278,-6.278,-6.278,-6.278,-6.278,-6.278,-6.278,-6.278,-6.278,-6.278,-6.2346,-6.2071,-6.2071,-6.0841,-5.9869,-5.9203,-5.8731,-5.8327,-5.7997,-5.7997,-5.7997,-5.7997,-5.7997,-5.7997,-5.7997,-5.7997,-5.7997,-5.7997,-5.7997,-5.7997,-5.796,-5.7464,-5.7281,-5.7189,-5.6381,-5.6069,-5.6033,-5.5702,-5.528,-5.4858,-5.4858,-5.4344,-5.3683,-5.3683,-5.3463,-5.3185,-5.3185,-5.3185,-5.3185,-5.3185,-5.2839,-5.216,-5.0877,-5.0326,-4.9848,-4.9003,-4.8802,-4.8728,-4.8379,-4.8419,-4.8569,-4.8751,-4.9079,-4.9399,-4.9712,-5.0012,-5.0248,-5.0446,-5.0532,-5.0613,-5.0673,-5.0673,-5.0712,-5.0712,-5.0712,-5.0712,-5.0712,-5.0712,-5.0693,-5.0673,-5.0673,-5.0606,-5.051,-5.0805,-5.0898,-5.0802,-5.1207,-5.151,-5.1761,-5.2097,-5.2686,-5.3501,-5.3861,-5.4087,-5.4207,-5.4399,-5.4382,-5.4213,-5.3999,-5.3889,-5.3851,-5.3795,-5.3699,-5.36,-5.3522,-5.3381,-5.3254,-6.278,-6.278,-6.278,-6.278,-6.278,-6.278,-6.278,-6.278,-6.278,-6.278,-6.278,-6.278,-6.278,-6.278,-6.278,-6.278,-6.278,-6.278,-6.278,-6.278,-6.278,-6.278,-6.2108,-6.0988,-5.9441,-5.9331,-5.8914,-5.8107,-5.8107,-5.807,-5.7997,-5.7997,-5.7997,-5.7997,-5.7997,-5.7997,-5.7997,-5.7997,-5.7997,-5.7997,-5.7997,-5.7997,-5.7923,-5.7189,-5.6914,-5.6822,-5.6069,-5.5757,-5.5684,-5.5611,-5.5097,-5.4509,-5.4509,-5.4014,-5.3387,-5.3335,-5.3295,-5.3277,-5.3203,-5.3185,-5.3023,-5.2289,-5.1555,-5.0784,-4.9922,-4.9721,-4.9462,-4.8691,-4.8566,-4.8661,-4.8844,-4.9083,-4.9352,-4.9598,-4.9935,-5.02,-5.0337,-5.0478,-5.0582,-5.0582,-5.0643,-5.0673,-5.0683,-5.0702,-5.0712,-5.0693,-5.0693,-5.0673,-5.0587,-5.0635,-5.0625,-5.048,-5.1193,-5.1535,-5.1453,-5.2178,-5.2279,-5.1708,-5.2497,-5.3348,-5.4166,-5.3964,-5.4186,-5.4716,-5.4397,-5.4178,-5.4,-5.3813,-5.366,-5.3545,-5.3545,-5.3444,-5.3297,-5.3297,-5.3254,-5.3185,-6.278,-6.278,-6.278,-6.278,-6.278,-6.278,-6.278,-6.278,-6.278,-6.278,-6.278,-6.278,-6.278,-6.278,-6.278,-6.278,-6.278,-6.278,-6.278,-6.278,-6.278,-6.278,-6.264,-6.2089,-6.1098,-6.0456,-5.9758,-5.8927,-5.8927,-5.8621,-5.7997,-5.7997,-5.7997,-5.7997,-5.7997,-5.7997,-5.7997,-5.7997,-5.7997,-5.7997,-5.7997,-5.7997,-5.7978,-5.7813,-5.774,-5.7721,-5.7538,-5.706,-5.6436,-5.5794,-5.5464,-5.5335,-5.5335,-5.5207,-5.495,-5.4326,-5.4142,-5.4014,-5.3369,-5.3185,-5.317,-5.2986,-5.2821,-5.2307,-5.0875,-5.0545,-5.049,-5.0306,-4.9776,-4.9393,-4.949,-4.9212,-4.9025,-4.9198,-4.9569,-4.9868,-5.005,-5.0255,-5.0371,-5.0435,-5.05,-5.0553,-5.0613,-5.0663,-5.0693,-5.0625,-5.0606,-5.0567,-5.0452,-5.0982,-5.122,-5.1036,-5.1741,-5.199,-5.173,-5.2549,-5.307,-5.3289,-5.35,-5.3968,-5.4639,-5.4554,-5.4368,-5.4174,-5.3981,-5.3737,-5.3462,-5.3357,-5.3314,-5.3293,-5.3293,-5.3251,-5.3209,-5.3209,-5.3206,-5.3185,-6.278,-6.278,-6.278,-6.278,-6.278,-6.278,-6.278,-6.278,-6.278,-6.278,-6.278,-6.278,-6.278,-6.278,-6.278,-6.278,-6.278,-6.278,-6.278,-6.278,-6.278,-6.278,-6.278,-6.2603,-6.2181,-6.1759,-6.097,-5.9777,-5.9777,-5.9373,-5.8584,-5.8584,-5.8364,-5.7997,-5.7997,-5.7997,-5.7997,-5.7997,-5.7997,-5.7997,-5.7997,-5.7997,-5.7997,-5.7997,-5.7997,-5.7997,-5.7997,-5.7721,-5.7317,-5.6877,-5.6492,-5.6161,-5.6161,-5.5904,-5.5522,-5.5097,-5.4968,-5.4803,-5.3995,-5.3775,-5.3683,-5.3316,-5.3185,-5.2873,-5.1646,-5.1371,-5.1261,-5.0875,-5.0472,-5.0199,-5.0261,-5.0064,-4.9952,-5.0129,-5.0429,-5.0711,-5.0931,-5.1123,-5.1142,-5.086,-5.0898,-5.0821,-5.0527,-5.0885,-5.1106,-5.1087,-5.1411,-5.1521,-5.1367,-5.1682,-5.175,-5.1486,-5.2194,-5.2467,-5.2236,-5.3044,-5.3566,-5.3813,-5.3868,-5.4071,-5.4421,-5.4352,-5.4168,-5.3907,-5.3737,-5.3521,-5.3279,-5.323,-5.3185,-5.3185,-5.3185,-5.3185,-5.3185,-5.3185,-5.3185,-5.3185,-6.278,-6.278,-6.278,-6.278,-6.278,-6.278,-6.278,-6.278,-6.278,-6.278,-6.278,-6.278,-6.278,-6.278,-6.278,-6.278,-6.278,-6.278,-6.278,-6.278,-6.278,-6.278,-6.278,-6.278,-6.278,-6.278,-6.2089,-6.0621,-6.0621,-6.0199,-5.9386,-5.9258,-5.8859,-5.8198,-5.8052,-5.7997,-5.7997,-5.7997,-5.7997,-5.7997,-5.7997,-5.7997,-5.7997,-5.7997,-5.7997,-5.7997,-5.7997,-5.7997,-5.7997,-5.7997,-5.7556,-5.7024,-5.7024,-5.6547,-5.6,-5.5849,-5.5794,-5.5629,-5.4821,-5.4601,-5.4418,-5.361,-5.3427,-5.3188,-5.238,-5.2197,-5.2013,-5.1353,-5.1096,-5.1024,-5.1086,-5.1019,-5.1044,-5.1213,-5.1449,-5.1673,-5.1893,-5.2092,-5.1997,-5.1481,-5.1491,-5.1331,-5.0786,-5.1366,-5.1741,-5.1715,-5.2288,-5.2532,-5.2317,-5.2365,-5.2262,-5.1924,-5.263,-5.2944,-5.2794,-5.3414,-5.3725,-5.3707,-5.3806,-5.3904,-5.3923,-5.3882,-5.3807,-5.3716,-5.3541,-5.3418,-5.3277,-5.3209,-5.3185,-5.3185,-5.3185,-5.3185,-5.3185,-5.3185,-5.3185,-5.3185,-6.278,-6.278,-6.278,-6.278,-6.278,-6.278,-6.278,-6.278,-6.278,-6.278,-6.278,-6.278,-6.278,-6.278,-6.278,-6.278,-6.278,-6.278,-6.278,-6.278,-6.278,-6.278,-6.278,-6.278,-6.278,-6.278,-6.2365,-6.1429,-6.1429,-6.1025,-6.0236,-5.9515,-5.9129,-5.9001,-5.8309,-5.7997,-5.7997,-5.7997,-5.7997,-5.7997,-5.7997,-5.7997,-5.7997,-5.7997,-5.7997,-5.7997,-5.7997,-5.7997,-5.7997,-5.7997,-5.7923,-5.7831,-5.7831,-5.7758,-5.7538,-5.684,-5.6638,-5.6455,-5.5647,-5.5427,-5.5225,-5.4436,-5.4234,-5.4032,-5.3225,-5.3041,-5.3023,-5.2892,-5.2325,-5.185,-5.185,-5.1343,-5.0906,-5.0964,-5.1138,-5.1342,-5.154,-5.1682,-5.1823,-5.1901,-5.2072,-5.2176,-5.2127,-5.2286,-5.2324,-5.2215,-5.23,-5.2209,-5.1893,-5.2486,-5.2698,-5.2419,-5.3101,-5.3411,-5.3225,-5.333,-5.335,-5.3288,-5.3288,-5.3437,-5.366,-5.364,-5.3522,-5.338,-5.3339,-5.3295,-5.3206,-5.3206,-5.3185,-5.3185,-5.3185,-5.3185,-5.3185,-5.3185,-5.3185,-5.3185,-6.278,-6.278,-6.278,-6.278,-6.278,-6.278,-6.278,-6.278,-6.278,-6.278,-6.278,-6.278,-6.278,-6.278,-6.278,-6.278,-6.278,-6.278,-6.278,-6.278,-6.278,-6.278,-6.278,-6.278,-6.278,-6.278,-6.264,-6.2273,-6.2273,-6.1869,-6.1062,-6.0713,-6.0309,-5.9869,-5.9501,-5.9098,-5.8676,-5.8676,-5.8419,-5.7997,-5.7997,-5.7997,-5.7997,-5.7997,-5.7997,-5.7997,-5.7997,-5.7997,-5.7997,-5.7997,-5.7997,-5.7997,-5.7997,-5.7997,-5.7923,-5.7574,-5.7464,-5.7299,-5.6492,-5.6271,-5.6088,-5.5262,-5.506,-5.4858,-5.4051,-5.3867,-5.3739,-5.3277,-5.2931,-5.2674,-5.2674,-5.2401,-5.2185,-5.2185,-5.2289,-5.2429,-5.2584,-5.2698,-5.2685,-5.2465,-5.2182,-5.205,-5.2162,-5.258,-5.2802,-5.2755,-5.3026,-5.3116,-5.2938,-5.3157,-5.3179,-5.2956,-5.3254,-5.3353,-5.3261,-5.3248,-5.323,-5.3185,-5.3185,-5.3251,-5.3378,-5.3378,-5.3336,-5.3233,-5.3233,-5.323,-5.3185,-5.3185,-5.3185,-5.3185,-5.3185,-5.3185,-5.3185,-5.3185,-5.3185,-5.3185]},{"header":{"parameterUnit":"m.s-1","parameterCategory":1,"la1":30.6,"la2":28.766,"lo1":-90.7593,"lo2":-88.6598,"dy":0.0162,"dx":0.0183,"nx":116,"ny":114,"refTime":"2024-07-04T06:00:00:Z","depth":0,"parameterNumber":3,"parameterNumberName":"V-component_of_WINDS"},"data":[0.0,0.0,0.0,0.0,0.0,0.0,0.0,0.0,0.0,0.0,0.0,0.0,0.0,0.0,0.0,0.0,0.0,0.0,0.0,0.0,0.0,0.0,0.0,0.0,0.0,0.0,0.0,0.0,0.0,0.0,0.0,0.0,0.0,0.0,0.0,0.0,0.0,0.0,0.0,0.0,0.0,0.0,0.0,0.0,0.0,0.0,0.0,0.0,0.0,0.0,0.0,0.0,0.0,0.0,0.0,0.0,0.0,0.0,0.0,0.0,0.0,0.0,0.0,0.0,0.0,0.0,0.0,0.0,0.0,0.0,0.0,0.0,0.0,0.0,0.0,0.0,0.0,0.0,0.0,0.0,0.0,0.0,0.0,0.0,0.0,0.0,0.0,0.0,0.0,0.0,0.0,0.0,0.0,0.0,0.0,0.0,0.0,0.0,0.0,0.0,0.0,0.0,0.0,0.0,0.0,0.0,0.0,0.0,0.0,0.0,0.0,0.0,0.0,0.0,0.0,0.0,0.0,0.0,0.0,0.0,0.0,0.0,0.0,0.0,0.0,0.0,0.0,0.0,0.0,0.0,0.0,0.0,0.0,0.0,0.0,0.0,0.0,0.0,0.0,0.0,0.0,0.0,0.0,0.0,0.0,0.0,0.0,0.0,0.0,0.0,0.0,0.0,0.0,0.0,0.0,0.0,0.0,0.0,0.0,0.0,0.0,0.0,0.0,0.0,0.0,0.0,0.0,0.0,0.0,0.0,0.0,0.0,0.0,0.0,0.0,0.0,0.0,0.0,0.0,0.0,0.0,0.0,0.0,0.0,0.0,0.0,0.0,0.0,0.0,0.0,0.0,0.0,0.0,0.0,0.0,0.0,0.0,0.0,0.0,0.0,0.0,0.0,0.0,0.0,0.0,0.0,0.0,0.0,0.0,0.0,0.0,0.0,0.0,0.0,0.0,0.0,0.0,0.0,0.0,0.0,0.0,0.0,0.0,0.0,0.0,0.0,0.0,0.0,0.0,0.0,0.0,0.0,0.0,0.0,0.0,0.0,0.0,0.0,0.0,0.0,0.0,0.0,0.0,0.0,0.0,0.0,0.0,0.0,0.0,0.0,0.0,0.0,0.0,0.0,0.0,0.0,0.0,0.0,0.0,0.0,0.0,0.0,0.0,0.0,0.0,0.0,0.0,0.0,0.0,0.0,0.0,0.0,0.0,0.0,0.0,0.0,0.0,0.0,0.0,0.0,0.0,0.0,0.0,0.0,0.0,0.0,0.0,0.0,0.0,0.0,0.0,0.0,0.0,0.0,0.0,0.0,0.0,0.0,0.0,0.0,0.0,0.0,0.0,0.0,0.0,0.0,0.0,0.0,0.0,0.0,0.0,0.0,0.0,0.0,0.0,0.0,0.0,0.0,0.0,0.0,0.0,0.0,0.0,0.0,0.0,0.0,0.0,0.0,0.0,0.0,0.0,0.0,0.0,0.0,0.0,0.0,0.0,0.0,0.0,0.0,0.0,0.0,0.0,0.0,0.0,0.0,0.0,0.0,0.0,0.0,0.0,0.0,0.0,0.0,0.0,0.0,0.0,0.0,0.0,0.0,0.0,0.0,0.0,0.0,0.0,0.0,0.0,0.0,0.0,0.0,0.0,0.0,0.0,0.0,0.0,0.0,0.0,0.0,0.0,0.0,0.0,0.0,0.0,0.0,0.0,0.0,0.0,0.0,0.0,0.0,0.0,0.0,0.0,0.0,0.0,0.0,0.0,0.0,0.0,0.0,0.0,0.0,0.0,0.0,0.0,0.0,0.0,0.0,0.0,0.0,0.0,0.0,0.0,0.0,0.0,0.0,0.0,0.0,0.0,0.0,0.0,0.0,0.0,0.0,0.0,0.0,0.0,0.0,0.0,0.0,0.0,0.0,0.0,0.0,0.0,0.0,0.0,0.0,0.0,0.0,0.0,0.0,0.0,0.0,0.0,0.0,0.0,0.0,0.0,0.0,0.0,0.0,0.0,0.0,0.0,0.0,0.0,0.0,0.0,0.0,0.0,0.0,0.0,0.0,0.0,0.0,0.0,0.0,0.0,0.0,0.0,0.0,0.0,0.0,0.0,0.0,0.0,0.0,0.0,0.0,0.0,0.0,0.0,0.0,0.0,0.0,0.0,0.0,0.0,0.0,0.0,0.0,0.0,0.0,0.0,0.0,0.0,0.0,0.0,0.0,0.0,0.0,0.0,0.0,0.0,0.0,0.0,0.0,0.0,0.0,0.0,0.0,0.0,0.0,0.0,0.0,0.0,0.0,0.0,0.0,0.0,0.0,0.0,0.0,0.0,0.0,0.0,0.0,0.0,0.0,0.0,0.0,0.0,0.0,0.0,0.0,0.0,0.0,0.0,0.0,0.0,0.0,0.0,0.0,0.0,0.0,0.0,0.0,0.0,0.0,0.0,0.0,0.0,0.0,0.0,0.0,0.0,0.0,0.0,0.0,0.0,0.0,0.0,0.0,0.0,0.0,0.0,0.0,0.0,0.0,0.0,0.0,0.0,0.0,0.0,0.0,0.0,0.0,0.0,0.0,0.0,0.0,0.0,0.0,0.0,0.0,0.0,0.0,0.0,0.0,0.0,0.0,0.0,0.0,0.0,0.0,0.0,0.0,0.0,0.0,0.0,0.0,0.0,0.0,0.0,0.0,0.0,0.0,0.0,0.0,0.0,0.0,0.0,0.0,0.0,0.0,0.0,0.0,0.0,0.0,0.0,0.0,0.0,0.0,0.0,0.0,0.0,0.0,0.0,0.0,0.0,0.0,0.0,0.0,0.0,0.0,0.0,0.0,0.0,0.0,0.0,0.0,0.0,0.0,0.0,0.0,0.0,0.0,0.0,0.0,0.0,0.0,0.0,0.0,0.0,0.0,0.0,0.0,0.0,0.0,0.0,0.0,0.0,0.0,0.0,0.0,0.0,0.0,0.0,0.0,0.0,0.0,0.0,0.0,0.0,0.0,0.0,0.0,0.0,0.0,0.0,0.0,0.0,0.0,0.0,0.0,0.0,0.0,0.0,0.0,0.0,0.0,0.0,0.0,0.0,0.0,0.0,0.0,0.0,0.0,0.0,0.0,0.0,0.0,0.0,0.0,0.0,0.0,0.0,0.0,0.0,0.0,0.0,0.0,0.0,0.0,0.0,0.0,0.0,0.0,0.0,0.0,0.0,0.0,0.0,0.0,0.0,0.0,0.0,0.0,0.0,0.0,0.0,0.0,0.0,0.0,0.0,0.0,0.0,0.0,0.0,0.0,0.0,0.0,0.0,0.0,0.0,0.0,0.0,0.0,0.0,0.0,0.0,0.0,0.0,0.0,0.0,0.0,0.0,0.0,0.0,0.0,0.0,0.0,0.0,0.0,0.0,0.0,0.0,0.0,0.0,0.0,0.0,0.0,0.0,0.0,0.0,0.0,0.0,0.0,0.0,0.0,0.0,0.0,0.0,0.0,0.0,0.0,0.0,0.0,0.0,0.0,0.0,0.0,0.0,0.0,0.0,0.0,0.0,0.0,0.0,0.0,0.0,0.0,0.0,0.0,0.0,0.0,0.0,0.0,0.0,0.0,0.0,0.0,0.0,0.0,0.0,0.0,0.0,0.0,0.0,0.0,0.0,0.0,0.0,0.0,0.0,0.0,0.0,0.0,0.0,0.0,0.0,0.0,0.0,0.0,0.0,0.0,0.0,0.0,0.0,0.0,0.0,0.0,0.0,0.0,0.0,0.0,0.0,0.0,0.0,0.0,0.0,0.0,0.0,0.0,0.0,0.0,0.0,0.0,0.0,0.0,0.0,0.0,0.0,0.0,0.0,0.0,0.0,0.0,0.0,0.0,0.0,0.0,0.0,0.0,0.0,0.0,0.0,0.0,0.0,0.0,0.0,0.0,0.0,0.0,0.0,0.0,0.0,0.0,0.0,0.0,0.0,0.0,0.0,0.0,0.0,0.0,0.0,0.0,0.0,0.0,0.0,0.0,0.0,0.0,0.0,0.0,0.0,0.0,0.0,0.0,0.0,0.0,0.0,0.0,0.0,0.0,0.0,0.0,0.0,0.0,0.0,0.0,0.0,0.0,0.0,0.0,0.0,0.0,0.0,0.0,0.0,0.0,0.0,0.0,0.0,0.0,0.0,0.0,0.0,0.0,0.0,0.0,0.0,0.0,0.0,0.0,0.0,0.0,0.0,0.0,0.0,0.0,0.0,0.0,0.0,0.0,0.0,0.0,0.0,0.0,0.0,0.0,0.0,0.0,0.0,0.0,0.0,0.0,0.0,0.0,0.0,0.0,0.0,0.0,0.0,0.0,0.0,0.0,0.0,0.0,0.0,0.0,0.0,0.0,0.0,0.0,0.0,0.0,0.0,0.0,0.0,0.0,0.0,0.0,0.0,0.0,0.0,0.0,0.0,0.0,0.0,0.0,0.0,0.0,0.0,0.0,0.0,0.0,0.0,0.0,0.0,0.0,0.0,0.0,0.0,0.0,0.0,0.0,0.0,0.0,0.0,0.0,0.0,0.0,0.0,0.0,0.0,0.0,0.0,0.0,0.0,0.0,0.0,0.0,0.0,0.0,0.0,0.0,0.0,0.0,0.0,0.0,0.0,0.0,0.0,0.0,0.0,0.0,0.0,0.0,0.0,0.0,0.0,0.0,0.0,0.0,0.0,0.0,0.0,0.0,0.0,0.0,0.0,0.0,0.0,0.0,0.0,0.0,0.0,0.0,0.0,0.0,0.0,0.0,0.0,0.0,0.0,0.0,0.0,0.0,0.0,0.0,0.0,0.0,0.0,0.0,0.0,0.0,0.0,0.0,0.0,0.0,0.0,0.0,0.0,0.0,0.0,0.0,0.0,0.0,0.0,0.0,0.0,0.0,0.0,0.0,0.0,0.0,0.0,0.0,0.0,0.0,0.0,0.0,0.0,0.0,0.0,0.0,0.0,0.0,0.0,0.0,0.0,0.0,0.0,0.0,0.0,0.0,0.0,0.0,0.0,0.0,0.0,0.0,0.0,0.0,0.0,0.0,0.0,0.0,0.0,0.0,0.0,0.0,0.0,0.0,0.0,0.0,0.0,0.0,0.0,0.0,0.0,0.0,0.0,0.0,0.0,0.0,0.0,0.0,0.0,0.0,0.0,0.0,0.0,0.0,0.0,0.0,0.0,0.0,0.0,0.0,0.0,0.0,0.0,0.0,0.0,0.0,0.0,0.0,0.0,0.0,0.0,0.0,0.0,0.0,0.0,0.0,0.0,0.0,0.0,0.0,0.0,0.0,0.0,0.0,0.0,0.0,0.0,0.0,0.0,0.0,0.0,0.0,0.0,0.0,0.0,0.0,0.0,0.0,0.0,0.0,0.0,0.0,0.0,0.0,0.0,0.0,0.0,0.0,0.0,0.0,0.0,0.0,0.0,0.0,0.0,0.0,0.0,0.0,0.0,0.0,0.0,0.0,0.0,0.0,0.0,0.0,0.0,0.0,0.0,0.0,0.0,0.0,0.0,0.0,0.0,0.0,0.0,0.0,0.0,0.0,0.0,0.0,0.0,0.0,0.0,0.0,0.0,0.0,0.0,0.0,0.0,0.0,0.0,0.0,0.0,0.0,0.0,0.0,0.0,0.0,0.0,0.0,0.0,0.0,0.0,0.0,0.0,0.0,0.0,0.0,0.0,0.0,0.0,0.0,0.0,0.0,0.0,0.0,0.0,0.0,0.0,0.0,0.0,0.0,0.0,0.0,0.0,0.0,0.0,0.0,0.0,0.0,0.0,0.0,0.0,0.0,0.0,0.0,0.0,0.0,0.0,0.0,0.0,0.0,0.0,0.0,0.0,0.0,0.0,0.0,0.0,0.0,0.0,0.0,0.0,0.0,0.0,0.0,0.0,0.0,0.0,0.0,0.0,0.0,0.0,0.0,0.0,0.0,0.0,0.0,0.0,0.0,0.0,0.0,0.0,0.0,0.0,0.0,0.0,0.0,0.0,0.0,0.0,0.0,0.0,0.0,0.0,0.0,0.0,0.0,0.0,0.0,0.0,0.0,0.0,0.0,0.0,0.0,0.0,0.0,0.0,0.0,0.0,0.0,0.0,0.0,-0.6986,-0.7126,0.0,0.0,0.0,0.0,0.0,0.0,0.0,0.0,0.0,0.0,0.0,0.0,0.0,0.0,0.0,0.0,0.0,0.0,0.0,0.0,0.0,0.0,0.0,0.5418,0.5385,0.5488,0.5392,0.5292,0.519,0.0,0.0,0.0,0.0,0.0,0.3594,0.309,0.2654,0.2285,0.2083,0.1982,0.1982,0.1782,0.1042,-0.0168,0.0,0.0,0.0,0.0,0.0,0.0,0.0,0.0,0.0,0.0,0.0,0.0,0.0,0.0,0.0,0.0,0.0,0.0,0.0,0.0,0.0,0.0,0.0,0.0,0.0,0.0,0.0,0.0,0.0,0.0,0.0,0.0,0.0,0.0,0.0,0.0,0.0,0.0,0.0,0.0,0.0,0.0,0.0,0.0,0.0,0.0,0.0,0.0,0.0,0.0,0.0,0.0,0.0,0.0,0.0,0.0,0.0,0.0,0.0,0.0,0.0,0.0,0.0,0.0,0.0,0.0,0.0,0.0,0.0,0.0,-0.72,-0.7429,0.0,0.0,0.0,0.0,0.0,0.0,0.0,0.0,0.0,0.0,0.0,0.0,0.0,0.0,0.0,0.0,0.0,0.0,0.0,0.0,0.0,0.5154,0.565,0.5716,0.5818,0.602,0.6053,0.5954,0.5749,0.5683,0.0,0.0,0.0,0.4661,0.4192,0.3856,0.3556,0.3291,0.3088,0.2987,0.2987,0.3056,0.2249,0.0671,-0.0235,0.0,0.0,0.0,0.0,0.0,0.0,0.0,0.0,0.0,0.0,0.0,0.0,0.0,0.0,0.0,0.0,0.0,0.0,0.0,0.0,0.0,0.0,0.0,0.0,0.0,0.0,0.0,0.0,0.0,0.0,0.0,0.0,0.0,0.0,0.0,0.0,0.0,0.0,0.0,0.0,0.0,0.0,0.0,0.0,0.0,0.0,0.0,0.0,0.0,0.0,0.0,0.0,0.0,0.0,0.0,0.0,0.0,0.0,0.0,0.0,0.0,0.0,0.0,-0.4611,-0.4939,-0.5101,-0.5687,-0.6435,-0.7281,-0.7491,-0.7888,-0.8296,-0.817,0.0,0.0,0.0,0.0,0.0,0.0,0.0,0.0,0.0,0.0,0.0,0.0,0.0,0.0,0.0,0.0,0.0,0.0,0.0,0.5399,0.6044,0.6214,0.6383,0.6576,0.6609,0.6511,0.6317,0.602,0.0,0.0,0.5219,0.5024,0.4957,0.4622,0.4425,0.4392,0.4189,0.4087,0.4087,0.3654,0.3052,0.2316,0.0638,-0.0706,-0.1816,0.0,0.0,0.0,0.0,0.0,0.0,0.0,0.0,0.0,0.0,0.0,0.0,0.0,0.0,0.0,0.0,0.0,0.0,0.0,0.0,0.0,0.0,0.0,0.0,0.0,0.0,0.0,0.0,0.0,0.0,0.0,0.0,0.0,0.0,0.0,0.0,0.0,0.0,0.0,0.0,0.0,0.045,0.0423,0.0,0.0,0.0,0.0,0.0,0.0,0.0,0.0,0.0,0.0,0.0,0.0,0.0,-0.2758,-0.2764,-0.313,-0.3265,-0.3158,-0.4088,-0.4673,-0.4953,-0.5837,-0.6722,-0.7555,-0.781,0.0,-0.8452,-0.8431,0.0,0.0,0.0,0.0,0.0,0.0,0.0,0.0,0.0,0.0,0.0,0.0,0.0,0.0,0.0,0.0,0.0,0.0,0.0,0.0,0.0,0.6905,0.7134,0.7396,0.7335,0.7138,0.6876,0.6548,0.6181,0.5785,0.5517,0.5352,0.5259,0.519,0.5153,0.5153,0.5087,0.4918,0.4755,0.4323,0.3723,0.2922,0.1644,0.0302,-0.1042,-0.2151,0.0,0.0,0.0,0.0,0.0,0.0,0.0,0.0,0.0,0.0,0.0,0.0,0.0,0.0,0.0,0.0,0.0,0.0,0.0,0.0,0.0,0.0,0.0,0.0,0.0,0.0,0.0,0.0,0.0,0.0,0.0,0.0,0.0,0.0,0.0,0.0,0.0,0.0,0.0,0.085,0.0799,0.0821,0.0485,0.0242,0.0,0.0,0.0,0.0,0.0,0.0,0.0,0.0,0.0,-0.1567,-0.1729,-0.179,-0.1808,-0.2154,-0.2328,-0.2328,-0.3128,-0.3923,-0.4704,-0.5427,-0.6432,-0.7607,-0.7881,-0.8255,-0.873,-0.8645,-0.8574,-0.8509,0.0,0.0,0.0,0.0,-0.8289,-0.835,0.0,0.0,0.0,0.0,0.0,0.0,0.0,0.0,0.0,0.0,0.0,0.0,0.7372,0.7689,0.7982,0.8306,0.8149,0.7889,0.7554,0.7129,0.6675,0.6185,0.5918,0.5785,0.5789,0.598,0.6009,0.5881,0.5815,0.5617,0.5219,0.4791,0.4159,0.3326,0.2382,0.1107,-0.037,-0.148,-0.2452,0.0,0.0,0.0,0.0,0.0,0.0,0.0,0.0,0.0,0.0,0.0,0.0,0.0,0.0,0.0,0.0,0.0,0.0,0.0,0.0,0.0,0.0,0.0,0.0,0.0,0.0,0.0,0.0,0.0,0.0,0.0,0.0,0.0,0.0,0.0,0.0,0.0,0.0,0.137,0.127,0.135,0.0853,0.0502,0.0,0.0,0.0,0.0,0.0,0.0,-0.0269,-0.0324,-0.0489,-0.0935,-0.099,-0.0941,-0.0953,-0.129,-0.1514,-0.1683,-0.2355,-0.3362,-0.4646,-0.5314,-0.6376,-0.7715,-0.7989,-0.8436,-0.8875,-0.8815,-0.8767,-0.8757,-0.8645,-0.8601,-0.8601,-0.8601,-0.8601,-0.8654,0.0,0.0,0.0,0.0,0.0,0.0,0.0,0.0,0.0,0.0,0.0,0.7039,0.8049,0.8506,0.8861,0.921,0.9049,0.8791,0.0,0.7809,0.7265,0.6881,0.6552,0.6519,0.6815,0.7199,0.7162,0.6642,0.6449,0.6083,0.555,0.4891,0.4292,0.3725,0.2582,0.141,0.0202,-0.0874,-0.1781,-0.2551,0.0,0.0,0.0,0.0,0.0,0.0,0.0,0.0,0.0,0.0,0.0,0.0,0.0,0.0,0.0,0.0,0.0,0.0,0.0,0.0,0.0,0.0,0.0,0.0,0.0,0.0,0.0,0.0,0.0,0.0,0.0,0.0,0.0,0.0,0.0,0.0,0.0,0.0,0.0,0.1743,0.122,0.0,0.0,0.0,0.0,0.0,0.0,0.0,0.0,0.0,-0.0056,-0.0056,-0.0056,-0.0056,-0.0056,-0.0336,-0.0785,-0.1346,-0.2241,-0.347,-0.492,-0.5815,-0.6874,-0.7989,-0.8318,-0.8654,-0.8885,-0.8875,-0.8871,-0.8871,-0.8865,-0.8861,-0.8861,-0.8861,-0.8861,-0.8861,0.0,0.0,0.0,0.4463,0.4491,0.4577,0.4787,0.5173,0.5723,0.6546,0.7247,0.7982,0.8807,0.9215,0.9542,0.9728,0.96,0.9376,0.9043,0.8598,0.8047,0.7456,0.7228,0.7199,0.7423,0.7689,0.7657,0.7335,0.6839,0.6379,0.598,0.5123,0.4428,0.3892,0.2919,0.1914,0.0874,-0.0437,-0.1444,-0.2281,-0.3286,-0.3959,0.0,0.0,0.0,0.0,0.0,0.0,0.0,0.0,0.0,0.0,0.0,0.0,0.0,0.0,0.0,0.0,0.0,0.0,0.0,0.0,0.0,0.0,0.0,0.0,0.0,0.0,0.0,0.0,0.0,0.0,0.0,0.0,0.0,0.0,0.0,0.0,0.0,0.2866,0.2183,0.0,0.1012,0.0539,0.0163,0.0,0.0,0.0,0.0,0.0,0.0,0.0,0.0,0.0,0.0,-0.0112,-0.0505,-0.129,-0.2017,-0.3358,-0.5258,-0.5984,-0.7041,-0.8318,-0.8429,-0.8654,-0.8885,-0.8885,-0.8885,-0.8885,-0.8885,-0.8885,-0.8885,-0.8885,-0.8885,-0.8885,0.3126,0.3658,0.0,0.4436,0.4491,0.4622,0.4948,0.5407,0.6032,0.696,0.7803,0.8592,0.9376,0.9766,1.0021,1.018,1.0053,0.9862,0.9562,0.9215,0.8791,0.8258,0.8166,0.8134,0.8231,0.8366,0.8242,0.7857,0.7265,0.6704,0.6178,0.5322,0.4595,0.3961,0.3088,0.2183,0.121,-0.0067,-0.1141,-0.2014,-0.2952,-0.3679,-0.4186,0.0,0.0,0.0,0.0,0.0,0.0,0.0,0.0,0.0,0.0,0.0,0.0,0.0,0.0,0.0,0.0,0.0,0.0,0.0,0.0,0.0,0.0,0.0,0.0,0.0,0.0,0.0,0.0,0.0,0.0,0.0,0.0,0.0,0.0,0.391,0.3982,0.3997,0.3087,0.2222,0.1518,0.0822,0.0276,0.0,0.0,0.0,0.0,0.0,0.0,0.0,0.0,0.0,0.0,0.0,-0.0505,-0.1458,-0.2073,-0.3526,-0.5706,-0.6318,-0.7321,-0.8654,-0.8654,-0.8712,-0.8885,-0.8885,-0.8885,-0.8885,-0.8885,-0.8885,-0.8885,-0.8885,-0.8885,-0.8885,0.3054,0.3628,0.4104,0.4436,0.4494,0.4629,0.4955,0.5415,0.6067,0.7089,0.7995,0.8844,0.969,1.0104,1.0383,1.0579,1.0421,1.0199,1.0015,0.9716,0.9454,0.9338,0.9306,0.9306,0.9306,0.9306,0.8947,0.8231,0.7749,0.7064,0.621,0.5451,0.4725,0.3961,0.3088,0.2183,0.1244,0.0168,-0.0773,-0.1681,-0.2587,-0.3347,-0.3904,0.0,0.0,0.0,0.0,0.0,0.0,0.0,0.0,0.0,0.0,0.0,0.0,0.0,0.0,0.0,0.0,0.0,0.0,0.0,0.0,0.0,0.0,0.0,0.0,0.0,0.0,0.0,0.0,0.0,0.0,0.0,0.0,0.0,0.4884,0.4918,0.4947,0.4966,0.3863,0.2801,0.1907,0.0953,0.028,0.0,0.0,0.0,0.0,0.0,0.0,0.0,0.0,0.0,0.0,0.0,-0.0617,-0.1796,-0.241,-0.3973,-0.6318,-0.6932,-0.7823,-0.8885,-0.8885,-0.8885,-0.8885,-0.8885,-0.8885,-0.8885,-0.8885,-0.8885,-0.8885,-0.8885,-0.8885,-0.8885,0.2981,0.3593,0.4104,0.4436,0.4583,0.4793,0.5217,0.5743,0.6482,0.7636,0.8425,0.9076,0.9587,0.9964,1.0179,1.0241,1.0179,1.0172,1.0225,1.0142,0.9951,0.967,0.967,0.967,0.967,0.953,0.9236,0.8786,0.7912,0.7162,0.6544,0.5719,0.4924,0.4189,0.3424,0.2487,0.148,0.0638,-0.0302,-0.1311,-0.2216,-0.2834,-0.3252,0.0,0.0,0.0,0.0,0.0,0.0,0.0,0.0,0.0,0.0,0.0,0.0,0.0,0.0,0.0,0.0,0.0,0.0,0.0,0.0,0.0,0.0,0.0,0.0,0.0,0.0,0.0,0.0,0.0,0.0,0.0,0.5483,0.6192,0.6116,0.6158,0.6123,0.5924,0.4644,0.3302,0.2185,0.1289,0.0561,0.0056,0.0,0.0,0.0,0.0,0.0,0.0,0.0,0.0,0.0,0.0,-0.0628,-0.1827,-0.2423,-0.3973,-0.6318,-0.6932,-0.7823,-0.8885,-0.8885,-0.8885,-0.8885,-0.8885,-0.8885,-0.8885,-0.8885,-0.8885,-0.8885,-0.8885,-0.8885,-0.8885,0.2924,0.3524,0.4036,0.4432,0.4601,0.485,0.5317,0.5864,0.6591,0.766,0.8501,0.9116,0.9488,0.9877,1.0083,1.0083,1.0083,1.0179,1.0415,1.0434,1.0339,1.0149,1.0149,1.0149,1.0149,0.9945,0.9594,0.9113,0.8301,0.7489,0.6675,0.5954,0.519,0.4389,0.3558,0.2688,0.1746,0.0873,0.0,-0.0807,-0.1478,-0.2132,-0.2701,-0.2567,-0.2759,-0.2953,-0.2376,-0.2149,-0.2004,-0.1385,0.0,0.0,0.0,0.0,0.0,0.0,0.0,0.0,0.0,0.0,0.0,0.0,0.0,0.0,0.0,0.0,0.0,0.0,0.0,0.0,0.0,0.0,0.0,0.0,0.6511,0.7157,0.721,0.7114,0.6937,0.6487,0.5146,0.3695,0.2352,0.1401,0.0673,0.0056,0.0,0.0,0.0,0.0,0.0,0.0,0.0,0.0,0.0,0.0,-0.0521,-0.161,-0.2332,-0.3831,-0.5929,-0.6818,-0.7768,-0.8712,-0.8826,-0.8885,-0.8885,-0.8885,-0.8885,-0.8885,0.0,0.0,0.0,0.0,-0.8885,-0.8885,0.2839,0.3427,0.3941,0.4423,0.464,0.4889,0.5318,0.5848,0.6517,0.7372,0.8333,0.9053,0.9303,0.976,1.005,1.0083,1.0057,1.0207,1.0573,1.0593,1.0593,1.0593,1.0593,1.0593,1.0593,1.0403,0.9983,0.937,0.878,0.7907,0.6773,0.6218,0.5455,0.4595,0.3694,0.2854,0.2045,0.1007,0.0269,-0.0303,-0.0605,-0.132,-0.2142,-0.1882,-0.189,-0.193,-0.1408,-0.1176,-0.1029,-0.0588,0.0,0.0,0.0,0.0,0.0,0.0,0.0,0.0,0.0,0.0,0.0,0.0,0.0,0.0,0.0,0.0,0.0,0.0,0.0,0.0,0.0,0.0,0.0,0.0,0.7419,0.7962,0.8026,0.7771,0.7326,0.6657,0.5316,0.3807,0.2296,0.1345,0.0617,0.0056,0.0,0.0,0.0,0.0,0.0,0.0,0.0,0.0,0.0,0.0,-0.0469,-0.133,-0.2244,-0.3588,-0.5442,-0.6604,-0.7654,-0.854,-0.8771,-0.8885,-0.8885,-0.8885,-0.8885,-0.8885,-0.8885,-0.8885,-0.8885,-0.8885,-0.8885,-0.8885,0.2792,0.3439,0.3961,0.448,0.4812,0.5098,0.535,0.5851,0.6469,0.7162,0.8042,0.8691,0.8885,0.9274,0.9653,0.9918,0.9847,1.0023,0.0,0.0,1.0593,1.0593,1.0593,1.0593,1.0593,1.0403,1.011,0.9702,0.8882,0.8102,0.7326,0.6507,0.5653,0.4728,0.4128,0.3222,0.2147,0.1444,0.0673,-0.0067,-0.0303,-0.08,-0.1384,-0.1159,-0.1232,-0.1403,-0.0892,-0.0813,-0.0852,-0.0271,0.0153,0.0564,0.1165,0.0,0.0,0.0,0.0,0.0,0.0,0.0,0.0,0.0,0.0,0.0,0.0,0.0,0.0,0.0,0.0,0.0,0.0,0.0,0.0,0.7487,0.8041,0.84,0.8426,0.7765,0.693,0.6091,0.4697,0.3302,0.2018,0.1065,0.0338,0.0,0.0,0.0,0.0,0.0,0.0,0.0,0.0,0.0,0.0,0.0,-0.048,-0.1375,-0.1978,0.0,-0.5421,-0.6361,-0.7435,-0.854,-0.8771,-0.8885,-0.8885,-0.8885,-0.8885,-0.8885,-0.8885,-0.8885,-0.8885,-0.8885,-0.8885,-0.8885,0.237,0.3184,0.3909,0.4405,0.4829,0.5159,0.5366,0.5865,0.6346,0.6745,0.7657,0.8308,0.8446,0.8829,0.9234,0.9627,0.9853,0.0,0.0,1.053,1.0593,1.0593,1.0593,1.0593,1.0593,1.0498,1.0244,0.9804,0.921,0.8431,0.7489,0.6769,0.5951,0.5063,0.4425,0.3623,0.2653,0.1915,0.1144,0.037,0.0101,-0.0244,-0.0583,-0.0583,-0.0677,-0.0746,-0.0432,-0.0353,-0.0393,0.0,0.0507,0.1041,0.1658,0.2252,0.2782,0.0,0.0,0.0,0.0,0.0,0.0,0.0,0.0,0.0,0.0,0.0,0.0,0.0,0.0,0.5351,0.6183,0.0,0.7409,0.8083,0.8498,0.8598,0.8266,0.749,0.6599,0.5704,0.4252,0.2856,0.1683,0.0847,0.0285,0.0,0.0,0.0,0.0,0.0,0.0,0.0,0.0,0.0,0.0,0.0,-0.0304,-0.0905,-0.1838,-0.3032,-0.453,-0.608,-0.7211,-0.8103,-0.866,-0.8885,-0.8885,-0.8885,-0.8885,-0.8885,-0.8885,-0.8885,-0.8885,-0.8885,-0.8885,-0.8885,0.1875,0.2927,0.3875,0.4353,0.4855,0.5216,0.5375,0.5785,0.6148,0.6284,0.7167,0.7814,0.7918,0.8353,0.8855,0.0,0.0,0.0,0.0,1.0498,1.0593,1.0593,1.0593,1.0593,1.0593,1.0593,1.0371,0.9894,0.9498,0.8753,0.7684,0.6999,0.628,0.5458,0.4688,0.3956,0.319,0.2319,0.1518,0.0813,0.0441,0.0175,0.0,-0.0184,-0.0227,-0.0236,-0.0039,0.0,0.0039,0.0314,0.0825,0.1492,0.2196,0.2907,0.3529,0.3814,0.3961,0.0,0.0,0.0,0.0,0.0,0.0,0.0,0.0,0.5956,0.6085,0.6243,0.6498,0.6813,0.7311,0.7717,0.8134,0.8524,0.8768,0.8716,0.81,0.7268,0.6379,0.5427,0.392,0.2468,0.1352,0.0684,0.0231,0.0,0.0,0.0,0.0,0.0,0.0,0.0,0.0,0.0,0.0,0.0,-0.0123,-0.0424,-0.1629,-0.2733,-0.3706,-0.5802,-0.7053,-0.7642,-0.8507,-0.8885,-0.8885,-0.8885,-0.8885,-0.8885,-0.8885,-0.8885,-0.8885,-0.8885,-0.8885,-0.8885,0.1598,0.28,0.3959,0.4469,0.5001,0.5375,0.5392,0.5554,0.5749,0.5921,0.6572,0.7083,0.7265,0.7828,0.8449,0.907,0.0,0.0,1.0301,1.0498,1.0593,1.0593,1.0593,1.0593,1.0593,1.0593,1.0466,1.0238,0.9594,0.8979,0.8361,0.7223,0.6383,0.5793,0.4957,0.4156,0.342,0.2549,0.1737,0.1011,0.0523,0.018,0.0,-0.0038,-0.0038,-0.0039,0.0,0.0,0.0079,0.0628,0.1177,0.1763,0.2899,0.3701,0.4297,0.4864,0.4984,0.5011,0.5288,0.5507,0.5668,0.5737,0.6082,0.6385,0.0,0.6597,0.6901,0.7237,0.7382,0.7594,0.8216,0.8407,0.8524,0.8823,0.8881,0.8716,0.81,0.7268,0.6267,0.5096,0.336,0.1972,0.103,0.0402,0.0058,0.0,0.0,0.0,0.0,0.0,0.0,0.0,0.0,0.0,0.0,0.0,-0.0185,-0.0493,-0.1456,-0.2584,-0.3828,-0.5635,-0.6925,-0.776,-0.8546,-0.8885,-0.8885,-0.8885,-0.8885,-0.8885,-0.8885,-0.8885,-0.8885,-0.8885,-0.8885,-0.8885,0.1543,0.2787,0.3925,0.4356,0.4957,0.5395,0.5395,0.5521,0.5617,0.5719,0.6178,0.6539,0.6712,0.7348,0.7931,0.8413,0.9182,0.9831,1.023,1.0639,1.0857,1.0822,1.0847,1.0767,1.0593,1.0593,1.0498,1.0301,0.9824,0.9291,0.8667,0.7707,0.6963,0.6341,0.5477,0.4711,0.3972,0.3026,0.2127,0.1291,0.0717,0.0293,0.0,0.0,0.0,0.0,0.0,0.0,0.0,0.0,0.1177,0.1959,0.2937,0.3901,0.4761,0.5317,0.5588,0.5812,0.6148,0.6427,0.6695,0.6903,0.7226,0.7604,0.7764,0.7893,0.8015,0.8266,0.8294,0.8423,0.8702,0.8712,0.8768,0.8881,0.8885,0.8771,0.8322,0.7543,0.6654,0.5819,0.4142,0.2595,0.155,0.0696,0.0235,0.0301,0.0122,0.0,0.0,0.0,0.0,0.0,0.0,0.0,0.0,0.0,-0.0062,-0.0247,-0.1225,-0.2188,-0.3251,-0.5057,-0.6729,-0.8177,-0.8683,-0.8885,-0.8885,-0.8885,-0.8885,-0.8885,-0.8885,-0.8885,-0.8885,-0.8885,-0.8885,-0.8885,0.1547,0.2787,0.3889,0.4253,0.4924,0.5395,0.5395,0.5491,0.5554,0.5554,0.5815,0.6115,0.6317,0.6905,0.7428,0.7824,0.8651,0.9413,1.0028,1.0617,1.0945,1.1016,1.1076,1.1015,1.0834,1.0827,1.0737,1.0601,1.0217,0.969,0.9049,0.8201,0.7451,0.673,0.5878,0.5123,0.4395,0.3348,0.2387,0.1488,0.0856,0.0341,0.0,0.0,0.0,0.0,0.0,0.0,0.0,0.0,0.1177,0.1998,0.2976,0.402,0.5011,0.5708,0.6157,0.6518,0.6801,0.7108,0.737,0.7671,0.8056,0.8384,0.8598,0.8713,0.8804,0.8861,0.8885,0.8885,0.8885,0.8885,0.8885,0.8885,0.8885,0.8826,0.854,0.7875,0.721,0.6596,0.517,0.3802,0.2656,0.1345,0.0535,0.0485,0.0184,0.0,0.0,0.0,0.0,0.0,0.0,0.0,0.0,0.0,0.0,0.0,-0.1048,-0.19,-0.2788,-0.4923,-0.6862,-0.854,-0.8771,-0.8885,-0.8885,-0.8885,-0.8885,-0.8885,-0.8885,-0.8885,-0.8885,-0.8885,-0.8885,-0.8885,0.1547,0.2787,0.3889,0.4253,0.4924,0.5395,0.5395,0.5395,0.5395,0.5395,0.5521,0.5782,0.6148,0.6511,0.6937,0.7456,0.8144,0.8859,0.9671,1.0201,1.0694,1.1088,1.1273,1.1375,1.1369,1.1369,1.1362,1.1362,1.0854,1.0303,0.9748,0.8629,0.765,0.6841,0.5914,0.5195,0.4617,0.3421,0.2435,0.1642,0.0901,0.0363,0.0,0.0,0.0,0.0,0.0,0.0,0.0,0.0,0.1216,0.1881,0.3331,0.4297,0.0,0.6071,0.6688,0.7122,0.7329,0.7482,0.7634,0.778,0.815,0.8479,0.8486,0.872,0.8878,0.8881,0.8885,0.8885,0.8885,0.8885,0.8885,0.8885,0.8885,0.8826,0.854,0.8211,0.7768,0.721,0.6463,0.5533,0.4628,0.2293,0.0776,0.0492,0.0185,0.0,0.0,0.0,0.0,0.0,0.0,0.0,0.0,0.0,0.0,0.0,-0.1048,-0.1849,-0.2585,-0.5538,-0.7434,-0.854,-0.8771,-0.8885,-0.8885,-0.8885,-0.8885,-0.8885,-0.8885,-0.8885,-0.8885,-0.8885,-0.8885,-0.8885,0.1547,0.2787,0.3889,0.4253,0.4924,0.5395,0.5395,0.5395,0.5395,0.5395,0.5425,0.0,0.0,0.0,0.0,0.0,0.7451,0.8324,0.9381,1.0119,1.0713,1.1217,1.1435,1.1414,1.1224,1.1183,1.108,1.0805,1.0534,1.0184,0.9785,0.9015,0.8263,0.7576,0.6713,0.5885,0.5087,0.3768,0.2713,0.1808,0.0987,0.0415,0.0,0.0,0.0,0.0,0.0,0.0,0.0,0.055,0.1099,0.1803,0.2976,0.0,0.0,0.6354,0.7018,0.7326,0.7482,0.7631,0.7801,0.8052,0.8231,0.8394,0.8587,0.8713,0.8815,0.8861,0.8885,0.8885,0.8885,0.8885,0.8885,0.8885,0.8885,0.8915,0.895,0.8683,0.8439,0.8362,0.7369,0.6446,0.5718,0.3582,0.1929,0.1231,0.0617,0.0247,0.0,0.0,0.0,0.0,0.0,0.0,0.0,0.0,0.0,0.0,-0.1233,-0.2317,-0.3285,-0.5369,-0.6864,-0.7937,-0.8432,-0.8712,-0.8885,-0.8885,-0.8885,-0.8885,-0.8885,-0.8885,-0.8885,-0.8885,-0.8885,-0.8885,0.1547,0.2787,0.3889,0.4253,0.4924,0.0,0.0,0.0,0.0,0.0,0.0,0.0,0.0,0.0,0.0,0.0,0.0,0.771,0.872,0.9591,1.0337,1.1006,1.1352,1.1429,1.1208,1.1137,1.0924,1.0604,1.0377,1.0072,0.9696,0.9087,0.8475,0.7851,0.6943,0.6114,0.5327,0.3986,0.287,0.1915,0.1065,0.0428,0.0,0.0,0.0,0.0,0.0,0.0,0.0,0.0513,0.1059,0.1765,0.2849,0.0,0.0,0.6613,0.7102,0.7333,0.7543,0.7665,0.7807,0.8113,0.8231,0.8333,0.8574,0.8672,0.8754,0.8851,0.8885,0.8885,0.8885,0.8885,0.8898,0.9008,0.9015,0.9066,0.9272,0.9064,0.8986,0.9081,0.8312,0.7544,0.6786,0.5075,0.335,0.1787,0.0925,0.037,0.0,0.0,0.0,0.0,0.0,0.0,0.0,0.0,-0.0062,-0.0185,-0.1295,-0.2425,-0.3528,-0.4993,-0.629,-0.7326,-0.8045,-0.8488,-0.8768,-0.8881,-0.8885,-0.8885,-0.8885,-0.8885,-0.8885,-0.8885,-0.8885,-0.8885,0.1547,0.2787,0.3923,0.0,0.0,0.0,0.0,0.0,0.0,0.0,0.0,0.0,0.0,0.0,0.0,0.0,0.0,0.0,0.7817,0.8726,0.0,1.0431,1.1009,1.1335,1.1335,1.1149,1.0925,1.07,1.0335,0.992,0.9508,0.8882,0.8288,0.7676,0.6753,0.5966,0.5304,0.3958,0.2859,0.1915,0.1046,0.0397,0.0,0.0,0.0,0.0,0.0,0.0,0.0,0.056,0.1102,0.1935,0.3071,0.4736,0.6414,0.681,0.6997,0.7173,0.7519,0.7604,0.7678,0.7917,0.815,0.8296,0.8438,0.8587,0.8743,0.8841,0.8878,0.8885,0.8885,0.8885,0.8984,0.9187,0.921,0.9265,0.9371,0.9395,0.9395,0.9401,0.9229,0.8712,0.7755,0.6584,0.4862,0.2281,0.1111,0.037,0.0062,0.0,0.0,0.0,0.0,0.0,0.0,0.0,-0.0185,-0.0494,-0.111,-0.2063,-0.3178,-0.4467,-0.56,-0.6712,-0.7601,-0.8156,-0.854,-0.8771,-0.8885,-0.8885,-0.8885,-0.8885,-0.8885,-0.8885,-0.8885,-0.8885,0.0,0.0,0.0,0.0,0.0,0.0,0.0,0.0,0.0,0.0,0.0,0.0,0.0,0.0,0.0,0.0,0.0,0.0,0.7171,0.8031,0.0,0.0,0.0,1.0738,1.0738,1.0513,0.0,0.0,0.0,0.9011,0.8634,0.8421,0.8118,0.7726,0.6987,0.6203,0.5329,0.4094,0.2874,0.178,0.0,0.0402,0.0,0.0,0.0,0.0,0.0,0.0,0.0,0.0,0.2024,0.3641,0.4695,0.5707,0.6599,0.6967,0.7193,0.7356,0.7546,0.7678,0.7801,0.7941,0.8019,0.814,0.8289,0.8435,0.8584,0.8737,0.8804,0.8885,0.8885,0.8885,0.8984,0.9187,0.921,0.9303,0.9513,0.9551,0.9591,0.9696,0.9439,0.8975,0.8245,0.7057,0.5479,0.3574,0.2096,0.0987,0.0432,0.0123,0.0,0.0,0.0,0.0,0.0,0.0,-0.0062,-0.0123,-0.0555,-0.1275,-0.2177,-0.341,-0.4732,-0.6093,-0.7213,-0.7992,-0.854,-0.8771,-0.8885,-0.8885,-0.8885,-0.8885,-0.8885,-0.8885,-0.8885,-0.8885,0.0,0.0,0.0,0.0,0.0,0.0,0.0,0.0,0.0,0.0,0.0,0.0,0.0,0.0,0.0,0.0,0.0,0.0,0.0,0.7324,0.0,0.0,0.0,0.9836,0.9836,0.9571,0.0,0.0,0.0,0.0,0.0,0.779,0.7631,0.7465,0.6777,0.6002,0.5178,0.0,0.0,0.0,0.0,0.0,0.0,0.0,0.0,0.0,0.0,0.0,0.0,0.0,0.0,0.4583,0.5556,0.6277,0.6827,0.7128,0.7255,0.7319,0.7539,0.7658,0.777,0.7934,0.7988,0.8029,0.8235,0.8333,0.8452,0.8665,0.8777,0.8804,0.8871,0.8885,0.9008,0.9218,0.9309,0.9357,0.9659,0.9703,0.973,0.9812,0.964,0.9335,0.8845,0.7747,0.6401,0.4863,0.2896,0.1357,0.0556,0.0185,0.0,0.0,0.0,0.0,0.0,0.0,0.0,0.0,-0.037,-0.085,-0.1648,-0.2882,-0.4159,-0.5481,-0.6821,-0.7768,-0.8322,-0.8716,-0.8885,-0.8885,-0.8885,-0.8885,-0.8885,-0.8885,-0.8885,-0.8885,0.0,0.0,0.0,0.0,0.0,0.0,0.0,0.0,0.0,0.5395,0.5395,0.5402,0.0,0.0,0.0,0.0,0.0,0.0,0.0,0.0,0.0,0.0,0.0,0.8846,0.8846,0.8475,0.0,0.0,0.0,0.0,0.0,0.0,0.0,0.0,0.0,0.0,0.0,0.0,0.0,0.0,0.0,0.0,0.0,0.0,0.0,0.0,0.0,0.0,0.0,0.0,0.4647,0.5077,0.6037,0.6666,0.7132,0.7358,0.7305,0.722,0.755,0.7628,0.7695,0.7921,0.7988,0.8025,0.8211,0.8255,0.8347,0.8625,0.8696,0.8757,0.8854,0.8885,0.9028,0.9306,0.9367,0.9479,0.9754,0.9808,0.9822,0.9822,0.9822,0.964,0.9335,0.848,0.738,0.6092,0.3694,0.185,0.0679,0.0247,0.0062,0.0,0.0,0.0,0.0,0.0,0.0,0.0,-0.0309,-0.073,-0.13,-0.2534,-0.3704,-0.4946,-0.6437,-0.7432,-0.8045,-0.8605,-0.8881,-0.8885,-0.8885,-0.8885,-0.8885,-0.8885,-0.8885,-0.8885,0.0,0.0,0.0,0.0,0.0,0.0,0.0,0.0,0.0,0.0,0.0,0.0,0.0,0.0,0.0,0.0,0.0,0.0,0.0,0.0,0.0,0.0,0.0,0.8012,0.8012,0.7787,0.0,0.0,0.0,0.0,0.0,0.0,0.0,0.0,0.0,0.0,0.0,0.0,0.0,0.0,0.0,0.0,0.0,0.0,0.0,0.0,0.0,0.0,0.0,0.0,0.4601,0.5656,0.6685,0.7256,0.7513,0.756,0.7543,0.7556,0.7729,0.7773,0.7818,0.7944,0.7988,0.7995,0.8022,0.8177,0.8371,0.8486,0.8621,0.8757,0.8854,0.8885,0.8994,0.9221,0.9357,0.9442,0.9622,0.9747,0.9822,0.9822,0.9822,0.964,0.9335,0.8723,0.7747,0.6403,0.4862,0.3202,0.1418,0.0741,0.0309,0.0,0.0,0.0,0.0,0.0,0.0,0.0,-0.0062,-0.0367,-0.1021,-0.1954,-0.3202,-0.4628,-0.5909,-0.7041,-0.8045,-0.8432,-0.8712,-0.8885,-0.8885,-0.8885,-0.8885,-0.8885,-0.8885,-0.8885,0.0,0.0,0.0,0.0,0.0,0.0,0.0,0.0,0.0,0.0,0.5395,0.0,0.0,0.0,0.0,0.0,0.0,0.0,0.0,0.0,0.0,0.0,0.0,0.7322,0.7322,0.7134,0.6945,0.6753,0.0,0.0,0.0,0.0,0.0,0.0,0.0,0.0,0.0,0.0,0.0,0.0,0.0,0.0,0.0,0.0,0.0,0.0,0.0,0.0,0.0,0.0,0.492,0.5873,0.6848,0.7419,0.7709,0.7709,0.7658,0.7631,0.7773,0.7811,0.7848,0.7951,0.7988,0.7988,0.7988,0.8096,0.8214,0.8435,0.854,0.8662,0.8841,0.8885,0.8984,0.9187,0.934,0.9435,0.9588,0.973,0.9822,0.9822,0.9822,0.9761,0.9579,0.9153,0.8419,0.7258,0.6274,0.4677,0.2405,0.148,0.0802,0.0247,0.0247,0.0185,0.0,0.0,0.0,0.0,0.0,-0.0306,-0.0904,-0.166,-0.274,-0.4074,-0.5298,-0.6376,-0.7379,-0.7823,-0.8266,-0.8712,-0.8712,-0.8768,-0.8885,-0.8885,-0.8885,-0.8885,0.0,0.0,0.0,0.0,0.0,0.0,0.0,0.5395,0.5395,0.5395,0.5423,0.5501,0.5616,0.5735,0.0,0.0,0.0,0.0,0.0,0.0,0.0,0.0,0.0,0.0,0.0,0.0,0.0,0.6574,0.0,0.0,0.0,0.0,0.0,0.0,0.0,0.0,0.0,0.0,0.0,0.0,0.0,0.0,0.0,0.0,0.0,0.0,0.0,0.0,0.0,0.0,0.5118,0.5997,0.6843,0.7469,0.7862,0.7862,0.778,0.7719,0.7831,0.7862,0.7889,0.7961,0.7988,0.7988,0.7988,0.7988,0.8073,0.8421,0.8482,0.8574,0.8828,0.8885,0.8977,0.9089,0.9232,0.9388,0.954,0.9686,0.9788,0.9819,0.9822,0.9822,0.9822,0.9518,0.897,0.8177,0.7439,0.5906,0.333,0.2281,0.1418,0.0864,0.0679,0.0432,0.0123,0.0062,0.0,0.0,0.0,-0.0307,-0.0848,-0.1366,-0.2282,-0.3472,-0.4467,-0.5483,-0.649,-0.699,-0.7601,-0.8208,-0.8263,-0.8491,-0.8826,-0.8826,-0.8826,-0.8885,0.0,0.0,0.0,0.0,0.0,0.0,0.0,0.5395,0.5395,0.5395,0.5518,0.5623,0.5766,0.5793,0.0,0.0,0.0,0.0,0.0,0.0,0.0,0.0,0.0,0.0,0.0,0.0,0.0,0.6491,0.6634,0.0,0.0,0.0,0.0,0.0,0.0,0.567,0.0,0.0,0.0,0.0,0.0,0.0,0.0,0.0,0.0,0.0,0.0,0.0,0.0,0.0,0.0,0.6022,0.693,0.7568,0.7968,0.7968,0.7961,0.7951,0.7965,0.7968,0.7971,0.7985,0.7988,0.7988,0.7988,0.7988,0.8073,0.8421,0.8482,0.8574,0.8828,0.8885,0.8888,0.8902,0.9079,0.9282,0.9381,0.9534,0.9676,0.9805,0.9822,0.9822,0.9822,0.9518,0.9156,0.8729,0.7867,0.6333,0.3943,0.2898,0.222,0.185,0.1296,0.0803,0.0432,0.0123,0.0,0.0,0.0,-0.0185,-0.0554,-0.0836,-0.1655,-0.2791,-0.3137,-0.4143,-0.5539,-0.5868,-0.6482,-0.7321,-0.7604,-0.8048,-0.854,-0.854,-0.8712,-0.8885,0.0,0.0,0.0,0.0,0.0,0.0,0.0,0.5395,0.5395,0.5395,0.5446,0.5576,0.5776,0.58,0.0,0.0,0.0,0.0,0.0,0.0,0.0,0.0,0.0,0.0,0.0,0.0,0.6559,0.661,0.6671,0.0,0.0,0.0,0.0,0.0,0.0,0.6018,0.5595,0.0,0.0,0.0,0.0,0.0,0.0,0.0,0.0,0.0,0.0,0.0,0.21,0.3505,0.0,0.0,0.6947,0.7587,0.0,0.0,0.7988,0.7988,0.7988,0.7988,0.7988,0.7988,0.7988,0.7988,0.7988,0.7988,0.8073,0.8421,0.8482,0.8574,0.8828,0.8885,0.8885,0.8885,0.9059,0.9262,0.9361,0.9513,0.9663,0.9802,0.9822,0.9822,0.9822,0.97,0.9457,0.9153,0.8416,0.762,0.6639,0.5109,0.3758,0.2649,0.1973,0.1234,0.0494,0.0185,0.0,0.0,0.0,-0.0184,-0.0487,-0.0595,-0.1057,-0.1924,-0.2213,-0.2969,-0.4032,-0.4362,-0.5142,-0.6151,-0.6429,-0.6985,-0.7765,-0.7878,-0.8269,-0.8654,0.0,0.0,0.0,0.0,0.0,0.0,0.5395,0.5395,0.5395,0.5395,0.5433,0.5559,0.5776,0.584,0.5973,0.6276,0.0,0.0,0.0,0.0,0.0,0.0,0.0,0.0,0.0,0.0,0.6614,0.6766,0.681,0.681,0.0,0.0,0.6685,0.6539,0.0,0.0,0.0,0.0,0.0,0.0,0.0,0.0,0.0,0.0,0.0,0.0,0.0,0.0,0.0,0.0,0.0,0.0,0.0,0.0,0.0,0.0,0.7988,0.7988,0.7988,0.7988,0.7988,0.7988,0.7988,0.7988,0.7988,0.8025,0.818,0.8431,0.852,0.8628,0.8838,0.8885,0.8885,0.8885,0.9025,0.9157,0.9354,0.9473,0.9612,0.9798,0.9822,0.9822,0.9822,0.9822,0.97,0.9457,0.9028,0.8784,0.8662,0.7104,0.5452,0.3756,0.2896,0.1911,0.0802,0.037,0.0123,0.0,0.0,-0.0122,-0.0362,-0.0296,-0.0583,-0.1094,-0.13,-0.185,-0.2577,-0.2912,-0.3694,-0.4756,-0.5031,-0.5757,-0.671,-0.6988,-0.7432,-0.7986,0.0,0.0,0.0,0.0,0.0,0.0,0.0,0.5395,0.5395,0.5395,0.5528,0.5644,0.5786,0.0,0.0,0.0,0.0,0.0,0.0,0.0,0.0,0.0,0.0,0.0,0.0,0.0,0.6773,0.6883,0.7021,0.7021,0.6883,0.6883,0.6844,0.6698,0.0,0.0,0.0,0.0,0.0,0.0,0.0,0.0,0.0,0.0,0.0,0.0,0.0,0.0,0.0,0.0,0.0,0.0,0.0,0.7793,0.7988,0.0,0.7988,0.7988,0.7988,0.7988,0.7988,0.7988,0.7988,0.7988,0.7988,0.816,0.8361,0.8452,0.8604,0.8757,0.8854,0.8885,0.8885,0.8885,0.8885,0.9042,0.934,0.9384,0.9493,0.9785,0.9822,0.9822,0.9822,0.9822,0.9822,0.9822,0.9761,0.964,0.9335,0.8606,0.7328,0.5418,0.4066,0.2773,0.148,0.0802,0.0309,0.0,0.0,0.0,0.0,0.0,-0.0174,-0.0406,-0.0396,-0.0785,-0.1346,-0.1683,-0.2354,-0.3137,-0.347,-0.4364,-0.5427,-0.5701,-0.6204,-0.6771,0.0,0.0,0.0,0.0,0.0,0.0,0.0,0.0,0.5433,0.5539,0.5559,0.0,0.0,0.0,0.0,0.0,0.0,0.0,0.0,0.0,0.0,0.0,0.0,0.0,0.0,0.0,0.6824,0.7031,0.7075,0.7071,0.7031,0.7031,0.6953,0.6858,0.6858,0.6755,0.0,0.0,0.0,0.0,0.0,0.0,0.0,0.0,0.0,0.0,0.0,0.0,0.0,0.0,0.0,0.0,0.0,0.0,0.0,0.7882,0.7907,0.7988,0.7988,0.7988,0.7988,0.7988,0.7988,0.7988,0.7988,0.816,0.8364,0.8452,0.8604,0.8757,0.8854,0.8885,0.8885,0.8885,0.9022,0.9154,0.9354,0.9469,0.9608,0.9798,0.9822,0.9822,0.9822,0.9822,0.9822,0.9822,0.9822,0.9717,0.9503,0.9089,0.7945,0.606,0.4681,0.3343,0.2031,0.1375,0.0777,0.0299,0.0297,0.0177,0.0,0.0,-0.0058,-0.0113,-0.0112,-0.0336,-0.0673,-0.0785,-0.1234,-0.1906,-0.2241,-0.2969,-0.3863,-0.4195,-0.4921,-0.5819,0.0,0.0,0.0,0.0,0.0,0.0,0.0,0.0,0.545,0.5569,0.0,0.0,0.0,0.0,0.0,0.0,0.0,0.0,0.0,0.0,0.0,0.0,0.0,0.0,0.0,0.6756,0.6902,0.7095,0.7095,0.7095,0.7095,0.7095,0.7048,0.6964,0.6964,0.6913,0.0,0.0,0.0,0.0,0.0,0.0,0.1076,0.0,0.0,0.0,0.0,0.0,0.0,0.0,0.0,0.0,0.0,0.0,0.0,0.0,0.787,0.7988,0.7988,0.7988,0.7988,0.7988,0.7988,0.7988,0.7988,0.8201,0.8374,0.8465,0.8648,0.8825,0.8865,0.8885,0.8885,0.8885,0.9015,0.9144,0.9351,0.9462,0.9598,0.9798,0.9822,0.9822,0.9822,0.9822,0.9822,0.9822,0.9771,0.9703,0.9615,0.9199,0.8377,0.7087,0.5766,0.4347,0.2822,0.2177,0.1413,0.0589,0.0468,0.0232,0.0,0.0,0.0,0.0,0.0,-0.0112,0.0,-0.0224,-0.0505,-0.0953,-0.1177,-0.1738,-0.2465,-0.28,-0.347,-0.4196,0.0,0.0,0.0,0.0,0.0,0.0,0.0,0.0,0.0,0.0,0.0,0.0,0.0,0.0,0.0,0.0,0.0,0.0,0.0,0.0,0.0,0.0,0.0,0.0,0.0,0.6858,0.6953,0.7095,0.7095,0.7095,0.7095,0.7095,0.7095,0.7095,0.7095,0.7095,0.0,0.0,0.0,0.0,0.3492,0.2555,0.0,0.0,0.0,0.0,0.0,0.0,0.0,0.0,0.0,0.0,0.0,0.0,0.0,0.0,0.0,0.0,0.0,0.7988,0.7988,0.7988,0.7988,0.7988,0.7988,0.8269,0.0,0.8482,0.8726,0.8885,0.8885,0.8885,0.8885,0.8885,0.8892,0.9049,0.9327,0.9384,0.9503,0.9788,0.9822,0.9822,0.9822,0.9812,0.9805,0.9805,0.9673,0.9588,0.9578,0.9022,0.8587,0.8294,0.7251,0.5731,0.3865,0.3165,0.2229,0.0998,0.0694,0.0344,0.0,0.0056,0.0,0.0,0.0,0.0,0.0,0.0,-0.0169,-0.0393,-0.0393,-0.073,-0.129,-0.157,-0.1905,-0.2184,0.0,0.0,0.0,0.0,0.0,0.0,0.0,0.0,0.0,0.0,0.0,0.0,0.0,0.0,0.0,0.0,0.0,0.0,0.0,0.0,0.0,0.0,0.0,0.0,0.0,0.6869,0.6953,0.7095,0.7095,0.7095,0.7095,0.7095,0.7095,0.7095,0.7095,0.701,0.0,0.0,0.0,0.0,0.4297,0.3449,0.0,0.0,0.0,0.0,0.1436,0.1933,0.0,0.0,0.0,0.0,0.0,0.0,0.0,0.0,0.7834,0.7988,0.7988,0.0,0.7988,0.7988,0.7988,0.7988,0.0,0.8269,0.8482,0.8482,0.8726,0.8885,0.8885,0.8885,0.8885,0.8885,0.9032,0.9183,0.9255,0.9408,0.9622,0.9798,0.9822,0.9822,0.9822,0.9724,0.9659,0.9659,0.952,0.9384,0.9323,0.9134,0.8874,0.8484,0.8174,0.7174,0.5316,0.4696,0.3681,0.2267,0.1921,0.1241,0.0282,0.0281,0.0168,0.0,0.0,0.0,0.0,0.0,-0.0058,-0.0114,-0.0114,-0.0284,-0.0617,-0.0673,-0.1065,-0.1514,0.0,0.0,0.0,0.0,0.0,0.0,0.0,0.0,0.0,0.0,0.0,0.0,0.0,0.0,0.0,0.0,0.0,0.0,0.0,0.0,0.0,0.0,0.0,0.0,0.6883,0.695,0.7018,0.7095,0.7095,0.7095,0.7095,0.7095,0.7095,0.7095,0.7095,0.7054,0.0,0.0,0.0,0.0,0.5172,0.0,0.0,0.0,0.0,0.0,0.166,0.2107,0.0,0.4429,0.5411,0.6035,0.0,0.0,0.0,0.0,0.7807,0.7988,0.7988,0.7988,0.8008,0.813,0.8092,0.8008,0.813,0.8319,0.8482,0.8482,0.8726,0.8885,0.8885,0.8885,0.8885,0.8885,0.9005,0.9132,0.937,0.9585,0.9766,1.0021,1.0031,0.9972,0.9793,0.9724,0.9621,0.9503,0.9364,0.9299,0.9214,0.9089,0.8962,0.8712,0.8712,0.7875,0.6207,0.5759,0.481,0.3302,0.2858,0.2074,0.1009,0.0729,0.0451,0.0171,0.0058,0.0,0.0,0.0,0.0,0.0,0.0,-0.0114,-0.0227,-0.0225,-0.0449,-0.0729,0.0,0.0,0.0,0.0,0.0,0.0,0.0,0.0,0.0,0.0,0.0,0.0,0.0,0.0,0.0,0.0,0.0,0.0,0.0,0.0,0.0,0.0,0.0,0.6916,0.6916,0.7034,0.7095,0.7095,0.7095,0.7095,0.7095,0.7095,0.7095,0.7095,0.7095,0.7109,0.0,0.0,0.0,0.0,0.6066,0.0,0.0,0.0,0.0,0.0,0.0,0.0,0.0,0.4565,0.5502,0.6216,0.6874,0.0,0.0,0.0,0.0,0.0,0.7982,0.8008,0.8106,0.8238,0.8187,0.8143,0.8272,0.0,0.8516,0.8516,0.8743,0.894,0.8995,0.8992,0.8992,0.9047,0.8992,0.9154,0.9582,0.9778,0.9986,1.0355,1.0416,1.0301,1.0012,0.9874,0.9745,0.9459,0.9262,0.9176,0.9176,0.9005,0.8885,0.8885,0.8885,0.8269,0.699,0.671,0.5815,0.4364,0.3751,0.2913,0.1963,0.1346,0.0852,0.0465,0.0177,0.0059,0.0,0.0,0.0,0.0,0.0,0.0,0.0,0.0,0.0,0.0,0.0,0.0,0.0,0.0,0.0,0.0,0.0,0.0,0.0,0.0,0.0,0.0,0.0,0.0,0.0,0.0,0.0,0.0,0.0,0.0,0.0,0.0,0.7065,0.7065,0.7065,0.7085,0.7095,0.7095,0.7095,0.7095,0.7095,0.7095,0.7095,0.7095,0.7095,0.7214,0.7336,0.0,0.0,0.7085,0.681,0.0,0.0,0.0,0.0,0.0,0.0,0.0,0.0,0.4835,0.5683,0.6216,0.6874,0.0,0.0,0.0,0.0,0.0,0.7955,0.8136,0.8241,0.8316,0.8343,0.8421,0.8445,0.8567,0.8676,0.0,0.8815,0.8992,0.9268,0.9323,0.9379,0.9651,0.9489,0.9488,0.9871,0.9964,1.0194,1.0912,1.0989,1.0985,1.0932,1.0341,0.9862,0.9582,0.9164,0.8971,0.8971,0.8895,0.8885,0.8885,0.8885,0.8657,0.8208,0.7875,0.7154,0.5926,0.5316,0.4311,0.2858,0.2299,0.1591,0.0814,0.0483,0.0183,0.0,0.0,0.0,0.0,0.0,0.0,0.0,0.0,0.0,0.0,0.0,0.0,0.0,0.0,0.0,0.0,0.0,0.0,0.0,0.0,0.0,0.0,0.0,0.0,0.0,0.0,0.0,0.0,0.0,0.0,0.0,0.7095,0.7095,0.7095,0.7095,0.7021,0.698,0.698,0.698,0.698,0.6984,0.7061,0.7139,0.7265,0.7265,0.735,0.7499,0.7577,0.7601,0.7518,0.0,0.0,0.0,0.0,0.0,0.0,0.0,0.0,0.0,0.0,0.5991,0.6571,0.6966,0.0,0.0,0.0,0.0,0.0,0.7948,0.8208,0.8384,0.8384,0.8435,0.8503,0.8587,0.8659,0.871,0.871,0.8832,0.8992,0.9323,0.9379,0.9489,0.9761,0.9871,1.0008,1.0306,1.0647,1.1116,1.1703,1.1939,1.1939,1.1604,1.097,1.0421,1.0036,0.9473,0.9158,0.9158,0.8992,0.8885,0.8885,0.8885,0.8826,0.8712,0.8546,0.7989,0.699,0.6376,0.5485,0.4314,0.3363,0.2507,0.1642,0.0973,0.0492,0.0244,0.0062,0.0,0.0,0.0,0.0,0.0,0.0,0.0,0.0,0.0,0.0,0.0,0.0,0.0,0.0,0.0,0.0,0.0,0.0,0.0,0.0,0.0,0.0,0.0,0.0,0.0,0.0,0.0,0.0,0.7095,0.7095,0.7095,0.7082,0.7048,0.6943,0.6869,0.6832,0.6832,0.6852,0.6889,0.7068,0.7258,0.7419,0.7453,0.7509,0.7655,0.7767,0.7831,0.7816,0.0,0.0,0.0,0.0,0.0,0.0,0.0,0.0,0.0,0.0,0.0,0.0,0.0,0.0,0.0,0.7502,0.7648,0.7794,0.7894,0.8204,0.8438,0.8472,0.8537,0.8618,0.8737,0.8764,0.8764,0.8764,0.8804,0.9047,0.9434,0.971,0.9981,1.0198,1.0472,1.0747,1.0966,1.1509,1.211,1.2762,1.3039,1.3039,1.2654,1.1946,1.1291,1.0747,1.0091,0.9655,0.9599,0.9213,0.8995,0.8995,0.8937,0.8885,0.8885,0.8885,0.8549,0.7826,0.7268,0.6548,0.5656,0.4538,0.3524,0.2569,0.164,0.0986,0.0553,0.0247,0.0062,0.0,0.0,0.0,0.0,0.0,0.0,0.0,0.0,0.0,0.0,0.0,0.0,0.0,0.0,0.0,0.0,0.0,0.0,0.0,0.0,0.0,0.0,0.0,0.0,0.0,0.0,0.0,0.7095,0.7095,0.7095,0.7034,0.6903,0.6889,0.6858,0.6715,0.6715,0.679,0.6893,0.7221,0.7405,0.7422,0.7519,0.7662,0.7797,0.7807,0.7892,0.7975,0.7975,0.0,0.0,0.0,0.0,0.0,0.0,0.0,0.0,0.0,0.0,0.0,0.0,0.0,0.7142,0.7343,0.7495,0.7645,0.7787,0.8052,0.8371,0.8448,0.8696,0.8854,0.8865,0.8868,0.8868,0.8868,0.8875,0.9103,0.9651,1.0692,1.1459,1.1459,1.1678,1.1896,1.1896,1.2427,1.3132,1.3948,1.4116,1.4169,1.4385,1.3403,1.2536,1.1946,1.1076,1.0472,1.0257,0.9655,0.9379,0.9379,0.9047,0.8885,0.8885,0.8885,0.8768,0.8429,0.81,0.7429,0.6591,0.5654,0.4603,0.3444,0.2587,0.1715,0.0847,0.0552,0.0309,0.0,0.0,0.0,0.0,0.0,0.0,0.0,0.0,0.0,0.0,0.0,0.0,0.0,0.0,0.0,0.0,0.0,0.0,0.0,0.0,0.0,0.0,0.0,0.0,0.0,0.0,0.0,0.7004,0.7092,0.7095,0.7031,0.6889,0.6834,0.6759,0.6702,0.6702,0.6824,0.7021,0.7275,0.7421,0.7519,0.7668,0.7814,0.7904,0.7904,0.7938,0.7988,0.7988,0.7769,0.0,0.0,0.0,0.0,0.0,0.0,0.0,0.0,0.6789,0.701,0.7098,0.7095,0.7146,0.7438,0.7553,0.7651,0.7889,0.8174,0.8414,0.8469,0.8713,0.8885,0.8885,0.8885,0.8885,0.8885,0.8885,0.9103,0.9706,1.0802,1.1623,1.1623,1.2114,1.2604,1.2767,1.3619,1.4422,1.4917,1.5298,1.5458,1.5405,1.4541,1.3786,1.3413,1.2219,1.1404,1.1131,1.0202,0.9599,0.9379,0.9051,0.8885,0.8885,0.8885,0.8826,0.8768,0.8432,0.8039,0.7476,0.6594,0.5652,0.4658,0.3569,0.2591,0.1741,0.1209,0.0724,0.024,0.006,0.0,0.0,0.0,0.0,0.0,0.0,0.0,0.0,0.0,0.0,0.0,0.0,0.0,0.0,0.0,0.0,0.0,0.0,0.0,0.0,0.0,0.0,0.0,0.0,0.6832,0.693,0.7024,0.7071,0.7051,0.6953,0.6851,0.6749,0.6702,0.6749,0.6875,0.7034,0.7278,0.7428,0.7536,0.7678,0.7801,0.7853,0.7897,0.7917,0.7921,0.7971,0.7851,0.0,0.0,0.0,0.0,0.0,0.0,0.0,0.0,0.6966,0.7095,0.7095,0.7095,0.7146,0.7451,0.756,0.7665,0.7911,0.8225,0.8438,0.853,0.8713,0.8824,0.8871,0.8885,0.8885,0.8885,0.9047,0.9323,0.9871,1.0911,1.1732,1.1841,1.2762,1.3472,1.3689,1.4702,1.5553,1.5826,1.6205,1.6371,1.6318,1.5624,1.503,1.4761,1.3576,1.2599,1.2164,1.1017,1.0143,0.9706,0.9268,0.8992,0.8885,0.8885,0.8885,0.8885,0.8712,0.8484,0.8143,0.7423,0.6649,0.5766,0.4763,0.3764,0.2816,0.2187,0.1419,0.0648,0.0295,0.0119,0.012,0.0059,0.0,0.0,0.0,0.0,0.0,0.0,0.0,0.0,0.0,0.0,0.0,0.0,0.0,0.0,0.0,0.0,0.0,0.0,0.0,0.0,0.0,0.6756,0.6883,0.6886,0.7018,0.7095,0.7095,0.696,0.6854,0.6702,0.6854,0.6886,0.6896,0.7234,0.7415,0.7426,0.7533,0.76,0.7607,0.775,0.7811,0.7824,0.7928,0.7897,0.7797,0.0,0.0,0.0,0.0,0.0,0.0,0.0,0.7095,0.7095,0.7098,0.0,0.7129,0.7329,0.7485,0.7668,0.7914,0.8153,0.8343,0.8638,0.8713,0.8754,0.8848,0.8885,0.8885,0.8885,0.9375,0.9871,1.0257,1.124,1.206,1.2327,1.363,1.4606,1.4606,1.5571,1.643,1.6677,1.673,1.6842,1.7173,1.6643,1.6217,1.5945,1.5089,1.4218,1.3349,1.2214,1.1185,1.0366,0.971,0.9268,0.8885,0.8885,0.8885,0.8885,0.8885,0.8768,0.8484,0.8143,0.7531,0.6702,0.6163,0.5214,0.3988,0.3446,0.245,0.1237,0.0648,0.0412,0.0353,0.0118,0.0,0.0,0.0,0.0,0.0,0.0,0.0,0.0,0.0,0.0,0.0,0.0,0.0,0.0,0.0,0.0,0.0,0.0,0.0,0.0,0.0,0.6556,0.6705,0.6876,0.6927,0.6994,0.7095,0.7055,0.6964,0.6861,0.7076,0.7239,0.7311,0.7735,0.7783,0.7601,0.7759,0.7738,0.7604,0.7645,0.7719,0.7814,0.7862,0.7916,0.7907,0.0,0.0,0.0,0.0,0.0,0.0,0.0,0.0,0.0,0.7268,0.0,0.7353,0.7607,0.779,0.7953,0.8147,0.8387,0.8601,0.8689,0.8791,0.8828,0.8871,0.8885,0.8885,0.8885,0.9213,0.9541,0.9651,1.0582,1.1509,1.206,1.3521,1.4761,1.519,1.6211,1.6961,1.706,1.7219,1.7371,1.7483,1.7173,1.6908,1.6802,1.5832,1.4917,1.4272,1.2925,1.1782,1.0911,1.0091,0.9541,0.9268,0.8995,0.8885,0.8885,0.8885,0.8881,0.8768,0.8484,0.8091,0.7587,0.7043,0.6207,0.5198,0.4002,0.3139,0.2492,0.1699,0.1245,0.102,0.0546,0.0365,0.0305,0.0,0.0,0.0,0.0,0.0,0.0,0.0,0.0,0.0,0.0,0.0,0.6426,0.0,0.0,0.0,0.0,0.0,0.0,0.0,0.0,0.6647,0.6831,0.6906,0.7007,0.7095,0.7095,0.7055,0.697,0.7231,0.741,0.7507,0.7871,0.787,0.7645,0.7829,0.7784,0.7565,0.7717,0.784,0.7928,0.7842,0.7914,0.8034,0.0,0.0,0.0,0.0,0.0,0.0,0.0,0.0,0.0,0.7431,0.0,0.7509,0.7743,0.787,0.8035,0.8296,0.853,0.8723,0.8784,0.8814,0.8885,0.8885,0.8885,0.8885,0.8885,0.9158,0.9379,0.9379,1.0308,1.1295,1.1896,1.357,1.497,1.5559,1.6636,1.7384,1.7384,1.7483,1.7582,1.7582,1.743,1.7384,1.7384,1.6636,1.5885,1.5137,1.3954,1.2708,1.1509,1.0637,0.9926,0.9379,0.9051,0.8885,0.8885,0.8885,0.8885,0.8881,0.8712,0.8484,0.8143,0.759,0.6974,0.6246,0.4972,0.4276,0.3929,0.2778,0.2178,0.1796,0.0973,0.0614,0.0432,0.0,0.0,0.6115,0.6293,0.0,0.0,0.0,0.0,0.0,0.63,0.63,0.63,0.0,0.0,0.0,0.63,0.0,0.0,0.0,0.0,0.6685,0.6702,0.694,0.7095,0.7095,0.7095,0.7095,0.7095,0.7411,0.7551,0.7551,0.7856,0.7856,0.7639,0.79,0.7856,0.7602,0.7971,0.8136,0.8117,0.798,0.8044,0.8124,0.776,0.0,0.0,0.0,0.0,0.0,0.0,0.0,0.0,0.7614,0.7617,0.7648,0.779,0.795,0.8089,0.8408,0.8604,0.8764,0.8848,0.8885,0.8885,0.8885,0.8885,0.8885,0.8885,0.9158,0.9379,0.9379,1.0253,1.1236,1.1841,1.3614,1.5173,1.5832,1.6842,1.7582,1.7582,1.7582,1.7582,1.7582,1.7582,1.7582,1.7582,1.7325,1.6855,1.5998,1.5137,1.39,1.2219,1.1291,1.0363,0.9489,0.9103,0.8937,0.8885,0.8885,0.8885,0.8885,0.8885,0.8768,0.8484,0.7916,0.7526,0.7252,0.6311,0.5815,0.5435,0.3935,0.3129,0.2707,0.1498,0.0852,0.0552,0.0,0.0,0.6386,0.646,0.0,0.0,0.0,0.0,0.63,0.63,0.63,0.63,0.63,0.63,0.0,0.63,0.63,0.0,0.0,0.0,0.6573,0.6695,0.694,0.7095,0.7095,0.7095,0.7095,0.7095,0.7588,0.7896,0.8069,0.8468,0.8648,0.8604,0.8648,0.8556,0.8376,0.846,0.8426,0.8329,0.8132,0.8012,0.7935,0.7828,0.7716,0.0,0.0,0.0,0.0,0.0,0.0,0.0,0.7729,0.7767,0.7794,0.7897,0.8177,0.8401,0.8465,0.8682,0.8844,0.8875,0.8885,0.8885,0.8885,0.8885,0.8885,0.8885,0.894,0.8992,0.8992,0.9816,1.0747,1.1568,1.3192,1.4756,1.5779,1.669,1.7384,1.7582,1.7582,1.7582,1.7582,1.7582,1.7582,1.7582,1.7325,1.7014,1.6577,1.5773,1.4702,1.3403,1.2268,1.1185,1.0147,0.9544,0.9158,0.8885,0.8885,0.8885,0.8885,0.8885,0.8881,0.8771,0.8429,0.826,0.8149,0.749,0.7046,0.672,0.5694,0.4827,0.3996,0.2803,0.1919,0.1133,0.0,0.0,0.0,0.0,0.0,0.0,0.0,0.0,0.6426,0.6501,0.6446,0.6402,0.6402,0.634,0.0,0.0,0.63,0.6327,0.0,0.0,0.0,0.0,0.0,0.0,0.0,0.0,0.0,0.7095,0.7841,0.8197,0.8201,0.8907,0.9168,0.9087,0.9526,0.9513,0.9244,0.9375,0.9262,0.8913,0.8463,0.8163,0.7959,0.7714,0.7641,0.7709,0.7784,0.0,0.0,0.0,0.0,0.0,0.0,0.0,0.7887,0.7968,0.8201,0.8394,0.8465,0.8652,0.8849,0.8865,0.8885,0.8885,0.8885,0.8885,0.8885,0.8885,0.8885,0.8885,0.8885,0.9655,1.0527,1.124,1.2975,1.4541,1.5565,1.6583,1.7279,1.7582,1.7582,1.7582,1.7582,1.7582,1.7582,1.7582,1.7483,1.7272,1.6955,1.6264,1.5351,1.4164,1.2861,1.1614,1.0472,0.9765,0.9213,0.8885,0.8885,0.8885,0.8885,0.8885,0.8885,0.8881,0.8768,0.8712,0.8657,0.8214,0.7934,0.7715,0.6659,0.5808,0.5001,0.3686,0.259,0.1707,0.0,0.0,0.0,0.0,0.0,0.0,0.0,0.0,0.0,0.6685,0.6566,0.6511,0.6511,0.6385,0.63,0.0,0.0,0.0,0.6467,0.0,0.0,0.0,0.0,0.0,0.0,0.0,0.0,0.7095,0.7986,0.845,0.8424,0.9454,0.9867,0.9804,1.0593,1.0686,1.0299,1.0439,1.0164,0.9646,0.8982,0.8508,0.8155,0.7756,0.77,0.7828,0.788,0.7933,0.7988,0.7988,0.0,0.0,0.0,0.0,0.7988,0.7939,0.8049,0.8248,0.834,0.8505,0.8723,0.8851,0.8885,0.8885,0.8885,0.8885,0.8885,0.8885,0.8885,0.8885,0.8885,0.9596,1.0366,1.0907,1.2649,1.4218,1.5185,1.6318,1.7173,1.7483,1.7582,1.7582,1.7582,1.7582,1.7582,1.7582,1.7582,1.7483,1.7279,1.6749,1.5945,1.4761,1.3452,1.2096,1.0802,0.9981,0.9323,0.8885,0.8885,0.8885,0.8885,0.8885,0.8885,0.8885,0.8885,0.8885,0.8881,0.8654,0.8543,0.8488,0.7435,0.6654,0.5934,0.4524,0.335,0.2389,0.0,0.0,0.0,0.0,0.0,0.0,0.0,0.0,0.0,0.0,0.6566,0.6511,0.6511,0.6385,0.63,0.63,0.63,0.631,0.0,0.0,0.0,0.0,0.0,0.0,0.0,0.0,0.0,0.7095,0.7867,0.8565,0.9197,1.0524,1.1344,1.1764,1.2076,1.2059,1.1794,1.137,1.0809,1.0164,0.9641,0.9091,0.8533,0.8517,0.8239,0.7939,0.8206,0.8166,0.7988,0.7988,0.7988,0.0,0.0,0.0,0.7939,0.7743,0.7794,0.7933,0.7768,0.8097,0.8572,0.8819,0.8885,0.8885,0.8885,0.8885,0.8885,0.8885,0.8885,0.8885,0.8885,0.9213,0.9816,1.0637,1.1823,1.3122,1.4546,1.5678,1.6643,1.7179,1.7483,1.7582,1.7582,1.7582,1.7582,1.7582,1.7582,1.7582,1.7536,1.7279,1.6583,1.5405,1.4433,1.3029,1.1072,1.0476,0.9761,0.8885,0.8885,0.8885,0.8885,0.8885,0.8885,0.8885,0.8885,0.8885,0.8885,0.8881,0.8826,0.8826,0.8432,0.7773,0.6911,0.5928,0.4667,0.3277,0.0,0.0,0.0,0.0,0.0,0.0,0.0,0.0,0.0,0.0,0.0,0.66,0.66,0.6508,0.6385,0.6306,0.63,0.0,0.0,0.0,0.0,0.0,0.0,0.0,0.0,0.0,0.0,0.7323,0.8164,0.9107,1.0113,1.1662,1.2363,1.2374,1.3134,1.3297,1.2871,1.249,1.1923,1.1208,1.0641,1.0067,0.9527,0.9301,0.9004,0.8735,0.8545,0.841,0.8187,0.8038,0.7988,0.7988,0.7988,0.0,0.0,0.0,0.7638,0.7734,0.7642,0.8003,0.8446,0.8637,0.8771,0.8885,0.8885,0.8885,0.8885,0.8885,0.8885,0.8885,0.8885,0.9158,0.9655,1.0363,1.1455,1.2698,1.4169,1.5357,1.6377,1.7126,1.743,1.7582,1.7582,1.7582,1.7582,1.7582,1.7582,1.7582,1.7582,1.7331,1.6749,1.5779,1.4702,1.329,1.1378,1.068,0.9809,0.8885,0.8885,0.8885,0.8885,0.8885,0.8885,0.8885,0.8885,0.8885,0.8885,0.8885,0.8885,0.8881,0.8598,0.8152,0.7551,0.6651,0.5684,0.4704,0.0,0.0,0.0,0.0,0.0,0.0,0.0,0.0,0.0,0.0,0.0,0.6702,0.6702,0.0,0.0,0.0,0.63,0.0,0.0,0.0,0.0,0.0,0.0,0.0,0.0,0.0,0.7231,0.7507,0.8378,0.9451,1.0745,1.2355,1.3118,1.3119,1.413,1.433,1.3881,1.3591,1.3047,1.2351,1.1782,1.1306,1.0843,1.045,1.0057,0.9618,0.9137,0.8712,0.8382,0.8088,0.7988,0.7988,0.7988,0.7965,0.0,0.0,0.0,0.7238,0.7284,0.7615,0.8033,0.8297,0.8572,0.8826,0.8881,0.8885,0.8885,0.8885,0.8885,0.8885,0.8885,0.9103,0.9434,0.9981,1.0966,1.2164,1.357,1.4809,1.5945,1.6855,1.7272,1.7536,1.7582,1.7582,1.7582,1.7582,1.7582,1.7582,1.7582,1.743,1.6908,1.6051,1.497,1.355,1.1796,1.0672,0.9702,0.8885,0.8885,0.8885,0.8885,0.8885,0.8885,0.8885,0.8885,0.8885,0.8885,0.8885,0.8885,0.8881,0.8657,0.8432,0.8045,0.7324,0.6652,0.598,0.0,0.0,0.0,0.0,0.0,0.0,0.0,0.0,0.0,0.0,0.0,0.6702,0.6702,0.6563,0.6457,0.6313,0.63,0.0,0.0,0.0,0.0,0.0,0.0,0.0,0.0,0.7095,0.7231,0.7507,0.8252,0.9317,1.074,1.2221,1.3501,1.459,1.5139,1.5239,1.4963,1.4456,1.3968,1.3498,1.3194,1.2842,1.244,1.2325,1.1492,1.0404,1.005,0.9257,0.8382,0.8088,0.7988,0.7988,0.7988,0.7891,0.7754,0.0,0.0,0.0,0.6375,0.6695,0.7191,0.7795,0.8224,0.8598,0.8826,0.8885,0.8885,0.8885,0.8885,0.8885,0.8885,0.894,0.9047,0.9379,1.0202,1.1181,1.2309,1.3727,1.5089,1.6217,1.6855,1.7331,1.7582,1.7582,1.7582,1.7582,1.7582,1.7582,1.7582,1.7582,1.716,1.6324,1.5399,1.4137,1.2394,1.0417,0.9279,0.8885,0.8885,0.8885,0.8885,0.8885,0.8885,0.8885,0.8885,0.8885,0.8885,0.8885,0.8885,0.8885,0.8881,0.8712,0.8429,0.8045,0.7598,0.6988,0.0,0.0,0.0,0.0,0.0,0.0,0.0,0.0,0.0,0.0,0.0,0.0,0.0,0.6712,0.6559,0.645,0.6354,0.0,0.0,0.0,0.0,0.0,0.0,0.0,0.0,0.7095,0.7319,0.7768,0.8332,0.9376,1.0905,1.2275,1.3551,1.475,1.535,1.5525,1.5252,1.4956,1.4578,1.4256,1.4201,1.3974,1.3676,1.3446,1.2642,1.1498,1.0656,0.9741,0.8787,0.8339,0.8123,0.7971,0.7923,0.7855,0.7676,0.6997,0.6405,0.5924,0.5765,0.611,0.6674,0.7257,0.788,0.8491,0.8806,0.8885,0.8885,0.8885,0.8885,0.8885,0.8885,0.8885,0.8995,0.9323,0.9981,1.0852,1.1996,1.3408,1.4761,1.5891,1.6749,1.7331,1.7582,1.7582,1.7582,1.7582,1.7582,1.7582,1.7582,1.7582,1.7213,1.6324,1.5666,1.4089,1.1588,1.015,0.9227,0.8885,0.8885,0.8885,0.8885,0.8885,0.8885,0.8885,0.8885,0.8885,0.8885,0.8885,0.8885,0.8885,0.8885,0.8826,0.8712,0.8432,0.8208,0.7931,0.0,0.0,0.0,0.7541,0.0,0.733,0.7085,0.7015,0.7011,0.6929,0.0,0.0,0.0,0.0,0.6715,0.6563,0.6504,0.645,0.645,0.0,0.0,0.0,0.0,0.0,0.0,0.7095,0.7319,0.7768,0.8332,0.9341,1.0786,1.2153,1.3365,1.4465,1.5213,1.5538,1.5545,1.5398,1.5193,1.5015,1.5168,1.5074,1.4808,1.4496,1.3681,1.2494,1.1399,1.0339,0.9366,0.8701,0.8394,0.8199,0.8047,0.7847,0.7511,0.6645,0.6037,0.5569,0.504,0.5306,0.5824,0.6338,0.7079,0.7871,0.8346,0.8624,0.8768,0.8768,0.8826,0.8885,0.8885,0.8885,0.8995,0.9213,0.9655,1.0363,1.1404,1.2753,1.4051,1.5298,1.6318,1.7067,1.743,1.7536,1.7582,1.7582,1.7582,1.7582,1.7582,1.7582,1.716,1.6217,1.5446,1.3873,1.145,1.0276,0.9511,0.9054,0.894,0.8885,0.8885,0.8885,0.8885,0.8885,0.8885,0.8885,0.8885,0.8885,0.8885,0.8885,0.8885,0.8885,0.8881,0.8712,0.8654,0.8543,0.7848,0.8014,0.8112,0.7798,0.7927,0.7911,0.7415,0.7322,0.7236,0.6936,0.0,0.0,0.0,0.0,0.0,0.6715,0.6702,0.6702,0.6702,0.6705,0.0,0.0,0.0,0.0,0.7092,0.7095,0.7231,0.7507,0.8245,0.9164,1.0333,1.181,1.3013,1.3935,1.4681,1.5277,1.5758,1.5764,1.5771,1.5804,1.6159,1.6157,1.5885,1.5551,1.4612,1.3356,1.224,1.116,1.0116,0.922,0.8806,0.8681,0.8367,0.7905,0.7205,0.6311,0.5742,0.5214,0.0,0.0,0.0,0.4971,0.5845,0.6753,0.7357,0.7999,0.8478,0.8484,0.8712,0.8885,0.8885,0.8885,0.8885,0.8885,0.9158,0.9706,1.0582,1.1664,1.2906,1.4385,1.5571,1.6483,1.7126,1.743,1.7582,1.7582,1.7582,1.7582,1.7582,1.7582,1.7054,1.5945,1.4829,1.3491,1.2023,1.0906,1.0027,0.9396,0.9054,0.8885,0.8885,0.8885,0.8885,0.8885,0.8885,0.8885,0.8885,0.8885,0.8885,0.8885,0.8885,0.8885,0.8885,0.8885,0.8885,0.8881,0.847,0.8522,0.8468,0.8376,0.8308,0.816,0.7725,0.7647,0.7519,0.0,0.0,0.0,0.7038,0.6947,0.6825,0.6715,0.6702,0.6702,0.6702,0.6803,0.6842,0.6883,0.6984,0.7055,0.7095,0.7095,0.7231,0.7507,0.8245,0.9099,1.0036,1.1734,1.2918,1.3667,1.4596,1.5102,1.5217,1.5424,1.5638,1.5872,1.638,1.6284,1.591,1.6026,1.5199,1.3853,1.2935,1.1782,1.0555,0.9709,0.9177,0.8743,0.8221,0.785,0.7387,0.663,0.5942,0.5207,0.4262,0.0,0.0,0.0,0.0,0.0,0.6988,0.7654,0.8144,0.8465,0.8712,0.8885,0.8885,0.8885,0.8885,0.8885,0.9158,0.9655,1.0312,1.14,1.2595,1.3781,1.5024,1.5939,1.6483,1.7014,1.7331,1.7331,1.7483,1.7582,1.7582,1.743,1.6961,1.6217,1.5074,1.3772,1.2304,1.1173,1.02,0.9396,0.9054,0.8885,0.8885,0.8885,0.8885,0.8885,0.8885,0.8885,0.8885,0.8885,0.8885,0.8885,0.8885,0.8885,0.8885,0.8885,0.8885,0.8881,0.8775,0.8803,0.8867,0.8939,0.8985,0.8855,0.8402,0.8237,0.8024,0.0,0.0,0.0,0.7333,0.7258,0.7146,0.6993,0.698,0.6953,0.6888,0.6923,0.6974,0.6974,0.7051,0.7125,0.7234,0.7238,0.7282,0.7468,0.8265,0.9019,0.9637,1.1462,1.2586,1.3207,1.4211,1.4713,1.4796,1.509,1.5384,1.5712,1.642,1.6456,1.6074,1.6369,1.5832,1.4815,1.3943,1.2886,1.176,1.0746,0.9827,0.8944,0.833,0.7974,0.7604,0.6905,0.6151,0.5305,0.4161,0.3578,0.3285,0.3318,0.0,0.0,0.5523,0.6419,0.7103,0.7445,0.7892,0.8214,0.8214,0.8269,0.8383,0.8383,0.8712,0.921,0.9816,1.0802,1.1782,1.2703,1.3943,1.497,1.5517,1.6264,1.6743,1.6955,1.7272,1.7483,1.7582,1.743,1.7173,1.6696,1.566,1.4576,1.3318,1.1932,1.0863,1.0126,0.9437,0.9099,0.9103,0.894,0.8885,0.8885,0.8885,0.8885,0.8885,0.8885,0.8885,0.8885,0.8885,0.8885,0.8885,0.8885,0.8885,0.8892,0.0,0.913,0.9333,0.9461,0.9721,0.9749,0.9277,0.9015,0.864,0.0,0.7832,0.7647,0.76,0.76,0.7546,0.7453,0.7443,0.7339,0.7156,0.7132,0.7122,0.7122,0.7122,0.7231,0.7412,0.7433,0.7443,0.7443,0.8352,0.8984,0.9297,1.118,1.2359,1.2838,1.3792,1.4329,1.4589,1.4928,1.5164,1.5471,1.6353,1.6563,1.6333,1.6631,1.6418,1.5838,1.4982,1.4164,1.3186,1.1946,1.0466,0.909,0.8505,0.8214,0.7889,0.7187,0.6454,0.5553,0.4137,0.3297,0.264,0.2132,0.2464,0.0,0.3595,0.4752,0.5787,0.6065,0.6638,0.7099,0.7099,0.7268,0.7438,0.7496,0.7989,0.8595,0.9265,1.0088,1.0802,1.1404,1.2703,1.3727,1.4331,1.5244,1.5992,1.6518,1.6955,1.7331,1.7582,1.7582,1.7483,1.7232,1.6362,1.5547,1.4674,1.296,1.1786,1.1126,0.9985,0.9423,0.9379,0.9047,0.8885,0.8885,0.8885,0.8885,0.8885,0.8885,0.8885,0.8885,0.8885,0.8885,0.8885,0.8885,0.8885,0.8905,0.9377,0.9677,0.9908,1.0164,1.0453,1.048,1.004,0.9776,0.9341,0.873,0.82,0.7832,0.7644,0.76,0.7587,0.7556,0.7556,0.7543,0.7512,0.7397,0.7326,0.7326,0.7326,0.7343,0.7415,0.7492,0.7556,0.7556,0.8567,0.9284,0.9742,1.1711,1.2901,1.3401,1.439,1.4867,1.4941,1.5184,1.5344,1.5471,1.6353,1.6563,1.6333,1.6905,1.6749,1.6164,1.5565,1.4756,1.3678,1.1564,1.0136,0.913,0.8749,0.852,0.8346,0.793,0.7128,0.6068,0.5093,0.3737,0.2531,0.2161,0.2166,0.0,0.3018,0.4129,0.5095,0.5496,0.6026,0.6485,0.6485,0.6541,0.6599,0.6826,0.7213,0.782,0.8868,0.9537,1.0198,1.0802,1.1728,1.2595,1.3181,1.4218,1.5083,1.5666,1.6636,1.7331,1.7582,1.7582,1.7483,1.7232,1.6554,1.5777,1.4908,1.3447,1.2327,1.1509,1.0304,0.9596,0.9379,0.9047,0.8885,0.8885,0.8885,0.8885,0.8885,0.8885,0.8885,0.8885,0.8885,0.8885,0.8885,0.8885,0.8885,0.8905,0.9723,1.0019,1.0364,1.09,1.1243,1.1404,1.1293,1.0941,1.047,0.9892,0.9212,0.8735,0.859,0.859,0.8557,0.8522,0.8372,0.8292,0.8207,0.7894,0.7713,0.7713,0.7578,0.7519,0.759,0.7665,0.7706,0.7706,0.8693,0.94,0.9857,1.1849,1.3059,1.3559,1.4559,1.5008,1.5028,1.5277,1.5398,1.5464,1.6192,1.6481,1.6559,1.7001,1.7095,1.6902,1.6477,1.5405,1.39,1.2001,1.0631,0.9693,0.9203,0.8824,0.8544,0.8282,0.7537,0.6529,0.5415,0.4093,0.2769,0.1917,0.1598,0.0,0.0,0.2606,0.3386,0.3713,0.4176,0.4517,0.4479,0.4724,0.5029,0.5304,0.6003,0.6816,0.7706,0.8706,0.9533,0.9981,1.0692,1.14,1.1941,1.292,1.411,1.5565,1.6636,1.7331,1.7582,1.7582,1.7529,1.7378,1.6996,1.6442,1.5825,1.4476,1.3354,1.2635,1.1013,1.0091,0.9816,0.9213,0.8885,0.8885,0.8885,0.8885,0.8885,0.8885,0.8885,0.8885,0.8885,0.8885,0.8885,0.8885,0.8885,0.8915,1.0216,1.0511,1.0962,1.1835,1.2188,1.2497,1.2834,1.2397,1.1806,1.1114,1.0468,1.0025,0.9875,0.9875,0.9867,0.9714,0.9462,0.9251,0.906,0.8548,0.8185,0.8109,0.7824,0.7726,0.7811,0.7838,0.7855,0.7855,0.8873,0.9563,0.9972,1.1982,1.3199,1.371,1.4715,1.513,1.5189,1.5384,1.5478,1.5524,1.6059,1.6446,1.674,1.7152,1.7427,1.7529,1.7173,1.5832,1.4062,1.2654,1.14,1.0366,0.9706,0.918,0.8754,0.8486,0.7863,0.7026,0.5739,0.4455,0.3224,0.1882,0.1292,0.0969,0.0,0.0,0.0,0.1988,0.2273,0.2552,0.2508,0.2907,0.3374,0.3708,0.4632,0.5513,0.6262,0.7482,0.8533,0.9154,0.9702,1.0253,1.0802,1.1837,1.3354,1.5512,1.6483,1.7173,1.7536,1.7582,1.7582,1.7582,1.7338,1.7068,1.6817,1.541,1.4396,1.3781,1.1723,1.0637,1.0257,0.9323,0.8885,0.8885,0.8885,0.8885,0.8885,0.8885,0.8885,0.8885,0.8885,0.8885,0.8885,0.8885,0.8885,0.8925,1.1096,1.1487,1.2134,1.3215,1.3612,1.3945,1.4453,1.4089,1.3276,1.1937,1.1681,1.1475,1.0961,1.0909,1.09,1.093,1.0673,1.0355,1.0073,0.9376,0.8829,0.8439,0.8135,0.7884,0.7814,0.7894,0.7965,0.7965,0.9053,0.9829,1.0391,1.2464,1.3724,1.4255,1.5253,1.5732,1.5732,1.5718,1.5731,1.5812,1.6139,1.6446,1.6767,1.7321,1.7555,1.7477,1.669,1.5624,1.4385,1.3186,1.1991,1.0857,1.0033,0.953,0.9244,0.8913,0.8238,0.7395,0.6729,0.5228,0.3729,0.2784,0.1895,0.1171,0.0948,0.0,0.1336,0.1368,0.0,0.1903,0.1923,0.0,0.0,0.2777,0.3171,0.3797,0.4966,0.5699,0.6755,0.8429,0.8868,0.9313,0.9868,1.1719,1.3349,1.4654,1.5785,1.6643,1.7232,1.7483,1.7582,1.7582,1.7338,1.7186,1.712,1.5678,1.4659,1.4116,1.205,1.0802,1.0257,0.9323,0.8885,0.8885,0.8885,0.8885,0.8885,0.8885,0.8885,0.8885,0.8885,0.8885,0.8885,0.8885,0.8885,0.8925,1.2454,1.2652,1.327,1.4315,1.4775,1.5075,1.543,1.5038,1.4423,1.3698,1.3443,1.3233,1.3028,1.3028,1.3028,1.3028,1.2622,1.2164,1.169,1.0793,1.0006,0.9528,0.9072,0.8638,0.8328,0.8388,0.828,0.7988,0.908,0.9871,1.0462,1.2543,1.3806,1.4352,1.5573,1.6086,1.6099,1.6266,1.6339,1.6359,1.671,1.6904,1.7038,1.7293,1.7435,1.7529,1.7014,1.6211,1.519,1.4218,1.2866,1.1455,1.0582,0.9871,0.9323,0.8992,0.8546,0.7934,0.7213,0.6038,0.4697,0.3304,0.2242,0.1402,0.0785,0.0561,0.0556,0.0542,0.0,0.0,0.0,0.0,0.0,0.0,0.2025,0.2723,0.3691,0.4364,0.5477,0.7485,0.8097,0.8816,0.9981,1.1455,1.2866,1.4002,1.519,1.6105,1.6643,1.7054,1.7265,1.7384,1.7417,1.7364,1.7179,1.6105,1.5083,1.4169,1.2268,1.1021,1.0257,0.9323,0.8885,0.8885,0.8885,0.8885,0.8885,0.8885,0.8885,0.8885,0.8885,0.8885,0.8885,0.8885,0.8885,0.8925,1.4232,1.4192,1.4477,1.546,1.5821,1.5999,1.6285,1.5985,1.5614,1.5255,1.5043,1.4888,1.4831,1.4895,1.4936,1.4936,1.4485,1.3925,1.3273,1.2269,1.1327,1.0552,0.997,0.9421,0.8892,0.8746,0.8516,0.8203,0.9157,0.9969,1.0654,1.2592,1.3806,1.4454,1.5751,1.6321,1.6342,1.6587,1.6707,1.6734,1.7085,1.7246,1.732,1.732,1.7454,1.7582,1.7279,1.6749,1.5992,1.5137,1.384,1.2436,1.14,1.0527,0.9761,0.9213,0.8819,0.8429,0.7654,0.676,0.5646,0.4029,0.2857,0.1906,0.0897,0.0393,0.0111,0.0,0.0,0.0,0.0,0.0,0.0374,0.0697,0.0,0.1674,0.252,0.3137,0.4308,0.6538,0.7432,0.8432,0.9812,1.0903,1.1941,1.3024,1.4266,1.5238,1.5785,1.6365,1.6796,1.702,1.7219,1.7219,1.702,1.6111,1.5137,1.4056,1.2323,1.1076,1.0257,0.9323,0.8885,0.8885,0.8885,0.8885,0.8885,0.8885,0.8885,0.8885,0.8885,0.8885,0.8885,0.8885,0.8908,0.9035,1.6517,1.6081,1.5783,1.6632,1.6742,1.6834,1.7108,1.7147,1.6935,1.6352,1.6246,1.6133,1.5861,1.6091,1.6241,1.6241,1.5984,1.5462,1.4608,1.3714,1.2645,1.1327,1.0728,1.0114,0.9414,0.8955,0.8674,0.8667,0.9314,1.0117,1.1194,1.2786,1.3902,1.4748,1.58,1.6321,1.6342,1.6587,1.6707,1.6734,1.7085,1.7373,1.7569,1.7569,1.7575,1.7582,1.7279,1.6955,1.6571,1.5719,1.4863,1.39,1.2436,1.1564,1.0852,0.9706,0.9151,0.8758,0.8156,0.7324,0.6379,0.5144,0.3918,0.2745,0.157,0.0785,0.0335,0.0055,0.0,0.0,0.0,0.0,0.0107,0.0382,0.0438,0.0,0.0,0.1851,0.3137,0.5532,0.6877,0.7992,0.8868,0.9743,1.0676,1.1618,1.297,1.4002,1.46,1.5458,1.6111,1.6502,1.6636,1.6636,1.6502,1.5529,1.46,1.3727,1.1941,1.0857,1.0257,0.9323,0.8885,0.8885,0.8885,0.8885,0.8885,0.8885,0.8885,0.8885,0.8885,0.8885,0.8885,0.8885,0.9025,0.9224,1.7225,1.7094,1.701,1.7265,1.7337,1.737,1.747,1.7483,1.745,1.7434,1.7412,1.7484,1.7618,1.7721,1.778,1.778,1.7525,1.6981,1.6043,1.521,1.4219,1.2924,1.2354,1.1643,1.0697,1.0476,1.0184,0.9709,1.0472,1.1134,1.1691,0.0,0.0,0.0,1.5996,1.656,1.6593,1.7081,1.7288,1.7295,1.7395,1.7495,1.7582,1.7582,1.7582,1.7582,1.7483,1.7272,1.6908,1.6264,1.5458,1.4476,1.3073,1.205,1.124,1.0257,0.9757,0.9427,0.9044,0.8269,0.7265,0.6093,0.4754,0.336,0.2186,0.1402,0.0893,0.0659,0.0602,0.0599,0.0589,0.0592,0.0543,0.0438,0.0387,0.0446,0.0,0.1402,0.2466,0.3861,0.5648,0.7265,0.854,0.9251,1.0021,1.0966,1.1996,1.2753,1.3127,1.4159,1.4928,1.5315,1.5494,1.5607,1.5708,1.488,1.384,1.254,1.14,1.0417,0.971,0.9158,0.8885,0.8885,0.8885,0.8885,0.8885,0.8885,0.8885,0.8885,0.8885,0.8885,0.8885,0.8885,0.9028,0.9248,1.7549,1.7582,1.7582,1.7582,1.7582,1.7582,1.7582,1.7675,1.7816,1.7969,1.8082,1.8277,1.847,1.8584,1.8644,1.8644,1.8506,1.8062,1.7272,1.6596,1.5735,1.4542,1.4067,1.3217,1.2022,1.1836,1.1491,1.0932,1.1487,1.2152,0.0,0.0,0.0,0.0,1.6351,1.6807,1.6747,1.7335,1.7582,1.7582,1.7582,1.7582,1.7582,1.7582,1.7582,1.7582,1.7582,1.7483,1.7279,1.6802,1.6152,1.5387,1.404,1.3127,1.2323,1.124,1.0692,1.0308,0.9871,0.9096,0.8205,0.7038,0.5757,0.4475,0.3137,0.2465,0.1955,0.1492,0.1378,0.1319,0.1088,0.1041,0.0883,0.0497,0.039,0.0393,0.0,0.0897,0.1682,0.2634,0.4477,0.6204,0.7595,0.8426,0.9199,0.9974,1.0907,1.1505,1.1769,1.2812,1.3689,1.4186,1.4546,1.4595,1.4283,1.3802,1.293,1.1673,1.0802,1.0036,0.9379,0.9047,0.8885,0.8885,0.8885,0.8885,0.8885,0.8885,0.8885,0.8885,0.8885,0.8885,0.8885,0.8885,0.9066,0.9333,1.7602,1.7615,1.7622,1.7622,1.7602,1.7582,1.7582,1.7849,1.7995,1.8009,1.833,1.8517,1.8531,1.8778,1.8945,1.8945,1.8904,1.8706,1.8198,1.783,1.7137,1.6038,1.5671,1.4879,1.3492,1.2993,1.2616,1.2365,1.2405,1.3162,0.0,0.0,0.0,0.0,1.6837,1.7045,1.6767,1.7335,1.7582,1.7582,1.7582,1.7582,1.7582,1.7582,1.7582,1.7582,1.7582,1.7582,1.7582,1.7279,1.7008,1.6518,1.5387,1.4643,1.3948,1.2491,1.1896,1.1459,1.0637,0.9919,0.9196,0.798,0.7038,0.5984,0.4419,0.386,0.3413,0.252,0.2296,0.2129,0.1514,0.1402,0.1177,0.0561,0.0393,0.0393,0.0393,0.0393,0.0841,0.202,0.3474,0.4869,0.6151,0.7321,0.8208,0.8813,0.9754,1.0366,1.0637,1.1459,1.2282,1.3118,1.3725,1.3488,1.2309,1.2337,1.1905,1.1021,1.0198,0.9651,0.9379,0.9047,0.8885,0.8885,0.8885,0.8885,0.8885,0.8885,0.8885,0.8885,0.8885,0.8885,0.8885,0.8898,0.914,0.9422,1.7883,1.811,1.8257,1.8257,1.7883,1.7582,1.7582,1.7849,1.8069,1.8343,1.8631,1.8898,1.9118,1.9212,1.9252,1.9252,1.9261,1.9094,1.8712,1.8454,1.7963,1.7212,1.6903,1.6366,1.5563,1.5203,1.4937,1.4652,1.4677,1.4838,1.5235,0.0,0.0,0.0,1.6886,1.7159,1.7112,1.7428,1.7582,1.7582,1.7582,1.7582,1.7582,1.7582,1.7582,1.7582,1.7582,1.7582,1.7582,1.7279,1.712,1.6849,1.5719,1.5125,1.4583,1.3565,1.2925,1.2441,1.2005,1.1126,1.0139,0.9196,0.8091,0.6927,0.5644,0.5144,0.4756,0.403,0.392,0.3752,0.3138,0.2802,0.2297,0.1234,0.0505,0.0112,0.0112,0.0112,0.0393,0.1121,0.2129,0.3636,0.5701,0.6988,0.7937,0.854,0.9265,0.9655,0.9706,1.0366,1.0798,1.0895,1.1796,1.19,1.1164,1.1126,1.0861,1.037,0.9824,0.9379,0.9047,0.8937,0.8885,0.8885,0.8885,0.8885,0.8885,0.8885,0.8885,0.8885,0.8885,0.8885,0.8908,0.9188,0.9317,0.9422,1.8183,1.8377,1.849,1.849,1.821,1.7976,1.7976,1.8237,1.8435,1.8657,1.8938,1.9185,1.941,1.9424,1.9424,1.9424,1.9424,1.9307,1.912,1.8968,1.8704,1.818,1.8027,1.7597,1.6902,1.6592,1.6343,1.6059,1.5911,1.5972,1.6252,0.0,0.0,0.0,0.0,1.732,1.7219,1.7514,1.7582,1.7582,1.7582,1.7582,0.0,1.7582,1.7582,1.7582,1.7582,1.7582,1.7582,1.743,1.7378,1.7219,1.6471,1.5986,1.5601,1.4857,1.4277,1.3689,1.3137,1.2214,1.1236,1.0245,0.9196,0.8088,0.7038,0.6541,0.6209,0.5596,0.5371,0.5037,0.4311,0.3808,0.3081,0.1738,0.0897,0.0393,0.0393,0.0393,0.0561,0.1009,0.1738,0.2968,0.4808,0.6262,0.7324,0.8045,0.8654,0.9044,0.9158,0.9651,0.9809,0.9574,1.0363,1.0641,1.0296,1.0025,0.9868,0.9824,0.9437,0.9103,0.8885,0.8885,0.8885,0.8885,0.8885,0.8885,0.8885,0.8885,0.8885,0.894,0.9047,0.9103,0.9186,0.9539,0.9673,0.9648,1.8551,1.8637,1.8651,1.8611,1.8637,1.8664,1.8664,1.8811,1.8925,1.8925,1.9185,1.9424,1.9424,1.9424,1.9424,1.9424,1.9424,1.9424,1.9424,1.9424,1.9243,1.8997,1.8997,1.859,1.783,1.756,1.7284,1.7007,1.6677,1.6787,1.7226,0.0,0.0,0.0,0.0,1.7494,1.7273,1.7475,1.7582,1.7582,1.7582,1.7582,1.7582,1.7582,1.7582,1.7582,1.7582,1.7582,1.7582,1.7582,1.7582,1.7529,1.7279,1.7008,1.6683,1.6152,1.5624,1.4982,1.4159,1.33,1.2382,1.1185,1.0249,0.9361,0.8429,0.7989,0.7598,0.6972,0.6631,0.6186,0.5293,0.4524,0.3583,0.2187,0.1514,0.1121,0.1121,0.1121,0.1234,0.1458,0.1963,0.0,0.3863,0.5314,0.6599,0.7551,0.8156,0.8598,0.8881,0.9158,0.921,0.8923,0.9427,0.9706,0.9706,0.9147,0.9096,0.9437,0.9051,0.8885,0.8885,0.8885,0.8885,0.8885,0.8885,0.8885,0.8885,0.8885,0.8885,0.8937,0.9268,0.9434,0.9507,0.9924,1.0148,1.0215,1.9158,1.9406,1.9492,1.9259,1.9412,1.9573,1.9573,1.9199,1.8925,1.8925,1.9185,1.9424,1.9424,1.9424,1.9424,1.9424,1.9424,1.9424,1.9424,1.9424,1.9366,1.9307,1.9307,1.9223,1.9112,1.877,1.848,1.8189,1.7892,1.7622,1.7536,1.7536,0.0,0.0,0.0,1.7555,1.7508,1.7562,1.7582,1.7582,1.7582,1.7582,1.7582,1.7582,1.7582,1.7582,1.7582,1.7582,1.7582,1.7582,1.7582,1.7529,1.7279,1.7179,1.7014,1.6683,1.6318,1.5945,1.5345,1.4541,1.3576,1.2382,1.1455,1.0519,0.942,0.8923,0.8449,0.7735,0.7548,0.7277,0.6406,0.4987,0.3751,0.2969,0.2577,0.2409,0.2409,0.2409,0.2409,0.2465,0.2745,0.3138,0.3642,0.5033,0.6371,0.7496,0.8156,0.8598,0.8881,0.894,0.8937,0.8881,0.8992,0.9047,0.9047,0.8937,0.8937,0.8992,0.8937,0.8885,0.8885,0.8885,0.8885,0.8885,0.8885,0.8885,0.8885,0.8885,0.8885,0.8937,0.9268,0.9544,0.982,1.0343,1.1112,1.1767,1.9786,1.9927,1.998,1.984,1.9933,2.0027,2.0027,1.978,1.9546,1.9399,1.9506,1.9533,1.9444,1.9424,1.9424,1.9424,1.9424,1.9424,1.9424,1.9424,1.9424,1.9424,1.9424,1.9424,1.9424,1.9078,1.8784,1.849,1.8135,1.7883,1.7582,1.7582,1.7582,1.7582,0.0,1.7582,1.7582,1.7582,1.7582,1.7582,1.7582,1.7582,1.7582,1.7582,1.7582,1.7582,1.7582,1.7582,1.7582,1.7582,1.7582,1.7582,1.743,1.7437,1.7378,1.7213,1.6955,1.6696,1.6258,1.5506,1.4648,1.3576,1.254,1.1509,1.0519,0.9738,0.9114,0.8612,0.8214,0.7597,0.6694,0.5488,0.4486,0.4083,0.3808,0.364,0.364,0.364,0.364,0.364,0.3583,0.3752,0.4203,0.4925,0.5761,0.6824,0.7601,0.8211,0.8657,0.8826,0.8885,0.8885,0.8885,0.8885,0.8885,0.8885,0.8885,0.8885,0.8885,0.8885,0.8885,0.8885,0.8885,0.8885,0.8885,0.8885,0.8885,0.8885,0.8992,0.9213,0.971,1.0143,1.0582,1.1291,1.2256,1.3069,2.0327,2.0327,2.0307,2.018,2.0287,2.0327,2.0327,2.0381,2.0294,1.994,1.9893,1.9806,1.9579,1.9553,1.9553,1.9553,1.9553,1.9526,1.9466,1.9459,1.9432,1.943,1.9424,1.9424,1.9424,1.9138,1.8878,1.8584,1.8283,1.7983,1.7675,1.7615,1.7582,1.7582,1.7582,1.7582,1.7582,1.7582,1.7582,1.7582,1.7582,1.7582,1.7582,1.7582,1.7582,1.7582,1.7582,1.7582,1.7582,1.7582,1.7582,1.7582,1.7582,1.7582,1.7582,1.7582,1.743,1.7226,1.6895,1.6305,1.5559,1.4702,1.363,1.2536,1.1566,1.0575,0.9758,0.9264,0.852,0.7694,0.6864,0.6145,0.5593,0.5415,0.5206,0.5093,0.5093,0.5093,0.5037,0.4983,0.4758,0.47,0.5041,0.5096,0.5373,0.6154,0.699,0.7771,0.8374,0.8657,0.8826,0.8885,0.8885,0.8885,0.8885,0.8885,0.8885,0.8885,0.8885,0.8885,0.8885,0.8885,0.8885,0.8885,0.8885,0.8885,0.8885,0.8885,0.9103,0.9434,1.0036,1.0692,1.1345,1.2278,1.3256,1.4132,2.0635,2.0635,2.0548,2.0281,2.0454,2.0635,2.0635,2.0862,2.0822,2.0267,2.0133,2.012,2.0154,2.0154,2.0154,2.0154,2.0154,2.004,1.978,1.976,1.9639,1.9437,1.9424,1.9424,1.9424,1.9339,1.9178,1.8885,1.8591,1.8297,1.7942,1.7716,1.7582,1.7582,1.7582,1.7582,1.7582,1.7582,1.7582,1.7582,1.7582,1.7582,1.7582,1.7582,1.7582,1.7582,1.7582,1.7582,1.7582,1.7582,1.7582,1.7582,1.7582,1.7582,1.7582,1.7582,1.7582,1.7483,1.7226,1.6902,1.6411,1.5559,1.4702,1.368,1.2297,1.1385,1.0485,0.9341,0.8443,0.7759,0.7536,0.7336,0.7125,0.7025,0.6988,0.6932,0.6932,0.6932,0.6821,0.6546,0.649,0.6267,0.5766,0.571,0.5766,0.5822,0.671,0.749,0.8045,0.8374,0.8654,0.8881,0.8885,0.8885,0.8885,0.8885,0.8885,0.8885,0.8885,0.8885,0.8885,0.8885,0.8885,0.8885,0.8885,0.8885,0.8885,0.8885,0.9103,0.9434,1.0036,1.0802,1.1678,1.2827,1.387,1.4937,2.0935,2.0935,2.0902,2.0782,2.0855,2.0935,2.0935,2.1036,2.1022,2.0788,2.0608,2.0434,2.0193,2.0173,2.0173,2.0173,2.0173,2.012,2.0067,2.006,2.0007,1.9887,1.9887,1.9806,1.9633,1.9626,1.9399,1.8925,1.8804,1.851,1.7989,1.7862,1.7762,1.7582,1.7582,1.7582,1.7582,1.7582,1.7582,1.7582,1.7582,1.7582,1.7582,1.7582,1.7582,1.7582,1.7582,1.7582,1.7582,1.7582,1.7582,1.7582,1.7582,1.7582,1.7582,1.7582,1.7582,1.7582,1.7483,1.7219,1.6849,1.6358,1.5613,1.4641,1.3387,1.2178,1.0963,0.9835,0.8542,0.7693,0.7814,0.769,0.7582,0.7677,0.7657,0.7657,0.7657,0.7657,0.7657,0.749,0.7326,0.7104,0.6654,0.632,0.6042,0.5822,0.649,0.7157,0.7715,0.8211,0.8598,0.8881,0.8885,0.8885,0.8885,0.8885,0.8885,0.8885,0.8885,0.8885,0.8885,0.8885,0.8885,0.8885,0.8885,0.8885,0.8885,0.8885,0.9213,0.9706,1.0147,1.0911,1.1951,1.293,1.4096,1.5394,2.1109,2.1109,2.1109,2.1109,2.1109,2.1109,2.1109,2.1109,2.1109,2.1109,2.0935,2.0728,2.0514,2.0426,2.0426,2.0426,2.0426,2.0454,2.0368,2.0361,2.0327,2.0173,2.0173,2.0134,1.9933,1.9846,1.9593,1.9185,1.9005,1.8655,1.8249,1.8162,1.8056,1.7849,1.7849,1.7849,1.7842,1.7756,1.7716,1.7709,1.7615,1.7582,1.7582,1.7582,1.7582,1.7582,1.7582,1.7582,1.7582,1.7582,1.7582,1.7582,1.7582,1.7582,1.7582,1.7582,1.7582,1.7582,1.7582,1.7483,1.7219,1.6955,1.6365,1.5524,1.4363,1.3003,1.1574,1.0007,0.8711,0.7881,0.8115,0.8013,0.7949,0.8222,0.8269,0.8269,0.8269,0.8269,0.8269,0.8269,0.8103,0.7881,0.7598,0.7043,0.6543,0.6212,0.649,0.6937,0.7438,0.8045,0.8543,0.8881,0.8885,0.8885,0.8885,0.8885,0.8885,0.8885,0.8885,0.8885,0.8885,0.8885,0.8885,0.8885,0.8885,0.8885,0.8885,0.8885,0.9213,0.9706,1.0036,1.0802,1.1837,1.2817,1.409,1.5456,2.1109,2.1109,2.1109,2.1109,2.1109,2.1109,2.1109,2.1109,2.1109,2.1109,2.1109,2.1102,2.1096,2.1096,2.1096,2.1096,2.1096,2.0975,2.0688,2.0675,2.0541,2.018,2.0173,2.0173,2.0227,1.9947,1.98,1.9786,1.9205,1.8918,1.8905,1.8617,1.8484,1.8477,1.8477,1.8477,1.8464,1.8163,1.7989,1.7962,1.7709,1.7582,1.7582,1.7582,1.7582,1.7582,1.7582,1.7582,1.7582,1.7582,1.7582,1.7582,1.7582,1.7582,1.7582,1.7582,1.7582,1.7582,1.7582,1.7582,1.7529,1.7279,1.6955,1.6327,1.4966,1.3925,1.2404,0.9751,0.8783,0.8428,0.848,0.8482,0.8581,0.8834,0.8881,0.8881,0.8881,0.8881,0.8881,0.8881,0.8881,0.8768,0.8484,0.7937,0.7493,0.721,0.6879,0.6824,0.721,0.7712,0.8269,0.8881,0.8885,0.8885,0.8885,0.8885,0.8885,0.8885,0.8885,0.8885,0.8885,0.8885,0.8885,0.8885,0.8885,0.8885,0.8885,0.8885,0.9103,0.9434,0.9706,1.0363,1.1236,1.2476,1.3804,1.523,2.1109,2.1109,2.1109,2.1109,2.1109,2.1109,2.1109,2.1109,2.1109,2.1109,2.1109,2.1109,2.1109,2.1109,2.1109,2.1109,2.1109,2.1069,2.0975,2.0969,2.0929,2.0835,2.0828,2.0735,2.0541,2.0247,2.0,1.98,1.9412,1.9125,1.8918,1.8631,1.849,1.849,1.849,1.849,1.8484,1.839,1.835,1.8323,1.8023,1.7849,1.7876,1.7662,1.7582,1.7582,1.7582,1.7582,1.7582,1.7582,1.7582,1.7582,1.7582,1.7582,1.7582,1.7582,1.7582,1.7582,1.7582,1.7582,1.7582,1.7483,1.7272,1.6805,1.5807,1.3902,1.1872,1.0119,0.9272,0.8864,0.8765,0.8676,0.8703,0.8851,0.8885,0.8885,0.8885,0.8885,0.8885,0.8885,0.8885,0.8771,0.854,0.81,0.7771,0.7493,0.7382,0.7382,0.7493,0.7826,0.8269,0.8881,0.8885,0.8885,0.8885,0.8885,0.8885,0.8885,0.8885,0.8885,0.8885,0.8885,0.8885,0.8885,0.8885,0.8885,0.8885,0.8885,0.9103,0.9434,0.9706,1.0308,1.1253,1.2647,1.4049,1.5468,2.1436,2.1436,2.1436,2.1436,2.1436,2.1436,2.1436,2.1343,2.1276,2.1276,2.1182,2.1109,2.1109,2.1109,2.1109,2.1109,2.1109,2.1109,2.1109,2.1109,2.1109,2.1109,2.1109,2.1022,2.0842,2.0548,2.0254,1.996,1.9559,1.9272,1.9085,1.8905,1.8818,1.8818,1.8818,1.8818,1.8811,1.8698,1.8651,1.8624,1.833,1.8089,1.7969,1.7829,1.7689,1.7582,1.7582,1.7582,1.7582,1.7582,1.7582,1.7582,1.7582,1.7582,1.7582,1.7582,1.7582,1.7582,1.7582,1.7582,1.7582,1.7582,1.7483,1.7095,1.6068,1.4225,1.2284,1.0847,1.001,0.9423,0.9075,0.8862,0.876,0.8858,0.8885,0.8885,0.8885,0.8885,0.8885,0.8885,0.8885,0.8826,0.8654,0.8377,0.81,0.7937,0.7826,0.7826,0.7937,0.81,0.8432,0.8881,0.8885,0.8885,0.8885,0.8885,0.8885,0.8885,0.8885,0.8885,0.8885,0.8885,0.8885,0.8885,0.8885,0.8885,0.8885,0.8885,0.9051,0.9268,0.9541,1.0198,1.1152,1.2562,1.4055,1.5581,2.1984,2.1984,2.1984,2.1984,2.1984,2.1984,2.1984,2.1822,2.1648,2.1648,2.1343,2.1162,2.1142,2.1136,2.1129,2.1109,2.1109,2.1109,2.1109,2.1109,2.1109,2.1109,2.1109,2.1109,2.1109,2.0822,2.0521,2.014,1.9659,1.9444,1.9424,1.9424,1.9424,1.9424,1.9424,1.9424,1.941,1.9072,1.8951,1.8925,1.8637,1.835,1.8049,1.8029,1.7896,1.7642,1.7642,1.7642,1.7642,1.7642,1.7635,1.7615,1.7615,1.7602,1.7582,1.7582,1.7582,1.7582,1.7582,1.7582,1.7582,1.7582,1.7582,1.7239,1.5958,1.4774,1.3526,1.1958,1.0928,1.0108,0.9376,0.8986,0.8774,0.8861,0.8885,0.8885,0.8885,0.8885,0.8885,0.8885,0.8885,0.8885,0.8885,0.8657,0.854,0.854,0.8266,0.8211,0.8484,0.854,0.8654,0.8881,0.8885,0.8885,0.8885,0.8885,0.8885,0.8885,0.8885,0.8885,0.8885,0.8885,0.8885,0.8885,0.8885,0.8885,0.8885,0.8885,0.894,0.8995,0.9323,1.0044,1.1008,1.2409,1.402,1.5722,2.1984,2.1984,2.1984,2.1984,2.1984,2.1984,2.1984,2.1931,2.1884,2.1884,2.1824,2.1697,2.147,2.145,2.1356,2.1129,2.1109,2.1109,2.1109,2.1109,2.1109,2.1109,2.1109,2.1109,2.1109,2.0822,2.0421,1.99,1.9766,1.9586,1.9424,1.9424,1.9424,1.9424,1.9424,1.9424,1.9366,1.9292,1.9265,1.9239,1.8938,1.8778,1.8635,1.847,1.8343,1.8277,1.8277,1.8277,1.8277,1.8277,1.8123,1.7936,1.7936,1.7776,1.7582,1.7582,1.7582,1.7582,1.7582,1.7582,1.7582,1.7582,1.743,1.7095,1.6386,1.5497,1.4401,1.3023,1.1978,1.1053,0.9984,0.9508,0.9171,0.8933,0.8885,0.8885,0.8885,0.8885,0.8885,0.8885,0.8885,0.8885,0.8885,0.8826,0.8826,0.8826,0.8716,0.8716,0.8826,0.8826,0.8826,0.8885,0.8885,0.8885,0.8885,0.8885,0.8885,0.8885,0.8885,0.8885,0.8885,0.8885,0.8885,0.8885,0.8885,0.8885,0.8885,0.8885,0.9106,0.9382,0.9871,1.0884,1.2196,1.3851,1.5444,1.6957,2.2385,2.2385,2.2385,2.2385,2.2385,2.2385,2.2385,2.2271,2.2184,2.2184,2.2071,2.1924,2.177,2.1695,2.1554,2.1329,2.1189,2.1109,2.1109,2.1109,2.1109,2.1109,2.1109,2.1109,2.1109,2.0955,2.0655,2.0201,1.9933,1.972,1.9559,1.9491,1.9424,1.9424,1.9424,1.9424,1.9424,1.9424,1.9424,1.9352,1.9192,1.9045,1.8905,1.8744,1.8604,1.849,1.849,1.849,1.849,1.849,1.8384,1.8223,1.8035,1.7876,1.7769,1.7622,1.7582,1.7582,1.7582,1.7582,1.7582,1.7582,1.7483,1.7285,1.6873,1.6206,1.5264,1.4019,1.2815,1.1661,1.0542,0.9808,0.9268,0.894,0.8885,0.8885,0.8885,0.8885,0.8885,0.8885,0.8885,0.8885,0.8885,0.8885,0.8885,0.8885,0.8885,0.8885,0.8885,0.8885,0.8885,0.8885,0.8885,0.8885,0.8885,0.8885,0.8885,0.8885,0.8885,0.8885,0.8885,0.8885,0.8885,0.8885,0.8885,0.8885,0.8885,0.8885,0.9217,0.9669,1.0231,1.1257,1.2613,1.4277,1.5857,1.7295,2.2928,2.2928,2.2928,2.2928,2.2928,2.2928,2.2928,2.2645,2.2485,2.2485,2.2271,2.2104,2.2058,2.183,2.1715,2.1628,2.1323,2.1156,2.1109,2.1109,2.1109,2.1109,2.1109,2.1109,2.1109,2.1109,2.0969,2.0675,2.0174,1.9887,1.98,1.9546,1.947,1.9424,1.9424,1.9424,1.9424,1.9424,1.9424,1.9424,1.9424,1.9219,1.8991,1.8991,1.8838,1.8624,1.8624,1.8624,1.8624,1.8624,1.8591,1.851,1.8209,1.8095,1.7995,1.7742,1.7655,1.7642,1.7595,1.7582,1.7582,1.7582,1.7582,1.7529,1.7331,1.6802,1.6111,1.4982,1.3614,1.2259,1.1017,1.0091,0.9379,0.8995,0.8885,0.8885,0.8885,0.8885,0.8885,0.8885,0.8885,0.8885,0.8885,0.8885,0.8885,0.8885,0.8885,0.8885,0.8885,0.8885,0.8885,0.8885,0.8885,0.8885,0.8885,0.8885,0.8885,0.8885,0.8885,0.8885,0.8885,0.8885,0.8885,0.8885,0.8885,0.8885,0.8885,0.8885,0.9289,0.9935,1.0395,1.1379,1.2711,1.4212,1.5773,1.7235,2.2928,2.2928,2.2928,2.2928,2.2928,2.2928,2.2928,2.2887,2.2792,2.2792,2.2759,2.2632,2.2378,2.2311,2.2084,2.1661,2.1574,2.1376,2.1122,2.1109,2.1109,2.1109,2.1109,2.1109,2.1109,2.1109,2.0969,2.0675,2.0588,2.0287,1.98,1.9753,1.9599,1.9424,1.9424,1.9424,1.9424,1.9424,1.9424,1.9424,1.9424,1.9339,1.9299,1.9299,1.9272,1.9232,1.9232,1.9232,1.9232,1.9232,1.9065,1.8844,1.8804,1.8617,1.8364,1.8009,1.7922,1.7862,1.7655,1.7582,1.7582,1.7582,1.7582,1.7582,1.7536,1.7272,1.6749,1.5618,1.4595,1.3354,1.14,1.0582,0.9871,0.9047,0.8885,0.8885,0.8885,0.8885,0.8885,0.8885,0.8885,0.8885,0.8885,0.8885,0.8885,0.8885,0.8885,0.8885,0.8885,0.8885,0.8885,0.8885,0.8885,0.8885,0.8885,0.8885,0.8885,0.8885,0.8885,0.8885,0.8885,0.8885,0.8885,0.8885,0.8885,0.8885,0.8885,0.8885,0.9516,1.0426,1.0494,1.1648,1.3393,1.4445,1.5757,1.712,2.2928,2.2928,2.2928,2.2928,2.2928,2.2928,2.2928,2.2928,2.2928,2.2928,2.2928,2.2812,2.2672,2.2512,2.2311,2.2044,2.1877,2.1663,2.137,2.1196,2.1109,2.1109,2.1109,2.1109,2.1109,2.1109,2.1042,2.0909,2.0755,2.0541,2.0267,1.9947,1.9726,1.9593,1.9432,1.9424,1.9424,1.9424,1.9424,1.9424,1.9424,1.9424,1.9424,1.9424,1.9424,1.9424,1.9424,1.9424,1.9424,1.9424,1.9279,1.9132,1.8978,1.8831,1.8664,1.837,1.8056,1.7762,1.7622,1.7582,1.7582,1.7582,1.7582,1.7582,1.7582,1.7378,1.6961,1.6105,1.503,1.3732,1.2096,1.1122,1.0257,0.9489,0.9375,0.932,0.9213,0.9158,0.9103,0.894,0.8885,0.8885,0.8885,0.8885,0.8885,0.8885,0.8885,0.8885,0.8885,0.8885,0.8885,0.8885,0.8885,0.8885,0.8885,0.8885,0.8885,0.8885,0.8885,0.8885,0.8885,0.8885,0.8885,0.8885,0.8885,0.9099,0.9402,0.9227,0.9596,1.0322,1.0463,1.14,1.2786,1.4016,1.5365,1.6644,2.2928,2.2928,2.2928,2.2928,2.2928,2.2928,2.2928,2.2928,2.2928,2.2928,2.2928,2.2928,2.2928,2.2659,2.2492,2.2425,2.2218,2.1964,2.1735,2.1376,2.1182,2.1109,2.1109,2.1109,2.1109,2.1109,2.1109,2.1109,2.0882,2.0742,2.0668,2.0214,1.9967,1.9887,1.9666,1.9573,1.9566,1.9499,1.9466,1.9459,1.9457,1.9424,1.9424,1.9424,1.9424,1.9424,1.9424,1.9424,1.9424,1.9424,1.9424,1.9383,1.9098,1.9025,1.8971,1.8677,1.8217,1.7762,1.7622,1.7582,1.7582,1.7582,1.7582,1.7582,1.7582,1.743,1.712,1.643,1.5351,1.4105,1.2743,1.1664,1.0692,1.0033,0.9871,0.9706,0.9434,0.9379,0.9268,0.8937,0.8885,0.8885,0.8885,0.8885,0.8885,0.8885,0.8885,0.8885,0.8885,0.8885,0.8885,0.8885,0.8885,0.8885,0.8885,0.8885,0.8885,0.8885,0.8885,0.8885,0.8885,0.8885,0.8885,0.8885,0.9033,0.9339,0.9624,0.9482,0.976,1.0266,1.0509,1.1225,1.2331,1.3618,1.4867,1.6177,2.2928,2.2928,2.2928,2.2928,2.2928,2.2928,2.2928,2.2928,2.2928,2.2928,2.2928,2.2928,2.2928,2.2914,2.2719,2.2445,2.2398,2.2265,2.1971,2.1683,2.1396,2.1122,2.1109,2.1109,2.1109,2.1109,2.1109,2.1109,2.1089,2.0942,2.0675,2.0635,2.0468,2.0201,2.018,2.0167,2.0147,1.9887,1.9766,1.9746,1.9472,1.9424,1.9424,1.9424,1.9424,1.9424,1.9424,1.9424,1.9424,1.9424,1.9424,1.9424,1.9339,1.9332,1.9279,1.8978,1.8671,1.8303,1.7736,1.7582,1.7582,1.7582,1.7582,1.7582,1.7582,1.7582,1.7325,1.6483,1.5832,1.4857,1.3181,1.2105,1.124,1.0421,0.9981,0.9706,0.9434,0.9379,0.9268,0.8937,0.8885,0.8885,0.8885,0.8885,0.8885,0.8885,0.8885,0.8885,0.8885,0.8885,0.8885,0.8885,0.8885,0.8885,0.8885,0.8885,0.8885,0.8885,0.8885,0.8885,0.8885,0.8885,0.8885,0.8947,0.9486,0.955,0.9277,0.9425,0.9923,1.0539,1.0613,1.1419,1.2762,1.3439,1.452,1.5833,2.2928,2.2928,2.2928,2.2928,2.2928,2.2928,2.2928,2.2928,2.2928,2.2928,2.2928,2.2928,2.2928,2.2928,2.2819,2.2706,2.2692,2.2565,2.2271,2.2151,2.1797,2.1136,2.1109,2.1109,2.1109,2.1109,2.1109,2.1109,2.1109,2.1049,2.0942,2.0762,2.0615,2.0501,2.0314,2.0173,2.0167,2.0114,2.0067,2.004,1.9753,1.9633,1.9619,1.9432,1.9424,1.9424,1.9424,1.9424,1.9424,1.9424,1.9424,1.9424,1.9424,1.9424,1.9305,1.9011,1.8844,1.8671,1.8257,1.8009,1.7822,1.7629,1.7582,1.7582,1.7582,1.7582,1.7477,1.6961,1.6264,1.5399,1.4164,1.3088,1.2114,1.124,1.0802,1.0363,0.9761,0.9651,0.9489,0.894,0.8885,0.8885,0.8885,0.8885,0.8885,0.8885,0.8885,0.8885,0.8885,0.8885,0.8885,0.8885,0.8885,0.8885,0.8885,0.8885,0.8885,0.8885,0.8885,0.8885,0.8944,1.0177,1.0339,0.9819,1.044,1.0747,1.0852,1.1157,1.1339,1.1359,1.1539,1.2179,1.308,1.3978,1.5046,1.629,2.2928,2.2928,2.2928,2.2928,2.2928,2.2928,2.2928,2.2928,2.2928,2.2928,2.2928,2.2928,2.2928,2.2928,2.2928,2.2928,2.2928,2.2779,2.2572,2.2472,2.2071,2.1283,2.1156,2.1109,2.1109,2.1109,2.1109,2.1109,2.1109,2.1109,2.1109,2.0909,2.0815,2.0802,2.0601,2.0508,2.0501,2.0408,2.0374,2.0347,2.0054,1.994,1.9907,1.9613,1.9506,1.9492,1.9457,1.9424,1.9424,1.9424,1.9424,1.9424,1.9424,1.9424,1.9325,1.9125,1.9065,1.8998,1.8704,1.8477,1.8169,1.7829,1.7655,1.7582,1.7582,1.7582,1.7536,1.7279,1.659,1.5785,1.4874,1.3743,1.2609,1.1732,1.1185,1.0582,0.9761,0.9651,0.9485,0.894,0.8885,0.8885,0.8885,0.8885,0.8885,0.8885,0.8885,0.8885,0.8885,0.8885,0.8885,0.8885,0.8885,0.8885,0.8885,0.8885,0.8885,0.8885,0.8885,0.9019,0.9238,1.102,1.1337,1.0505,1.131,1.1753,1.1875,1.2294,1.2439,1.2414,1.259,1.3191,1.4033,1.4808,1.5811,1.6932,2.2928,2.2928,2.2928,2.2928,2.2928,2.2928,2.2928,2.2928,2.2928,2.2928,2.2928,2.2928,2.2928,2.2928,2.2928,2.2928,2.2928,2.2928,2.2928,2.2585,2.2164,2.1648,2.1269,2.1109,2.1109,2.1109,2.1109,2.1109,2.1109,2.1109,2.1109,2.1109,2.1109,2.1109,2.1109,2.1109,2.1089,2.0802,2.0681,2.0655,2.0354,2.0173,2.014,1.9913,1.9806,1.9766,1.9479,1.943,1.943,1.943,1.943,1.9424,1.9424,1.9424,1.9424,1.9424,1.9424,1.9305,1.9005,1.8925,1.8784,1.8135,1.7816,1.7589,1.7582,1.7582,1.7536,1.7279,1.6755,1.6057,1.5148,1.3851,1.2604,1.1732,1.0857,1.0091,0.9489,0.9379,0.9268,0.8937,0.8885,0.8885,0.8885,0.8885,0.8885,0.8885,0.8885,0.8885,0.8885,0.8885,0.8885,0.8885,0.8885,0.8885,0.8885,0.8885,0.8885,0.8885,0.8885,0.9189,0.9854,1.1199,1.1465,1.0852,1.1967,1.2275,1.2085,1.2516,1.3135,1.3725,1.3725,1.45,1.5634,1.5994,1.6714,1.7602,2.2928,2.2928,2.2928,2.2928,2.2928,2.2928,2.2928,2.2928,2.2928,2.2928,2.2928,2.2928,2.2928,2.2928,2.2928,2.2928,2.2928,2.2928,2.2928,2.2585,2.2345,2.2164,2.1683,2.1423,2.1423,2.1216,2.1109,2.1109,2.1109,2.1109,2.1109,2.1109,2.1109,2.1109,2.1109,2.1109,2.1102,2.1015,2.0982,2.0955,2.0661,2.0541,2.0508,2.0214,2.01,2.0094,2.0007,1.9846,1.9673,1.9673,1.9539,1.9424,1.9424,1.9424,1.9424,1.9424,1.9424,1.941,1.9259,1.9085,1.8784,1.8135,1.7922,1.7849,1.7629,1.7582,1.7582,1.7483,1.7173,1.6696,1.6057,1.4928,1.3743,1.2659,1.1568,1.0582,0.9816,0.9544,0.9268,0.8937,0.8885,0.8885,0.8885,0.8885,0.8885,0.8885,0.8885,0.8885,0.8885,0.8885,0.8881,0.8927,0.8927,0.8916,0.8903,0.8927,0.8876,0.8914,0.8914,0.9337,1.0195,1.1321,1.1862,1.2067,1.3381,1.4178,1.4582,1.5123,1.5499,1.5677,1.5924,1.6402,1.6944,1.7232,1.7818,1.8532,2.2928,2.2928,2.2928,2.2928,2.2928,2.2928,2.2928,2.2928,2.2928,2.2928,2.2928,2.2928,2.2928,2.2928,2.2928,2.2928,2.2928,2.2928,2.2928,2.2692,2.2592,2.2592,2.2144,2.179,2.1621,2.1376,2.1229,2.1109,2.1109,2.1109,2.1109,2.1109,2.1109,2.1109,2.1109,2.1109,2.1109,2.1109,2.1109,2.1096,2.0915,2.0848,2.0815,2.0521,2.0408,2.0394,2.0274,2.012,1.9967,1.9967,1.978,1.9539,1.9539,1.9459,1.9424,1.9424,1.9424,1.9424,1.9424,1.9232,1.8985,1.8455,1.8255,1.8143,1.7836,1.7762,1.7736,1.7609,1.7384,1.702,1.643,1.5357,1.4223,1.3088,1.1891,1.0852,1.0091,0.9651,0.9323,0.9106,0.8992,0.8885,0.8885,0.8885,0.8885,0.8885,0.8885,0.8881,0.8878,0.8878,0.8923,0.8906,0.9359,0.9606,0.9588,1.007,0.9838,0.8894,0.9128,0.9824,1.0946,1.2064,1.2736,1.3076,1.4386,1.5337,1.5994,1.6638,1.6991,1.7044,1.7285,1.7642,1.8064,1.8233,1.8642,1.912,2.2928,2.2928,2.2928,2.2928,2.2928,2.2928,2.2928,2.2928,2.2928,2.2928,2.2928,2.2928,2.2928,2.2928,2.2928,2.2928,2.2928,2.2928,2.2928,2.2928,2.2928,2.2928,2.2605,2.2198,2.1708,2.1668,2.1443,2.1149,2.1149,2.1136,2.1109,2.1109,2.1109,2.1109,2.1109,2.1109,2.1109,2.1109,2.1109,2.1109,2.1109,2.1109,2.1082,2.0815,2.0715,2.0681,2.0408,2.0294,2.0267,2.0241,2.0054,1.984,1.984,1.9659,1.9497,1.9412,1.9464,1.9457,1.943,1.9424,1.9299,1.9032,1.8764,1.8484,1.8109,1.8035,1.8003,1.7722,1.7437,1.7112,1.6521,1.5476,1.4385,1.329,1.2046,1.1072,1.0527,0.9926,0.9489,0.9489,0.9158,0.8992,0.8937,0.894,0.8885,0.8881,0.8881,0.8878,0.892,0.8985,0.904,0.9071,1.0532,1.1366,1.1466,1.2406,1.171,0.9525,1.0086,1.0914,1.2132,1.333,1.3887,1.4023,1.5213,1.6113,1.6767,1.742,1.7824,1.8046,1.8046,1.8402,1.8939,1.8939,1.912,1.9424,2.2928,2.2928,2.2928,2.2928,2.2928,2.2928,2.2928,2.2928,2.2928,2.2928,2.2928,2.2928,2.2928,2.2928,2.2928,2.2928,2.2928,2.2928,2.2928,2.2928,2.2928,2.2928,2.2799,2.2599,2.2238,2.2004,2.175,2.1521,2.1521,2.1336,2.1109,2.1109,2.1109,2.1109,2.1109,2.1109,2.1109,2.1109,2.1109,2.1109,2.1109,2.1109,2.1102,2.1042,2.1015,2.1009,2.0942,2.0768,2.0541,2.0307,2.0187,2.014,2.014,2.0094,2.0,1.9773,1.9706,1.9659,1.9491,1.9424,1.9352,1.9285,1.9225,1.9038,1.8517,1.8397,1.8377,1.831,1.8055,1.7734,1.7404,1.6406,1.5399,1.4632,1.3398,1.2318,1.1728,1.0911,1.0363,1.0147,0.9816,0.9541,0.9323,0.9047,0.8881,0.8927,0.8923,0.8916,0.8896,0.9794,1.0304,1.0325,1.4046,1.6517,1.7497,1.6758,1.5657,1.4154,1.4273,1.4335,1.4321,1.4937,1.5461,1.5919,1.6762,1.759,1.8409,1.8829,1.901,1.9068,1.9068,1.9185,1.9301,1.9301,1.9366,1.9424,2.2928,2.2928,2.2928,2.2928,2.2928,2.2928,2.2928,2.2928,2.2928,2.2928,2.2928,2.2928,2.2928,2.2928,2.2928,2.2928,2.2928,2.2928,2.2928,2.2928,2.2928,2.2928,2.2928,2.2786,2.2632,2.2478,2.2191,2.1757,2.1757,2.161,2.1323,2.1323,2.1243,2.1109,2.1109,2.1109,2.1109,2.1109,2.1109,2.1109,2.1109,2.1109,2.1109,2.1109,2.1109,2.1109,2.1109,2.1009,2.0862,2.0702,2.0561,2.0441,2.0441,2.0347,2.014,2.0054,2.0007,1.9947,1.9653,1.9573,1.9539,1.9406,1.9424,1.931,1.8798,1.8698,1.8657,1.8517,1.837,1.8147,1.786,1.7239,1.6532,1.5926,1.4878,1.3885,1.329,1.2451,1.169,1.1159,1.0703,1.0109,0.9251,0.903,0.8897,0.8893,0.9412,0.9782,0.9752,1.0868,1.2007,1.3016,1.6519,1.8709,1.9401,1.8719,1.7858,1.6774,1.6598,1.6402,1.6185,1.6617,1.6884,1.6997,1.7655,1.8298,1.8933,1.9243,1.9424,1.9424,1.9424,1.9424,1.9424,1.9424,1.9424,1.9424,2.2928,2.2928,2.2928,2.2928,2.2928,2.2928,2.2928,2.2928,2.2928,2.2928,2.2928,2.2928,2.2928,2.2928,2.2928,2.2928,2.2928,2.2928,2.2928,2.2928,2.2928,2.2928,2.2928,2.2928,2.2928,2.2928,2.2599,2.2064,2.2064,2.1911,2.1688,2.1641,2.1423,2.1182,2.1129,2.1109,2.1109,2.1109,2.1109,2.1109,2.1109,2.1109,2.1109,2.1109,2.1109,2.1109,2.1109,2.1109,2.1109,2.1109,2.0949,2.0755,2.0755,2.0581,2.0313,2.0327,2.0307,2.0247,1.9953,1.9873,1.9806,1.9512,1.9446,1.9359,1.9065,1.8998,1.8931,1.8691,1.8597,1.8508,1.8279,1.7942,1.7514,1.7074,1.6284,1.549,1.488,1.4019,1.3145,1.23,1.1651,1.0735,0.9355,0.8999,0.9123,0.9702,1.0638,1.1286,1.1538,1.2632,1.4065,1.5875,1.8186,1.9401,1.9411,1.9309,1.8959,1.8296,1.8003,1.771,1.7586,1.7898,1.7938,1.7778,1.824,1.8655,1.8997,1.9301,1.9424,1.9424,1.9424,1.9424,1.9424,1.9424,1.9424,1.9424,2.2928,2.2928,2.2928,2.2928,2.2928,2.2928,2.2928,2.2928,2.2928,2.2928,2.2928,2.2928,2.2928,2.2928,2.2928,2.2928,2.2928,2.2928,2.2928,2.2928,2.2928,2.2928,2.2928,2.2928,2.2928,2.2928,2.2699,2.2358,2.2358,2.2211,2.1924,2.1735,2.1594,2.1547,2.1223,2.1109,2.1109,2.1109,2.1109,2.1109,2.1109,2.1109,2.1109,2.1109,2.1109,2.1109,2.1109,2.1109,2.1109,2.1109,2.1082,2.1049,2.1049,2.1022,2.0942,2.0688,2.0615,2.0548,2.0254,2.0174,2.01,1.9813,1.974,1.9666,1.9372,1.9305,1.9299,1.9316,1.9045,1.8808,1.8808,1.8371,1.8027,1.7922,1.7359,1.6744,1.6127,1.5186,1.4189,1.3362,1.2261,1.1269,1.0546,0.9514,1.0052,1.2837,1.3222,1.3806,1.488,1.6109,1.6932,1.7222,1.8674,1.9374,1.9372,1.9082,1.9023,1.9198,1.9198,1.8661,1.7824,1.7883,1.8233,1.8706,1.8823,1.9004,1.9366,1.9366,1.9424,1.9424,1.9424,1.9424,1.9424,1.9424,1.9424,1.9424,2.2928,2.2928,2.2928,2.2928,2.2928,2.2928,2.2928,2.2928,2.2928,2.2928,2.2928,2.2928,2.2928,2.2928,2.2928,2.2928,2.2928,2.2928,2.2928,2.2928,2.2928,2.2928,2.2928,2.2928,2.2928,2.2928,2.2799,2.2665,2.2665,2.2519,2.2225,2.2098,2.1951,2.179,2.1657,2.151,2.1356,2.1356,2.1263,2.1109,2.1109,2.1109,2.1109,2.1109,2.1109,2.1109,2.1109,2.1109,2.1109,2.1109,2.1109,2.1109,2.1109,2.1109,2.1082,2.0955,2.0915,2.0855,2.0561,2.0481,2.0414,2.0114,2.004,1.9967,1.9673,1.9606,1.9559,1.9457,1.9265,1.9172,1.9172,1.9008,1.8801,1.8801,1.8452,1.7989,1.7531,1.6805,1.5856,1.4797,1.3131,1.2436,1.3369,1.2988,1.3226,1.463,1.5393,1.6049,1.6628,1.7851,1.8571,1.8558,1.912,1.9419,1.9386,1.9249,1.9243,1.9424,1.9424,1.9185,1.8771,1.8771,1.8887,1.9178,1.9178,1.9243,1.9424,1.9424,1.9424,1.9424,1.9424,1.9424,1.9424,1.9424,1.9424,1.9424]}]]